Wetterdaten: Freitag, 14.07.2023
Datum Zeit Temp. I. Temp. A. Feuchte I. Feuchte A. Luftdruck Regen Wind Richtung Richtung Sonnenschein Solar Taupunkt Windchill Windböen
14.07.2023 00:00 24,4 °C 13,9 °C 57 % 85 % 1018,7 hPa 0,0 l/m² 0,0 km/h (0 Bft) W 263 ° 0 min 0 W/m² 11,4 °C 13,9 °C 0,0 km/h (0 Bft)
14.07.2023 00:02 24,4 °C 13,9 °C 57 % 85 % 1018,6 hPa 0,0 l/m² 0,0 km/h (0 Bft) W 263 ° 0 min 0 W/m² 11,4 °C 13,9 °C 0,0 km/h (0 Bft)
14.07.2023 00:03 24,4 °C 13,9 °C 56 % 85 % 1018,6 hPa 0,0 l/m² 0,0 km/h (0 Bft) W 263 ° 0 min 0 W/m² 11,4 °C 13,9 °C 0,0 km/h (0 Bft)
14.07.2023 00:04 24,4 °C 13,9 °C 57 % 86 % 1018,7 hPa 0,0 l/m² 0,0 km/h (0 Bft) W 263 ° 0 min 0 W/m² 11,6 °C 13,9 °C 0,0 km/h (0 Bft)
14.07.2023 00:06 24,4 °C 13,9 °C 57 % 86 % 1018,7 hPa 0,0 l/m² 0,0 km/h (0 Bft) W 263 ° 0 min 0 W/m² 11,6 °C 13,9 °C 0,0 km/h (0 Bft)
14.07.2023 00:08 24,4 °C 13,9 °C 56 % 86 % 1018,8 hPa 0,0 l/m² 0,0 km/h (0 Bft) W 263 ° 0 min 0 W/m² 11,6 °C 13,9 °C 0,0 km/h (0 Bft)
14.07.2023 00:10 24,4 °C 14,1 °C 56 % 86 % 1018,7 hPa 0,0 l/m² 0,0 km/h (0 Bft) W 263 ° 0 min 0 W/m² 11,8 °C 14,1 °C 0,0 km/h (0 Bft)
14.07.2023 00:11 24,4 °C 14,1 °C 57 % 86 % 1018,8 hPa 0,0 l/m² 0,0 km/h (0 Bft) W 263 ° 0 min 0 W/m² 11,8 °C 14,1 °C 0,0 km/h (0 Bft)
14.07.2023 00:13 24,4 °C 14,1 °C 56 % 85 % 1018,7 hPa 0,0 l/m² 0,0 km/h (0 Bft) W 263 ° 0 min 0 W/m² 11,6 °C 14,1 °C 0,0 km/h (0 Bft)
14.07.2023 00:15 24,4 °C 14,1 °C 56 % 85 % 1018,7 hPa 0,0 l/m² 0,0 km/h (0 Bft) W 263 ° 0 min 0 W/m² 11,6 °C 14,1 °C 0,0 km/h (0 Bft)
14.07.2023 00:17 24,4 °C 14,0 °C 56 % 85 % 1018,7 hPa 0,0 l/m² 0,0 km/h (0 Bft) W 263 ° 0 min 0 W/m² 11,5 °C 14,0 °C 0,0 km/h (0 Bft)
14.07.2023 00:19 24,4 °C 13,9 °C 57 % 85 % 1018,7 hPa 0,0 l/m² 0,0 km/h (0 Bft) W 263 ° 0 min 0 W/m² 11,4 °C 13,9 °C 0,0 km/h (0 Bft)
14.07.2023 00:21 24,4 °C 13,8 °C 56 % 85 % 1018,7 hPa 0,0 l/m² 0,0 km/h (0 Bft) W 263 ° 0 min 0 W/m² 11,3 °C 13,8 °C 0,0 km/h (0 Bft)
14.07.2023 00:23 24,4 °C 13,8 °C 56 % 85 % 1018,6 hPa 0,0 l/m² 0,0 km/h (0 Bft) W 263 ° 0 min 0 W/m² 11,3 °C 13,8 °C 0,0 km/h (0 Bft)
14.07.2023 00:25 24,4 °C 13,8 °C 56 % 86 % 1018,7 hPa 0,0 l/m² 0,0 km/h (0 Bft) W 263 ° 0 min 0 W/m² 11,5 °C 13,8 °C 0,0 km/h (0 Bft)
14.07.2023 00:27 24,3 °C 13,8 °C 56 % 86 % 1018,6 hPa 0,0 l/m² 0,0 km/h (0 Bft) W 263 ° 0 min 0 W/m² 11,5 °C 13,8 °C 0,0 km/h (0 Bft)
14.07.2023 00:29 24,4 °C 13,8 °C 56 % 86 % 1018,6 hPa 0,0 l/m² 0,0 km/h (0 Bft) W 263 ° 0 min 0 W/m² 11,5 °C 13,8 °C 0,0 km/h (0 Bft)
14.07.2023 00:31 24,4 °C 13,7 °C 56 % 86 % 1018,6 hPa 0,0 l/m² 0,0 km/h (0 Bft) W 263 ° 0 min 0 W/m² 11,4 °C 13,7 °C 0,0 km/h (0 Bft)
14.07.2023 00:34 24,4 °C 13,7 °C 57 % 87 % 1018,6 hPa 0,0 l/m² 0,0 km/h (0 Bft) W 263 ° 0 min 0 W/m² 11,6 °C 13,7 °C 0,0 km/h (0 Bft)
14.07.2023 00:36 24,4 °C 13,6 °C 56 % 87 % 1018,7 hPa 0,0 l/m² 0,0 km/h (0 Bft) W 263 ° 0 min 0 W/m² 11,5 °C 13,6 °C 0,0 km/h (0 Bft)
14.07.2023 00:38 24,3 °C 13,5 °C 56 % 87 % 1018,7 hPa 0,0 l/m² 0,0 km/h (0 Bft) W 263 ° 0 min 0 W/m² 11,4 °C 13,5 °C 0,0 km/h (0 Bft)
14.07.2023 00:40 24,4 °C 13,4 °C 56 % 87 % 1018,7 hPa 0,0 l/m² 0,0 km/h (0 Bft) W 263 ° 0 min 0 W/m² 11,3 °C 13,4 °C 0,0 km/h (0 Bft)
14.07.2023 00:43 24,3 °C 13,2 °C 56 % 88 % 1018,7 hPa 0,0 l/m² 0,0 km/h (0 Bft) W 263 ° 0 min 0 W/m² 11,3 °C 13,2 °C 0,0 km/h (0 Bft)
14.07.2023 00:45 24,3 °C 13,2 °C 56 % 88 % 1018,7 hPa 0,0 l/m² 0,0 km/h (0 Bft) W 263 ° 0 min 0 W/m² 11,3 °C 13,2 °C 0,0 km/h (0 Bft)
14.07.2023 00:47 24,4 °C 13,2 °C 56 % 88 % 1018,7 hPa 0,0 l/m² 0,0 km/h (0 Bft) W 263 ° 0 min 0 W/m² 11,3 °C 13,2 °C 0,0 km/h (0 Bft)
14.07.2023 00:49 24,4 °C 13,2 °C 56 % 88 % 1018,7 hPa 0,0 l/m² 0,0 km/h (0 Bft) W 263 ° 0 min 0 W/m² 11,3 °C 13,2 °C 0,0 km/h (0 Bft)
14.07.2023 00:52 24,4 °C 13,2 °C 56 % 89 % 1018,8 hPa 0,0 l/m² 0,0 km/h (0 Bft) W 263 ° 0 min 0 W/m² 11,4 °C 13,2 °C 0,0 km/h (0 Bft)
14.07.2023 00:53 24,4 °C 13,2 °C 56 % 89 % 1018,8 hPa 0,0 l/m² 0,0 km/h (0 Bft) W 263 ° 0 min 0 W/m² 11,4 °C 13,2 °C 0,0 km/h (0 Bft)
14.07.2023 00:54 24,4 °C 13,2 °C 56 % 89 % 1018,8 hPa 0,0 l/m² 0,0 km/h (0 Bft) W 263 ° 0 min 0 W/m² 11,4 °C 13,2 °C 0,0 km/h (0 Bft)
14.07.2023 00:55 24,4 °C 13,2 °C 56 % 89 % 1018,7 hPa 0,0 l/m² 0,0 km/h (0 Bft) W 263 ° 0 min 0 W/m² 11,4 °C 13,2 °C 0,0 km/h (0 Bft)
14.07.2023 00:57 24,4 °C 13,3 °C 56 % 89 % 1018,6 hPa 0,0 l/m² 0,0 km/h (0 Bft) W 263 ° 0 min 0 W/m² 11,5 °C 13,3 °C 0,0 km/h (0 Bft)
14.07.2023 00:59 24,4 °C 13,3 °C 56 % 89 % 1018,7 hPa 0,0 l/m² 0,0 km/h (0 Bft) W 263 ° 0 min 0 W/m² 11,5 °C 13,3 °C 0,0 km/h (0 Bft)
14.07.2023 01:01 24,4 °C 13,3 °C 56 % 89 % 1018,7 hPa 0,0 l/m² 0,0 km/h (0 Bft) W 263 ° 0 min 0 W/m² 11,5 °C 13,3 °C 0,0 km/h (0 Bft)
14.07.2023 01:04 24,4 °C 13,4 °C 56 % 89 % 1018,7 hPa 0,0 l/m² 0,0 km/h (0 Bft) W 263 ° 0 min 0 W/m² 11,6 °C 13,4 °C 0,0 km/h (0 Bft)
14.07.2023 01:05 24,4 °C 13,4 °C 56 % 89 % 1018,7 hPa 0,0 l/m² 0,0 km/h (0 Bft) W 263 ° 0 min 0 W/m² 11,6 °C 13,4 °C 0,0 km/h (0 Bft)
14.07.2023 01:06 24,4 °C 13,4 °C 56 % 89 % 1018,7 hPa 0,0 l/m² 0,0 km/h (0 Bft) W 263 ° 0 min 0 W/m² 11,6 °C 13,4 °C 0,0 km/h (0 Bft)
14.07.2023 01:07 24,4 °C 13,4 °C 56 % 89 % 1018,7 hPa 0,0 l/m² 0,0 km/h (0 Bft) W 263 ° 0 min 0 W/m² 11,6 °C 13,4 °C 0,0 km/h (0 Bft)
14.07.2023 01:09 24,4 °C 13,4 °C 56 % 89 % 1018,7 hPa 0,0 l/m² 0,5 km/h (0 Bft) W 263 ° 0 min 0 W/m² 11,6 °C 13,4 °C 3,2 km/h (1 Bft)
14.07.2023 01:12 24,4 °C 13,4 °C 56 % 89 % 1018,7 hPa 0,0 l/m² 0,0 km/h (0 Bft) W 263 ° 0 min 0 W/m² 11,6 °C 13,4 °C 0,0 km/h (0 Bft)
14.07.2023 01:13 24,4 °C 13,4 °C 56 % 89 % 1018,8 hPa 0,0 l/m² 0,0 km/h (0 Bft) W 263 ° 0 min 0 W/m² 11,6 °C 13,4 °C 0,0 km/h (0 Bft)
14.07.2023 01:14 24,4 °C 13,4 °C 56 % 89 % 1018,8 hPa 0,0 l/m² 0,0 km/h (0 Bft) W 263 ° 0 min 0 W/m² 11,6 °C 13,4 °C 0,0 km/h (0 Bft)
14.07.2023 01:15 24,4 °C 13,3 °C 56 % 89 % 1018,8 hPa 0,0 l/m² 0,0 km/h (0 Bft) W 263 ° 0 min 0 W/m² 11,5 °C 13,3 °C 0,0 km/h (0 Bft)
14.07.2023 01:17 24,4 °C 13,4 °C 56 % 89 % 1018,9 hPa 0,0 l/m² 0,0 km/h (0 Bft) W 263 ° 0 min 0 W/m² 11,6 °C 13,4 °C 0,0 km/h (0 Bft)
14.07.2023 01:19 24,4 °C 13,3 °C 56 % 89 % 1018,8 hPa 0,0 l/m² 0,0 km/h (0 Bft) W 263 ° 0 min 0 W/m² 11,5 °C 13,3 °C 0,0 km/h (0 Bft)
14.07.2023 01:21 24,4 °C 13,3 °C 56 % 89 % 1018,8 hPa 0,0 l/m² 0,0 km/h (0 Bft) W 263 ° 0 min 0 W/m² 11,5 °C 13,3 °C 0,0 km/h (0 Bft)
14.07.2023 01:22 24,4 °C 13,3 °C 56 % 89 % 1018,8 hPa 0,0 l/m² 0,0 km/h (0 Bft) W 263 ° 0 min 0 W/m² 11,5 °C 13,3 °C 0,0 km/h (0 Bft)
14.07.2023 01:23 24,4 °C 13,3 °C 56 % 89 % 1018,8 hPa 0,0 l/m² 0,0 km/h (0 Bft) W 263 ° 0 min 0 W/m² 11,5 °C 13,3 °C 0,0 km/h (0 Bft)
14.07.2023 01:24 24,4 °C 13,3 °C 56 % 89 % 1018,8 hPa 0,0 l/m² 0,0 km/h (0 Bft) W 263 ° 0 min 0 W/m² 11,5 °C 13,3 °C 0,0 km/h (0 Bft)
14.07.2023 01:26 24,4 °C 13,3 °C 56 % 88 % 1018,8 hPa 0,0 l/m² 0,0 km/h (0 Bft) W 263 ° 0 min 0 W/m² 11,4 °C 13,3 °C 0,0 km/h (0 Bft)
14.07.2023 01:28 24,4 °C 13,3 °C 56 % 88 % 1018,9 hPa 0,0 l/m² 0,0 km/h (0 Bft) W 263 ° 0 min 0 W/m² 11,4 °C 13,3 °C 0,0 km/h (0 Bft)
14.07.2023 01:30 24,4 °C 13,3 °C 56 % 88 % 1018,8 hPa 0,0 l/m² 0,0 km/h (0 Bft) W 263 ° 0 min 0 W/m² 11,4 °C 13,3 °C 0,0 km/h (0 Bft)
14.07.2023 01:32 24,4 °C 13,3 °C 56 % 88 % 1018,8 hPa 0,0 l/m² 0,0 km/h (0 Bft) W 263 ° 0 min 0 W/m² 11,4 °C 13,3 °C 0,0 km/h (0 Bft)
14.07.2023 01:34 24,4 °C 13,3 °C 56 % 88 % 1018,9 hPa 0,0 l/m² 0,0 km/h (0 Bft) W 263 ° 0 min 0 W/m² 11,4 °C 13,3 °C 0,0 km/h (0 Bft)
14.07.2023 01:36 24,4 °C 13,3 °C 56 % 88 % 1018,9 hPa 0,0 l/m² 0,0 km/h (0 Bft) W 263 ° 0 min 0 W/m² 11,4 °C 13,3 °C 0,0 km/h (0 Bft)
14.07.2023 01:38 24,4 °C 13,3 °C 56 % 88 % 1018,9 hPa 0,0 l/m² 0,0 km/h (0 Bft) W 263 ° 0 min 0 W/m² 11,4 °C 13,3 °C 0,0 km/h (0 Bft)
14.07.2023 01:40 24,4 °C 13,3 °C 56 % 88 % 1018,8 hPa 0,0 l/m² 0,2 km/h (0 Bft) SW 218 ° 0 min 0 W/m² 11,4 °C 13,3 °C 3,2 km/h (1 Bft)
14.07.2023 01:42 24,3 °C 13,3 °C 56 % 88 % 1018,8 hPa 0,0 l/m² 0,9 km/h (0 Bft) SW 216 ° 0 min 0 W/m² 11,4 °C 13,3 °C 3,2 km/h (1 Bft)
14.07.2023 01:44 24,4 °C 13,3 °C 56 % 88 % 1018,8 hPa 0,0 l/m² 0,0 km/h (0 Bft) SW 216 ° 0 min 0 W/m² 11,4 °C 13,3 °C 0,0 km/h (0 Bft)
14.07.2023 01:46 24,4 °C 13,3 °C 56 % 88 % 1018,8 hPa 0,0 l/m² 0,0 km/h (0 Bft) SW 216 ° 0 min 0 W/m² 11,4 °C 13,3 °C 0,0 km/h (0 Bft)
14.07.2023 01:48 24,4 °C 13,3 °C 56 % 88 % 1018,8 hPa 0,0 l/m² 0,4 km/h (0 Bft) SW 216 ° 0 min 0 W/m² 11,4 °C 13,3 °C 3,2 km/h (1 Bft)
14.07.2023 01:50 24,4 °C 13,3 °C 56 % 88 % 1018,9 hPa 0,0 l/m² 0,1 km/h (0 Bft) SW 216 ° 0 min 0 W/m² 11,4 °C 13,3 °C 1,6 km/h (1 Bft)
14.07.2023 01:53 24,3 °C 13,3 °C 56 % 88 % 1018,8 hPa 0,0 l/m² 0,7 km/h (0 Bft) SW 215 ° 0 min 0 W/m² 11,4 °C 13,3 °C 3,2 km/h (1 Bft)
14.07.2023 01:54 24,4 °C 13,4 °C 56 % 88 % 1018,8 hPa 0,0 l/m² 1,7 km/h (1 Bft) S-SW 211 ° 0 min 0 W/m² 11,5 °C 13,4 °C 3,2 km/h (1 Bft)
14.07.2023 01:55 24,4 °C 13,4 °C 56 % 88 % 1018,8 hPa 0,0 l/m² 2,1 km/h (1 Bft) S-SW 211 ° 0 min 0 W/m² 11,5 °C 13,4 °C 4,8 km/h (1 Bft)
14.07.2023 01:56 24,3 °C 13,4 °C 56 % 88 % 1018,8 hPa 0,0 l/m² 3,5 km/h (1 Bft) S 186 ° 0 min 0 W/m² 11,5 °C 13,4 °C 4,8 km/h (1 Bft)
14.07.2023 01:58 24,4 °C 13,4 °C 56 % 88 % 1018,8 hPa 0,0 l/m² 2,5 km/h (1 Bft) S 186 ° 0 min 0 W/m² 11,5 °C 13,4 °C 4,8 km/h (1 Bft)
14.07.2023 02:00 24,4 °C 13,3 °C 56 % 88 % 1018,8 hPa 0,0 l/m² 0,3 km/h (0 Bft) S 186 ° 0 min 0 W/m² 11,4 °C 13,3 °C 1,6 km/h (1 Bft)
14.07.2023 02:02 24,3 °C 13,4 °C 56 % 87 % 1018,7 hPa 0,0 l/m² 0,0 km/h (0 Bft) S 186 ° 0 min 0 W/m² 11,3 °C 13,4 °C 0,0 km/h (0 Bft)
14.07.2023 02:04 24,4 °C 13,3 °C 56 % 87 % 1018,7 hPa 0,0 l/m² 0,0 km/h (0 Bft) S 186 ° 0 min 0 W/m² 11,2 °C 13,3 °C 0,0 km/h (0 Bft)
14.07.2023 02:06 24,4 °C 13,4 °C 56 % 87 % 1018,7 hPa 0,0 l/m² 0,0 km/h (0 Bft) S 186 ° 0 min 0 W/m² 11,3 °C 13,4 °C 0,0 km/h (0 Bft)
14.07.2023 02:08 24,4 °C 13,4 °C 56 % 87 % 1018,8 hPa 0,0 l/m² 0,0 km/h (0 Bft) S 186 ° 0 min 0 W/m² 11,3 °C 13,4 °C 0,0 km/h (0 Bft)
14.07.2023 02:10 24,4 °C 13,4 °C 56 % 87 % 1018,7 hPa 0,0 l/m² 0,0 km/h (0 Bft) S 186 ° 0 min 0 W/m² 11,3 °C 13,4 °C 0,0 km/h (0 Bft)
14.07.2023 02:12 24,4 °C 13,4 °C 56 % 87 % 1018,6 hPa 0,0 l/m² 0,5 km/h (0 Bft) S 184 ° 0 min 0 W/m² 11,3 °C 13,4 °C 3,2 km/h (1 Bft)
14.07.2023 02:14 24,4 °C 13,4 °C 56 % 87 % 1018,6 hPa 0,0 l/m² 0,0 km/h (0 Bft) S 184 ° 0 min 0 W/m² 11,3 °C 13,4 °C 0,0 km/h (0 Bft)
14.07.2023 02:16 24,4 °C 13,5 °C 56 % 87 % 1018,6 hPa 0,0 l/m² 0,0 km/h (0 Bft) S 184 ° 0 min 0 W/m² 11,4 °C 13,5 °C 0,0 km/h (0 Bft)
14.07.2023 02:18 24,3 °C 13,6 °C 56 % 87 % 1018,6 hPa 0,0 l/m² 0,0 km/h (0 Bft) S 184 ° 0 min 0 W/m² 11,5 °C 13,6 °C 1,6 km/h (1 Bft)
14.07.2023 02:20 24,4 °C 13,6 °C 56 % 87 % 1018,7 hPa 0,0 l/m² 0,0 km/h (0 Bft) S 184 ° 0 min 0 W/m² 11,5 °C 13,6 °C 0,0 km/h (0 Bft)
14.07.2023 02:23 24,3 °C 13,6 °C 56 % 87 % 1018,6 hPa 0,0 l/m² 0,3 km/h (0 Bft) S 184 ° 0 min 0 W/m² 11,5 °C 13,6 °C 1,6 km/h (1 Bft)
14.07.2023 02:25 24,4 °C 13,6 °C 56 % 87 % 1018,6 hPa 0,0 l/m² 0,0 km/h (0 Bft) S 184 ° 0 min 0 W/m² 11,5 °C 13,6 °C 0,0 km/h (0 Bft)
14.07.2023 02:27 24,3 °C 13,6 °C 56 % 87 % 1018,6 hPa 0,0 l/m² 0,0 km/h (0 Bft) S 184 ° 0 min 0 W/m² 11,5 °C 13,6 °C 0,0 km/h (0 Bft)
14.07.2023 02:29 24,3 °C 13,7 °C 56 % 86 % 1018,6 hPa 0,0 l/m² 0,0 km/h (0 Bft) S 184 ° 0 min 0 W/m² 11,4 °C 13,7 °C 1,6 km/h (1 Bft)
14.07.2023 02:31 24,3 °C 13,7 °C 56 % 86 % 1018,5 hPa 0,0 l/m² 0,0 km/h (0 Bft) S 184 ° 0 min 0 W/m² 11,4 °C 13,7 °C 0,0 km/h (0 Bft)
14.07.2023 02:34 24,3 °C 13,7 °C 56 % 86 % 1018,5 hPa 0,0 l/m² 0,0 km/h (0 Bft) S 184 ° 0 min 0 W/m² 11,4 °C 13,7 °C 0,0 km/h (0 Bft)
14.07.2023 02:36 24,3 °C 13,7 °C 56 % 86 % 1018,6 hPa 0,0 l/m² 0,0 km/h (0 Bft) S 184 ° 0 min 0 W/m² 11,4 °C 13,7 °C 0,0 km/h (0 Bft)
14.07.2023 02:38 24,4 °C 13,7 °C 56 % 86 % 1018,6 hPa 0,0 l/m² 0,0 km/h (0 Bft) S 184 ° 0 min 0 W/m² 11,4 °C 13,7 °C 0,0 km/h (0 Bft)
14.07.2023 02:40 24,3 °C 13,7 °C 56 % 86 % 1018,6 hPa 0,0 l/m² 0,4 km/h (0 Bft) S 184 ° 0 min 0 W/m² 11,4 °C 13,7 °C 1,6 km/h (1 Bft)
14.07.2023 02:43 24,3 °C 13,7 °C 56 % 85 % 1018,5 hPa 0,0 l/m² 0,3 km/h (0 Bft) S 184 ° 0 min 0 W/m² 11,2 °C 13,7 °C 1,6 km/h (1 Bft)
14.07.2023 02:44 24,3 °C 13,7 °C 56 % 85 % 1018,6 hPa 0,0 l/m² 0,0 km/h (0 Bft) S 184 ° 0 min 0 W/m² 11,2 °C 13,7 °C 0,0 km/h (0 Bft)
14.07.2023 02:45 24,3 °C 13,7 °C 56 % 85 % 1018,6 hPa 0,0 l/m² 0,0 km/h (0 Bft) S 184 ° 0 min 0 W/m² 11,2 °C 13,7 °C 0,0 km/h (0 Bft)
14.07.2023 02:46 24,3 °C 13,7 °C 56 % 85 % 1018,6 hPa 0,0 l/m² 0,0 km/h (0 Bft) S 184 ° 0 min 0 W/m² 11,2 °C 13,7 °C 0,0 km/h (0 Bft)
14.07.2023 02:48 24,3 °C 13,6 °C 56 % 84 % 1018,6 hPa 0,0 l/m² 0,0 km/h (0 Bft) S 184 ° 0 min 0 W/m² 10,9 °C 13,6 °C 1,6 km/h (1 Bft)
14.07.2023 02:50 24,4 °C 13,6 °C 56 % 84 % 1018,6 hPa 0,0 l/m² 0,0 km/h (0 Bft) S 184 ° 0 min 0 W/m² 10,9 °C 13,6 °C 0,0 km/h (0 Bft)
14.07.2023 02:53 24,3 °C 13,6 °C 56 % 84 % 1018,6 hPa 0,0 l/m² 0,0 km/h (0 Bft) S 184 ° 0 min 0 W/m² 10,9 °C 13,6 °C 0,0 km/h (0 Bft)
14.07.2023 02:55 24,3 °C 13,6 °C 56 % 84 % 1018,6 hPa 0,0 l/m² 0,0 km/h (0 Bft) S 184 ° 0 min 0 W/m² 10,9 °C 13,6 °C 0,0 km/h (0 Bft)
14.07.2023 02:57 24,3 °C 13,6 °C 56 % 84 % 1018,6 hPa 0,0 l/m² 0,0 km/h (0 Bft) S 184 ° 0 min 0 W/m² 10,9 °C 13,6 °C 0,0 km/h (0 Bft)
14.07.2023 02:59 24,3 °C 13,6 °C 56 % 84 % 1018,6 hPa 0,0 l/m² 0,0 km/h (0 Bft) S 184 ° 0 min 0 W/m² 10,9 °C 13,6 °C 0,0 km/h (0 Bft)
14.07.2023 03:00 24,3 °C 13,6 °C 56 % 84 % 1018,6 hPa 0,0 l/m² 0,0 km/h (0 Bft) N 0 ° 0 min 0 W/m² 10,9 °C 13,6 °C 0,0 km/h (0 Bft)
14.07.2023 03:01 24,3 °C 13,6 °C 56 % 84 % 1018,5 hPa 0,0 l/m² 0,0 km/h (0 Bft) N 0 ° 0 min 0 W/m² 10,9 °C 13,6 °C 0,0 km/h (0 Bft)
14.07.2023 03:09 24,3 °C 13,6 °C 56 % 86 % 1018,6 hPa 0,0 l/m² 0,0 km/h (0 Bft) S 184 ° 0 min 0 W/m² 11,3 °C 13,6 °C 0,0 km/h (0 Bft)
14.07.2023 03:11 24,3 °C 13,6 °C 56 % 86 % 1018,5 hPa 0,0 l/m² 0,0 km/h (0 Bft) S 184 ° 0 min 0 W/m² 11,3 °C 13,6 °C 0,0 km/h (0 Bft)
14.07.2023 03:12 24,3 °C 13,6 °C 56 % 86 % 1018,5 hPa 0,0 l/m² 0,0 km/h (0 Bft) S 184 ° 0 min 0 W/m² 11,3 °C 13,6 °C 0,0 km/h (0 Bft)
14.07.2023 03:14 24,3 °C 13,6 °C 56 % 86 % 1018,5 hPa 0,0 l/m² 0,0 km/h (0 Bft) S 184 ° 0 min 0 W/m² 11,3 °C 13,6 °C 0,0 km/h (0 Bft)
14.07.2023 03:16 24,4 °C 13,6 °C 56 % 86 % 1018,5 hPa 0,0 l/m² 0,0 km/h (0 Bft) S 184 ° 0 min 0 W/m² 11,3 °C 13,6 °C 0,0 km/h (0 Bft)
14.07.2023 03:18 24,3 °C 13,6 °C 56 % 86 % 1018,5 hPa 0,0 l/m² 0,0 km/h (0 Bft) S 184 ° 0 min 0 W/m² 11,3 °C 13,6 °C 0,0 km/h (0 Bft)
14.07.2023 03:20 24,3 °C 13,6 °C 56 % 86 % 1018,5 hPa 0,0 l/m² 0,0 km/h (0 Bft) S 184 ° 0 min 0 W/m² 11,3 °C 13,6 °C 0,0 km/h (0 Bft)
14.07.2023 03:21 24,3 °C 13,6 °C 56 % 86 % 1018,5 hPa 0,0 l/m² 0,0 km/h (0 Bft) S 184 ° 0 min 0 W/m² 11,3 °C 13,6 °C 0,0 km/h (0 Bft)
14.07.2023 03:22 24,3 °C 13,6 °C 56 % 86 % 1018,5 hPa 0,0 l/m² 0,5 km/h (0 Bft) S 184 ° 0 min 0 W/m² 11,3 °C 13,6 °C 3,2 km/h (1 Bft)
14.07.2023 03:24 24,3 °C 13,6 °C 56 % 86 % 1018,5 hPa 0,0 l/m² 1,9 km/h (1 Bft) S 184 ° 0 min 0 W/m² 11,3 °C 13,6 °C 3,2 km/h (1 Bft)
14.07.2023 03:25 24,3 °C 13,6 °C 56 % 86 % 1018,4 hPa 0,0 l/m² 0,0 km/h (0 Bft) S 184 ° 0 min 0 W/m² 11,3 °C 13,6 °C 0,0 km/h (0 Bft)
14.07.2023 03:27 24,3 °C 13,6 °C 56 % 86 % 1018,5 hPa 0,0 l/m² 0,0 km/h (0 Bft) S 184 ° 0 min 0 W/m² 11,3 °C 13,6 °C 0,0 km/h (0 Bft)
14.07.2023 03:29 24,3 °C 13,6 °C 56 % 86 % 1018,5 hPa 0,0 l/m² 0,0 km/h (0 Bft) S 184 ° 0 min 0 W/m² 11,3 °C 13,6 °C 0,0 km/h (0 Bft)
14.07.2023 03:31 24,3 °C 13,6 °C 56 % 87 % 1018,5 hPa 0,0 l/m² 0,0 km/h (0 Bft) S 184 ° 0 min 0 W/m² 11,5 °C 13,6 °C 0,0 km/h (0 Bft)
14.07.2023 03:32 24,3 °C 13,6 °C 56 % 87 % 1018,5 hPa 0,0 l/m² 0,0 km/h (0 Bft) S 184 ° 0 min 0 W/m² 11,5 °C 13,6 °C 0,0 km/h (0 Bft)
14.07.2023 03:33 24,3 °C 13,6 °C 56 % 87 % 1018,5 hPa 0,0 l/m² 0,0 km/h (0 Bft) S 184 ° 0 min 0 W/m² 11,5 °C 13,6 °C 0,0 km/h (0 Bft)
14.07.2023 03:35 24,3 °C 13,6 °C 56 % 87 % 1018,5 hPa 0,0 l/m² 0,0 km/h (0 Bft) S 184 ° 0 min 0 W/m² 11,5 °C 13,6 °C 0,0 km/h (0 Bft)
14.07.2023 03:37 24,3 °C 13,6 °C 56 % 87 % 1018,5 hPa 0,0 l/m² 0,0 km/h (0 Bft) S 184 ° 0 min 0 W/m² 11,5 °C 13,6 °C 0,0 km/h (0 Bft)
14.07.2023 03:39 24,3 °C 13,6 °C 56 % 87 % 1018,5 hPa 0,0 l/m² 0,0 km/h (0 Bft) S 184 ° 0 min 0 W/m² 11,5 °C 13,6 °C 0,0 km/h (0 Bft)
14.07.2023 03:41 24,3 °C 13,6 °C 56 % 87 % 1018,5 hPa 0,0 l/m² 0,0 km/h (0 Bft) S 184 ° 0 min 0 W/m² 11,5 °C 13,6 °C 0,0 km/h (0 Bft)
14.07.2023 03:42 24,3 °C 13,6 °C 56 % 87 % 1018,5 hPa 0,0 l/m² 0,0 km/h (0 Bft) S 184 ° 0 min 0 W/m² 11,5 °C 13,6 °C 0,0 km/h (0 Bft)
14.07.2023 03:43 24,3 °C 13,6 °C 56 % 87 % 1018,5 hPa 0,0 l/m² 0,0 km/h (0 Bft) S 184 ° 0 min 0 W/m² 11,5 °C 13,6 °C 0,0 km/h (0 Bft)
14.07.2023 03:45 24,3 °C 13,6 °C 56 % 87 % 1018,5 hPa 0,0 l/m² 0,0 km/h (0 Bft) S 184 ° 0 min 0 W/m² 11,5 °C 13,6 °C 0,0 km/h (0 Bft)
14.07.2023 03:47 24,3 °C 13,6 °C 56 % 87 % 1018,5 hPa 0,0 l/m² 0,0 km/h (0 Bft) S 184 ° 0 min 0 W/m² 11,5 °C 13,6 °C 0,0 km/h (0 Bft)
14.07.2023 03:48 24,3 °C 13,6 °C 56 % 87 % 1018,5 hPa 0,0 l/m² 0,0 km/h (0 Bft) S 184 ° 0 min 0 W/m² 11,5 °C 13,6 °C 0,0 km/h (0 Bft)
14.07.2023 03:50 24,3 °C 13,6 °C 56 % 87 % 1018,5 hPa 0,0 l/m² 0,0 km/h (0 Bft) S 184 ° 0 min 0 W/m² 11,5 °C 13,6 °C 0,0 km/h (0 Bft)
14.07.2023 03:51 24,3 °C 13,6 °C 56 % 87 % 1018,5 hPa 0,0 l/m² 0,0 km/h (0 Bft) S 184 ° 0 min 0 W/m² 11,5 °C 13,6 °C 0,0 km/h (0 Bft)
14.07.2023 03:52 24,3 °C 13,6 °C 56 % 87 % 1018,5 hPa 0,0 l/m² 0,0 km/h (0 Bft) S 184 ° 0 min 0 W/m² 11,5 °C 13,6 °C 0,0 km/h (0 Bft)
14.07.2023 03:54 24,3 °C 13,6 °C 56 % 87 % 1018,6 hPa 0,0 l/m² 0,0 km/h (0 Bft) S 184 ° 0 min 0 W/m² 11,5 °C 13,6 °C 0,0 km/h (0 Bft)
14.07.2023 03:56 24,3 °C 13,6 °C 56 % 87 % 1018,6 hPa 0,0 l/m² 0,0 km/h (0 Bft) S 184 ° 0 min 0 W/m² 11,5 °C 13,6 °C 0,0 km/h (0 Bft)
14.07.2023 03:58 24,3 °C 13,6 °C 56 % 87 % 1018,6 hPa 0,0 l/m² 0,0 km/h (0 Bft) S 184 ° 0 min 0 W/m² 11,5 °C 13,6 °C 0,0 km/h (0 Bft)
14.07.2023 04:00 24,3 °C 13,6 °C 56 % 87 % 1018,5 hPa 0,0 l/m² 0,0 km/h (0 Bft) S 184 ° 0 min 0 W/m² 11,5 °C 13,6 °C 0,0 km/h (0 Bft)
14.07.2023 04:01 24,3 °C 13,7 °C 56 % 87 % 1018,6 hPa 0,0 l/m² 0,0 km/h (0 Bft) S 184 ° 0 min 0 W/m² 11,6 °C 13,7 °C 0,0 km/h (0 Bft)
14.07.2023 04:02 24,3 °C 13,7 °C 56 % 87 % 1018,5 hPa 0,0 l/m² 0,2 km/h (0 Bft) S 184 ° 0 min 0 W/m² 11,6 °C 13,7 °C 1,6 km/h (1 Bft)
14.07.2023 04:04 24,3 °C 13,7 °C 56 % 87 % 1018,5 hPa 0,0 l/m² 2,0 km/h (1 Bft) S 184 ° 0 min 0 W/m² 11,6 °C 13,7 °C 3,2 km/h (1 Bft)
14.07.2023 04:06 24,3 °C 13,7 °C 56 % 87 % 1018,5 hPa 0,0 l/m² 0,4 km/h (0 Bft) S 184 ° 0 min 0 W/m² 11,6 °C 13,7 °C 3,2 km/h (1 Bft)
14.07.2023 04:08 24,3 °C 13,7 °C 56 % 87 % 1018,6 hPa 0,0 l/m² 0,0 km/h (0 Bft) S 184 ° 0 min 0 W/m² 11,6 °C 13,7 °C 0,0 km/h (0 Bft)
14.07.2023 04:10 24,3 °C 13,7 °C 56 % 87 % 1018,6 hPa 0,0 l/m² 0,0 km/h (0 Bft) S 184 ° 0 min 0 W/m² 11,6 °C 13,7 °C 0,0 km/h (0 Bft)
14.07.2023 04:11 24,3 °C 13,6 °C 56 % 87 % 1018,5 hPa 0,0 l/m² 0,0 km/h (0 Bft) S 184 ° 0 min 0 W/m² 11,5 °C 13,6 °C 0,0 km/h (0 Bft)
14.07.2023 04:13 24,3 °C 13,6 °C 56 % 87 % 1018,6 hPa 0,0 l/m² 0,0 km/h (0 Bft) S 184 ° 0 min 0 W/m² 11,5 °C 13,6 °C 0,0 km/h (0 Bft)
14.07.2023 04:14 24,3 °C 13,6 °C 56 % 87 % 1018,6 hPa 0,0 l/m² 0,0 km/h (0 Bft) S 184 ° 0 min 0 W/m² 11,5 °C 13,6 °C 0,0 km/h (0 Bft)
14.07.2023 04:16 24,3 °C 13,6 °C 56 % 87 % 1018,5 hPa 0,0 l/m² 0,0 km/h (0 Bft) S 184 ° 0 min 0 W/m² 11,5 °C 13,6 °C 0,0 km/h (0 Bft)
14.07.2023 04:18 24,3 °C 13,6 °C 56 % 87 % 1018,6 hPa 0,0 l/m² 0,0 km/h (0 Bft) S 184 ° 0 min 0 W/m² 11,5 °C 13,6 °C 0,0 km/h (0 Bft)
14.07.2023 04:20 24,3 °C 13,6 °C 56 % 87 % 1018,6 hPa 0,0 l/m² 0,0 km/h (0 Bft) S 184 ° 0 min 0 W/m² 11,5 °C 13,6 °C 0,0 km/h (0 Bft)
14.07.2023 04:21 24,2 °C 13,6 °C 56 % 87 % 1018,6 hPa 0,0 l/m² 0,0 km/h (0 Bft) S 184 ° 0 min 0 W/m² 11,5 °C 13,6 °C 0,0 km/h (0 Bft)
14.07.2023 04:23 24,3 °C 13,6 °C 56 % 87 % 1018,6 hPa 0,0 l/m² 0,0 km/h (0 Bft) S 184 ° 0 min 0 W/m² 11,5 °C 13,6 °C 0,0 km/h (0 Bft)
14.07.2023 04:24 24,3 °C 13,6 °C 56 % 87 % 1018,6 hPa 0,0 l/m² 0,0 km/h (0 Bft) S 184 ° 0 min 0 W/m² 11,5 °C 13,6 °C 0,0 km/h (0 Bft)
14.07.2023 04:26 24,2 °C 13,5 °C 56 % 87 % 1018,6 hPa 0,0 l/m² 0,0 km/h (0 Bft) S 184 ° 0 min 0 W/m² 11,4 °C 13,5 °C 0,0 km/h (0 Bft)
14.07.2023 04:28 24,2 °C 13,5 °C 56 % 87 % 1018,7 hPa 0,0 l/m² 0,0 km/h (0 Bft) S 184 ° 0 min 0 W/m² 11,4 °C 13,5 °C 0,0 km/h (0 Bft)
14.07.2023 04:30 24,2 °C 13,5 °C 56 % 87 % 1018,6 hPa 0,0 l/m² 0,0 km/h (0 Bft) S 184 ° 0 min 0 W/m² 11,4 °C 13,5 °C 0,0 km/h (0 Bft)
14.07.2023 04:31 24,2 °C 13,6 °C 56 % 87 % 1018,7 hPa 0,0 l/m² 0,0 km/h (0 Bft) S 184 ° 0 min 0 W/m² 11,5 °C 13,6 °C 0,0 km/h (0 Bft)
14.07.2023 04:32 24,2 °C 13,5 °C 56 % 87 % 1018,6 hPa 0,0 l/m² 0,0 km/h (0 Bft) S 184 ° 0 min 0 W/m² 11,4 °C 13,5 °C 0,0 km/h (0 Bft)
14.07.2023 04:34 24,2 °C 13,5 °C 56 % 87 % 1018,7 hPa 0,0 l/m² 0,0 km/h (0 Bft) S 184 ° 0 min 0 W/m² 11,4 °C 13,5 °C 0,0 km/h (0 Bft)
14.07.2023 04:36 24,2 °C 13,4 °C 56 % 87 % 1018,7 hPa 0,0 l/m² 0,0 km/h (0 Bft) S 184 ° 0 min 0 W/m² 11,3 °C 13,4 °C 0,0 km/h (0 Bft)
14.07.2023 04:38 24,2 °C 13,4 °C 56 % 87 % 1018,7 hPa 0,0 l/m² 0,0 km/h (0 Bft) S 184 ° 0 min 0 W/m² 11,3 °C 13,4 °C 0,0 km/h (0 Bft)
14.07.2023 04:40 24,2 °C 13,4 °C 56 % 87 % 1018,8 hPa 0,0 l/m² 0,0 km/h (0 Bft) S 184 ° 0 min 0 W/m² 11,3 °C 13,4 °C 0,0 km/h (0 Bft)
14.07.2023 04:41 24,2 °C 13,4 °C 56 % 87 % 1018,8 hPa 0,0 l/m² 0,0 km/h (0 Bft) S 184 ° 0 min 0 W/m² 11,3 °C 13,4 °C 0,0 km/h (0 Bft)
14.07.2023 04:43 24,2 °C 13,3 °C 56 % 87 % 1018,7 hPa 0,0 l/m² 0,0 km/h (0 Bft) S 184 ° 0 min 0 W/m² 11,2 °C 13,3 °C 0,0 km/h (0 Bft)
14.07.2023 04:45 24,2 °C 13,3 °C 56 % 87 % 1018,8 hPa 0,0 l/m² 0,0 km/h (0 Bft) S 184 ° 0 min 0 W/m² 11,2 °C 13,3 °C 0,0 km/h (0 Bft)
14.07.2023 04:47 24,2 °C 13,3 °C 56 % 87 % 1018,8 hPa 0,0 l/m² 0,0 km/h (0 Bft) S 184 ° 0 min 0 W/m² 11,2 °C 13,3 °C 0,0 km/h (0 Bft)
14.07.2023 04:49 24,2 °C 13,3 °C 56 % 87 % 1018,8 hPa 0,0 l/m² 0,0 km/h (0 Bft) S 184 ° 0 min 0 W/m² 11,2 °C 13,3 °C 0,0 km/h (0 Bft)
14.07.2023 04:51 24,2 °C 13,2 °C 56 % 87 % 1018,8 hPa 0,0 l/m² 0,0 km/h (0 Bft) S 184 ° 0 min 0 W/m² 11,1 °C 13,2 °C 0,0 km/h (0 Bft)
14.07.2023 04:53 24,2 °C 13,2 °C 56 % 87 % 1018,7 hPa 0,0 l/m² 0,0 km/h (0 Bft) S 184 ° 0 min 0 W/m² 11,1 °C 13,2 °C 0,0 km/h (0 Bft)
14.07.2023 04:55 24,2 °C 13,2 °C 56 % 87 % 1018,7 hPa 0,0 l/m² 0,0 km/h (0 Bft) S 184 ° 0 min 0 W/m² 11,1 °C 13,2 °C 0,0 km/h (0 Bft)
14.07.2023 04:57 24,2 °C 13,2 °C 56 % 87 % 1018,7 hPa 0,0 l/m² 0,0 km/h (0 Bft) S 184 ° 0 min 0 W/m² 11,1 °C 13,2 °C 0,0 km/h (0 Bft)
14.07.2023 04:59 24,2 °C 13,2 °C 56 % 87 % 1018,7 hPa 0,0 l/m² 0,0 km/h (0 Bft) S 184 ° 0 min 0 W/m² 11,1 °C 13,2 °C 0,0 km/h (0 Bft)
14.07.2023 05:01 24,2 °C 13,1 °C 56 % 87 % 1018,7 hPa 0,0 l/m² 0,0 km/h (0 Bft) S 184 ° 0 min 0 W/m² 11,0 °C 13,1 °C 0,0 km/h (0 Bft)
14.07.2023 05:03 24,2 °C 13,1 °C 56 % 87 % 1018,7 hPa 0,0 l/m² 0,0 km/h (0 Bft) S 184 ° 0 min 0 W/m² 11,0 °C 13,1 °C 0,0 km/h (0 Bft)
14.07.2023 05:05 24,2 °C 13,1 °C 56 % 87 % 1018,7 hPa 0,0 l/m² 0,0 km/h (0 Bft) S 184 ° 0 min 0 W/m² 11,0 °C 13,1 °C 0,0 km/h (0 Bft)
14.07.2023 05:07 24,2 °C 13,0 °C 56 % 87 % 1018,7 hPa 0,0 l/m² 0,0 km/h (0 Bft) S 184 ° 0 min 0 W/m² 10,9 °C 13,0 °C 0,0 km/h (0 Bft)
14.07.2023 05:09 24,2 °C 13,0 °C 56 % 87 % 1018,7 hPa 0,0 l/m² 0,0 km/h (0 Bft) S 184 ° 0 min 0 W/m² 10,9 °C 13,0 °C 0,0 km/h (0 Bft)
14.07.2023 05:11 24,2 °C 12,9 °C 56 % 87 % 1018,7 hPa 0,0 l/m² 0,0 km/h (0 Bft) S 184 ° 0 min 0 W/m² 10,8 °C 12,9 °C 0,0 km/h (0 Bft)
14.07.2023 05:13 24,2 °C 12,9 °C 56 % 87 % 1018,7 hPa 0,0 l/m² 0,1 km/h (0 Bft) S 184 ° 0 min 0 W/m² 10,8 °C 12,9 °C 1,6 km/h (1 Bft)
14.07.2023 05:15 24,2 °C 12,9 °C 56 % 87 % 1018,7 hPa 0,0 l/m² 1,9 km/h (1 Bft) S 184 ° 0 min 0 W/m² 10,8 °C 12,9 °C 3,2 km/h (1 Bft)
14.07.2023 05:17 24,2 °C 12,8 °C 56 % 87 % 1018,6 hPa 0,0 l/m² 0,7 km/h (0 Bft) S 184 ° 0 min 5 W/m² 10,7 °C 12,8 °C 3,2 km/h (1 Bft)
14.07.2023 05:19 24,2 °C 12,8 °C 56 % 88 % 1018,6 hPa 0,0 l/m² 0,1 km/h (0 Bft) S 184 ° 0 min 5 W/m² 10,9 °C 12,8 °C 1,6 km/h (1 Bft)
14.07.2023 05:21 24,2 °C 12,8 °C 56 % 88 % 1018,6 hPa 0,0 l/m² 1,3 km/h (1 Bft) S 184 ° 0 min 5 W/m² 10,9 °C 12,8 °C 3,2 km/h (1 Bft)
14.07.2023 05:23 24,2 °C 12,8 °C 56 % 88 % 1018,6 hPa 0,0 l/m² 0,0 km/h (0 Bft) S 184 ° 0 min 5 W/m² 10,9 °C 12,8 °C 1,6 km/h (1 Bft)
14.07.2023 05:25 24,2 °C 12,7 °C 56 % 88 % 1018,7 hPa 0,0 l/m² 0,0 km/h (0 Bft) S 184 ° 0 min 7 W/m² 10,8 °C 12,7 °C 0,0 km/h (0 Bft)
14.07.2023 05:27 24,2 °C 12,7 °C 56 % 87 % 1018,7 hPa 0,0 l/m² 0,0 km/h (0 Bft) S 184 ° 0 min 9 W/m² 10,6 °C 12,7 °C 0,0 km/h (0 Bft)
14.07.2023 05:29 24,2 °C 12,6 °C 56 % 87 % 1018,7 hPa 0,0 l/m² 0,0 km/h (0 Bft) S 184 ° 0 min 9 W/m² 10,5 °C 12,6 °C 0,0 km/h (0 Bft)
14.07.2023 05:31 24,2 °C 12,6 °C 56 % 87 % 1018,7 hPa 0,0 l/m² 0,6 km/h (0 Bft) S 184 ° 0 min 11 W/m² 10,5 °C 12,6 °C 1,6 km/h (1 Bft)
14.07.2023 05:33 24,2 °C 12,5 °C 56 % 87 % 1018,8 hPa 0,0 l/m² 0,0 km/h (0 Bft) S 184 ° 0 min 12 W/m² 10,4 °C 12,5 °C 1,6 km/h (1 Bft)
14.07.2023 05:35 24,2 °C 12,4 °C 56 % 88 % 1018,7 hPa 0,0 l/m² 0,0 km/h (0 Bft) S 184 ° 0 min 12 W/m² 10,5 °C 12,4 °C 0,0 km/h (0 Bft)
14.07.2023 05:37 24,2 °C 12,4 °C 56 % 88 % 1018,8 hPa 0,0 l/m² 0,0 km/h (0 Bft) S 184 ° 0 min 16 W/m² 10,5 °C 12,4 °C 0,0 km/h (0 Bft)
14.07.2023 05:39 24,2 °C 12,4 °C 56 % 87 % 1018,7 hPa 0,0 l/m² 0,0 km/h (0 Bft) S 184 ° 0 min 16 W/m² 10,3 °C 12,4 °C 0,0 km/h (0 Bft)
14.07.2023 05:41 24,2 °C 12,4 °C 56 % 87 % 1018,7 hPa 0,0 l/m² 0,0 km/h (0 Bft) S 184 ° 0 min 18 W/m² 10,3 °C 12,4 °C 0,0 km/h (0 Bft)
14.07.2023 05:43 24,2 °C 12,4 °C 56 % 87 % 1018,7 hPa 0,0 l/m² 0,0 km/h (0 Bft) S 184 ° 0 min 19 W/m² 10,3 °C 12,4 °C 0,0 km/h (0 Bft)
14.07.2023 05:45 24,2 °C 12,3 °C 56 % 87 % 1018,7 hPa 0,0 l/m² 0,0 km/h (0 Bft) S 184 ° 0 min 21 W/m² 10,2 °C 12,3 °C 0,0 km/h (0 Bft)
14.07.2023 05:47 24,2 °C 12,3 °C 56 % 87 % 1018,7 hPa 0,0 l/m² 0,0 km/h (0 Bft) S 184 ° 0 min 23 W/m² 10,2 °C 12,3 °C 0,0 km/h (0 Bft)
14.07.2023 05:49 24,2 °C 12,3 °C 56 % 88 % 1018,7 hPa 0,0 l/m² 0,0 km/h (0 Bft) S 184 ° 0 min 25 W/m² 10,4 °C 12,3 °C 0,0 km/h (0 Bft)
14.07.2023 05:51 24,2 °C 12,3 °C 56 % 87 % 1018,7 hPa 0,0 l/m² 0,0 km/h (0 Bft) S 184 ° 0 min 26 W/m² 10,2 °C 12,3 °C 0,0 km/h (0 Bft)
14.07.2023 05:53 24,2 °C 12,2 °C 56 % 87 % 1018,7 hPa 0,0 l/m² 0,0 km/h (0 Bft) S 184 ° 0 min 28 W/m² 10,1 °C 12,2 °C 0,0 km/h (0 Bft)
14.07.2023 05:55 24,2 °C 12,2 °C 56 % 88 % 1018,6 hPa 0,0 l/m² 1,7 km/h (1 Bft) S 184 ° 0 min 30 W/m² 10,3 °C 12,2 °C 3,2 km/h (1 Bft)
14.07.2023 05:57 24,2 °C 12,1 °C 56 % 88 % 1018,7 hPa 0,0 l/m² 1,5 km/h (1 Bft) S 184 ° 0 min 32 W/m² 10,2 °C 12,1 °C 3,2 km/h (1 Bft)
14.07.2023 05:59 24,2 °C 12,1 °C 56 % 89 % 1018,6 hPa 0,0 l/m² 0,0 km/h (0 Bft) S 184 ° 0 min 33 W/m² 10,3 °C 12,1 °C 0,0 km/h (0 Bft)
14.07.2023 06:01 24,2 °C 12,1 °C 56 % 89 % 1018,7 hPa 0,0 l/m² 0,0 km/h (0 Bft) S 184 ° 0 min 37 W/m² 10,3 °C 12,1 °C 0,0 km/h (0 Bft)
14.07.2023 06:03 24,1 °C 12,1 °C 56 % 89 % 1018,7 hPa 0,0 l/m² 0,0 km/h (0 Bft) S 184 ° 0 min 37 W/m² 10,3 °C 12,1 °C 0,0 km/h (0 Bft)
14.07.2023 06:05 24,2 °C 12,1 °C 56 % 89 % 1018,7 hPa 0,0 l/m² 0,0 km/h (0 Bft) S 184 ° 0 min 39 W/m² 10,3 °C 12,1 °C 0,0 km/h (0 Bft)
14.07.2023 06:06 24,2 °C 12,1 °C 56 % 89 % 1018,6 hPa 0,0 l/m² 0,0 km/h (0 Bft) S 184 ° 0 min 40 W/m² 10,3 °C 12,1 °C 0,0 km/h (0 Bft)
14.07.2023 06:07 24,2 °C 12,1 °C 56 % 89 % 1018,7 hPa 0,0 l/m² 0,0 km/h (0 Bft) S 184 ° 0 min 42 W/m² 10,3 °C 12,1 °C 0,0 km/h (0 Bft)
14.07.2023 06:08 24,2 °C 12,1 °C 56 % 89 % 1018,7 hPa 0,0 l/m² 0,0 km/h (0 Bft) S 184 ° 0 min 44 W/m² 10,3 °C 12,1 °C 0,0 km/h (0 Bft)
14.07.2023 06:09 24,1 °C 12,1 °C 56 % 89 % 1018,7 hPa 0,0 l/m² 0,0 km/h (0 Bft) S 184 ° 0 min 46 W/m² 10,3 °C 12,1 °C 0,0 km/h (0 Bft)
14.07.2023 06:10 24,1 °C 12,2 °C 56 % 90 % 1018,7 hPa 0,0 l/m² 0,0 km/h (0 Bft) S 184 ° 0 min 47 W/m² 10,6 °C 12,2 °C 0,0 km/h (0 Bft)
14.07.2023 06:11 24,2 °C 12,2 °C 56 % 90 % 1018,6 hPa 0,0 l/m² 0,0 km/h (0 Bft) S 184 ° 0 min 49 W/m² 10,6 °C 12,2 °C 0,0 km/h (0 Bft)
14.07.2023 06:12 24,1 °C 12,3 °C 56 % 89 % 1018,7 hPa 0,0 l/m² 0,0 km/h (0 Bft) S 184 ° 1 min 53 W/m² 10,5 °C 12,3 °C 0,0 km/h (0 Bft)
14.07.2023 06:13 24,1 °C 12,3 °C 56 % 90 % 1018,7 hPa 0,0 l/m² 0,0 km/h (0 Bft) S 184 ° 1 min 53 W/m² 10,7 °C 12,3 °C 0,0 km/h (0 Bft)
14.07.2023 06:14 24,1 °C 12,4 °C 56 % 90 % 1018,7 hPa 0,0 l/m² 0,0 km/h (0 Bft) S 184 ° 1 min 54 W/m² 10,8 °C 12,4 °C 0,0 km/h (0 Bft)
14.07.2023 06:15 24,2 °C 12,5 °C 56 % 89 % 1018,7 hPa 0,0 l/m² 0,0 km/h (0 Bft) S 184 ° 1 min 56 W/m² 10,7 °C 12,5 °C 0,0 km/h (0 Bft)
14.07.2023 06:16 24,1 °C 12,5 °C 56 % 89 % 1018,6 hPa 0,0 l/m² 0,0 km/h (0 Bft) S 184 ° 1 min 56 W/m² 10,7 °C 12,5 °C 0,0 km/h (0 Bft)
14.07.2023 06:17 24,1 °C 12,6 °C 56 % 89 % 1018,6 hPa 0,0 l/m² 0,0 km/h (0 Bft) S 184 ° 1 min 58 W/m² 10,8 °C 12,6 °C 0,0 km/h (0 Bft)
14.07.2023 06:18 24,1 °C 12,6 °C 56 % 89 % 1018,6 hPa 0,0 l/m² 0,0 km/h (0 Bft) S 184 ° 1 min 60 W/m² 10,8 °C 12,6 °C 0,0 km/h (0 Bft)
14.07.2023 06:19 24,1 °C 12,6 °C 56 % 89 % 1018,7 hPa 0,0 l/m² 0,0 km/h (0 Bft) S 184 ° 1 min 60 W/m² 10,8 °C 12,6 °C 0,0 km/h (0 Bft)
14.07.2023 06:20 24,1 °C 12,7 °C 56 % 89 % 1018,7 hPa 0,0 l/m² 0,0 km/h (0 Bft) S 184 ° 1 min 62 W/m² 10,9 °C 12,7 °C 0,0 km/h (0 Bft)
14.07.2023 06:21 24,1 °C 12,7 °C 56 % 89 % 1018,6 hPa 0,0 l/m² 0,1 km/h (0 Bft) S 184 ° 1 min 62 W/m² 10,9 °C 12,7 °C 1,6 km/h (1 Bft)
14.07.2023 06:22 24,1 °C 12,8 °C 56 % 89 % 1018,6 hPa 0,0 l/m² 0,0 km/h (0 Bft) S 184 ° 1 min 63 W/m² 11,0 °C 12,8 °C 0,0 km/h (0 Bft)
14.07.2023 06:23 24,1 °C 12,8 °C 56 % 88 % 1018,7 hPa 0,0 l/m² 0,0 km/h (0 Bft) S 184 ° 1 min 56 W/m² 10,9 °C 12,8 °C 0,0 km/h (0 Bft)
14.07.2023 06:24 24,1 °C 12,9 °C 56 % 88 % 1018,7 hPa 0,0 l/m² 0,0 km/h (0 Bft) S 184 ° 1 min 54 W/m² 11,0 °C 12,9 °C 0,0 km/h (0 Bft)
14.07.2023 06:25 24,1 °C 12,8 °C 56 % 88 % 1018,6 hPa 0,0 l/m² 0,9 km/h (0 Bft) S 184 ° 1 min 54 W/m² 10,9 °C 12,8 °C 1,6 km/h (1 Bft)
14.07.2023 06:26 24,1 °C 12,9 °C 56 % 88 % 1018,7 hPa 0,0 l/m² 0,1 km/h (0 Bft) S 184 ° 1 min 56 W/m² 11,0 °C 12,9 °C 1,6 km/h (1 Bft)
14.07.2023 06:27 24,1 °C 13,0 °C 56 % 88 % 1018,6 hPa 0,0 l/m² 0,0 km/h (0 Bft) S 184 ° 1 min 63 W/m² 11,1 °C 13,0 °C 0,0 km/h (0 Bft)
14.07.2023 06:28 24,1 °C 13,1 °C 56 % 88 % 1018,6 hPa 0,0 l/m² 0,0 km/h (0 Bft) S 184 ° 1 min 62 W/m² 11,2 °C 13,1 °C 0,0 km/h (0 Bft)
14.07.2023 06:29 24,1 °C 13,1 °C 56 % 88 % 1018,7 hPa 0,0 l/m² 0,0 km/h (0 Bft) S 184 ° 1 min 58 W/m² 11,2 °C 13,1 °C 0,0 km/h (0 Bft)
14.07.2023 06:30 24,1 °C 13,1 °C 56 % 88 % 1018,7 hPa 0,0 l/m² 0,0 km/h (0 Bft) S 184 ° 1 min 69 W/m² 11,2 °C 13,1 °C 0,0 km/h (0 Bft)
14.07.2023 06:31 24,1 °C 13,1 °C 56 % 88 % 1018,8 hPa 0,0 l/m² 0,0 km/h (0 Bft) S 184 ° 1 min 62 W/m² 11,2 °C 13,1 °C 0,0 km/h (0 Bft)
14.07.2023 06:32 24,1 °C 13,1 °C 56 % 88 % 1018,8 hPa 0,0 l/m² 0,0 km/h (0 Bft) S 184 ° 1 min 63 W/m² 11,2 °C 13,1 °C 0,0 km/h (0 Bft)
14.07.2023 06:33 24,1 °C 13,0 °C 56 % 88 % 1018,8 hPa 0,0 l/m² 0,0 km/h (0 Bft) S 184 ° 1 min 88 W/m² 11,1 °C 13,0 °C 0,0 km/h (0 Bft)
14.07.2023 06:34 24,1 °C 13,1 °C 56 % 88 % 1018,8 hPa 0,0 l/m² 0,0 km/h (0 Bft) S 184 ° 1 min 90 W/m² 11,2 °C 13,1 °C 0,0 km/h (0 Bft)
14.07.2023 06:35 24,1 °C 13,0 °C 56 % 88 % 1018,7 hPa 0,0 l/m² 0,0 km/h (0 Bft) S 184 ° 1 min 79 W/m² 11,1 °C 13,0 °C 0,0 km/h (0 Bft)
14.07.2023 06:36 24,1 °C 13,1 °C 56 % 89 % 1018,7 hPa 0,0 l/m² 0,0 km/h (0 Bft) S 184 ° 1 min 65 W/m² 11,3 °C 13,1 °C 0,0 km/h (0 Bft)
14.07.2023 06:37 24,1 °C 13,1 °C 56 % 88 % 1018,8 hPa 0,0 l/m² 0,0 km/h (0 Bft) S 184 ° 1 min 65 W/m² 11,2 °C 13,1 °C 0,0 km/h (0 Bft)
14.07.2023 06:38 24,1 °C 13,1 °C 56 % 89 % 1018,8 hPa 0,0 l/m² 0,0 km/h (0 Bft) S 184 ° 1 min 67 W/m² 11,3 °C 13,1 °C 0,0 km/h (0 Bft)
14.07.2023 06:39 24,1 °C 13,1 °C 56 % 89 % 1018,8 hPa 0,0 l/m² 0,0 km/h (0 Bft) S 184 ° 1 min 65 W/m² 11,3 °C 13,1 °C 0,0 km/h (0 Bft)
14.07.2023 06:40 24,1 °C 13,2 °C 56 % 88 % 1018,8 hPa 0,0 l/m² 0,0 km/h (0 Bft) S 184 ° 1 min 67 W/m² 11,3 °C 13,2 °C 0,0 km/h (0 Bft)
14.07.2023 06:41 24,1 °C 13,2 °C 56 % 88 % 1018,8 hPa 0,0 l/m² 0,0 km/h (0 Bft) S 184 ° 1 min 104 W/m² 11,3 °C 13,2 °C 0,0 km/h (0 Bft)
14.07.2023 06:42 24,1 °C 13,3 °C 56 % 89 % 1018,8 hPa 0,0 l/m² 0,0 km/h (0 Bft) S 184 ° 1 min 111 W/m² 11,5 °C 13,3 °C 0,0 km/h (0 Bft)
14.07.2023 06:43 24,2 °C 13,4 °C 56 % 89 % 1018,8 hPa 0,0 l/m² 0,0 km/h (0 Bft) S 184 ° 1 min 114 W/m² 11,6 °C 13,4 °C 0,0 km/h (0 Bft)
14.07.2023 06:44 24,1 °C 13,4 °C 56 % 88 % 1018,8 hPa 0,0 l/m² 0,0 km/h (0 Bft) S 184 ° 1 min 118 W/m² 11,5 °C 13,4 °C 0,0 km/h (0 Bft)
14.07.2023 06:45 24,1 °C 13,6 °C 56 % 88 % 1018,8 hPa 0,0 l/m² 0,0 km/h (0 Bft) S 184 ° 1 min 121 W/m² 11,6 °C 13,6 °C 0,0 km/h (0 Bft)
14.07.2023 06:46 24,1 °C 13,7 °C 56 % 88 % 1018,9 hPa 0,0 l/m² 0,0 km/h (0 Bft) S 184 ° 1 min 121 W/m² 11,7 °C 13,7 °C 0,0 km/h (0 Bft)
14.07.2023 06:47 24,1 °C 13,7 °C 56 % 88 % 1018,9 hPa 0,0 l/m² 0,0 km/h (0 Bft) S 184 ° 1 min 81 W/m² 11,7 °C 13,7 °C 0,0 km/h (0 Bft)
14.07.2023 06:48 24,1 °C 13,8 °C 56 % 88 % 1018,9 hPa 0,0 l/m² 0,0 km/h (0 Bft) S 184 ° 1 min 120 W/m² 11,8 °C 13,8 °C 0,0 km/h (0 Bft)
14.07.2023 06:49 24,1 °C 13,8 °C 56 % 88 % 1018,9 hPa 0,0 l/m² 0,0 km/h (0 Bft) S 184 ° 1 min 121 W/m² 11,8 °C 13,8 °C 0,0 km/h (0 Bft)
14.07.2023 06:50 24,1 °C 13,8 °C 56 % 87 % 1018,9 hPa 0,0 l/m² 0,0 km/h (0 Bft) S 184 ° 1 min 120 W/m² 11,7 °C 13,8 °C 0,0 km/h (0 Bft)
14.07.2023 06:51 24,1 °C 13,8 °C 56 % 87 % 1018,9 hPa 0,0 l/m² 0,0 km/h (0 Bft) S 184 ° 1 min 79 W/m² 11,7 °C 13,8 °C 0,0 km/h (0 Bft)
14.07.2023 06:52 24,1 °C 13,9 °C 56 % 87 % 1018,9 hPa 0,0 l/m² 0,0 km/h (0 Bft) S 184 ° 1 min 121 W/m² 11,8 °C 13,9 °C 0,0 km/h (0 Bft)
14.07.2023 06:53 24,1 °C 13,9 °C 56 % 86 % 1018,8 hPa 0,0 l/m² 0,0 km/h (0 Bft) S 184 ° 1 min 121 W/m² 11,6 °C 13,9 °C 0,0 km/h (0 Bft)
14.07.2023 06:54 24,1 °C 13,9 °C 56 % 86 % 1018,9 hPa 0,0 l/m² 0,0 km/h (0 Bft) S 184 ° 1 min 121 W/m² 11,6 °C 13,9 °C 0,0 km/h (0 Bft)
14.07.2023 06:55 24,1 °C 14,0 °C 56 % 86 % 1018,9 hPa 0,0 l/m² 0,0 km/h (0 Bft) S 184 ° 1 min 98 W/m² 11,7 °C 14,0 °C 0,0 km/h (0 Bft)
14.07.2023 06:56 24,1 °C 14,1 °C 56 % 86 % 1018,9 hPa 0,0 l/m² 0,0 km/h (0 Bft) S 184 ° 1 min 69 W/m² 11,8 °C 14,1 °C 0,0 km/h (0 Bft)
14.07.2023 06:57 24,1 °C 14,1 °C 56 % 86 % 1018,9 hPa 0,0 l/m² 0,0 km/h (0 Bft) S 184 ° 1 min 121 W/m² 11,8 °C 14,1 °C 0,0 km/h (0 Bft)
14.07.2023 06:58 24,1 °C 14,2 °C 56 % 86 % 1018,9 hPa 0,0 l/m² 0,0 km/h (0 Bft) S 184 ° 1 min 121 W/m² 11,9 °C 14,2 °C 0,0 km/h (0 Bft)
14.07.2023 06:59 24,1 °C 14,2 °C 56 % 86 % 1018,9 hPa 0,0 l/m² 0,0 km/h (0 Bft) S 184 ° 1 min 109 W/m² 11,9 °C 14,2 °C 0,0 km/h (0 Bft)
14.07.2023 07:00 24,1 °C 14,2 °C 56 % 86 % 1018,8 hPa 0,0 l/m² 0,0 km/h (0 Bft) S 184 ° 1 min 104 W/m² 11,9 °C 14,2 °C 0,0 km/h (0 Bft)
14.07.2023 07:01 24,1 °C 14,2 °C 56 % 86 % 1018,9 hPa 0,0 l/m² 0,0 km/h (0 Bft) S 184 ° 1 min 81 W/m² 11,9 °C 14,2 °C 0,0 km/h (0 Bft)
14.07.2023 07:02 24,1 °C 14,2 °C 56 % 85 % 1018,8 hPa 0,0 l/m² 0,0 km/h (0 Bft) S 184 ° 1 min 111 W/m² 11,7 °C 14,2 °C 0,0 km/h (0 Bft)
14.07.2023 07:03 24,1 °C 14,2 °C 56 % 85 % 1018,9 hPa 0,0 l/m² 0,0 km/h (0 Bft) S 184 ° 1 min 137 W/m² 11,7 °C 14,2 °C 0,0 km/h (0 Bft)
14.07.2023 07:04 24,1 °C 14,3 °C 56 % 85 % 1018,7 hPa 0,0 l/m² 0,0 km/h (0 Bft) S 184 ° 1 min 139 W/m² 11,8 °C 14,3 °C 0,0 km/h (0 Bft)
14.07.2023 07:05 24,1 °C 14,3 °C 56 % 85 % 1018,8 hPa 0,0 l/m² 0,0 km/h (0 Bft) S 184 ° 1 min 141 W/m² 11,8 °C 14,3 °C 0,0 km/h (0 Bft)
14.07.2023 07:06 24,1 °C 14,4 °C 56 % 84 % 1018,8 hPa 0,0 l/m² 0,0 km/h (0 Bft) S 184 ° 1 min 142 W/m² 11,7 °C 14,4 °C 0,0 km/h (0 Bft)
14.07.2023 07:07 24,1 °C 14,4 °C 56 % 84 % 1018,7 hPa 0,0 l/m² 0,0 km/h (0 Bft) S 184 ° 1 min 141 W/m² 11,7 °C 14,4 °C 0,0 km/h (0 Bft)
14.07.2023 07:08 24,1 °C 14,5 °C 56 % 84 % 1018,8 hPa 0,0 l/m² 0,0 km/h (0 Bft) S 184 ° 1 min 127 W/m² 11,8 °C 14,5 °C 0,0 km/h (0 Bft)
14.07.2023 07:09 24,1 °C 14,5 °C 56 % 84 % 1018,8 hPa 0,0 l/m² 0,0 km/h (0 Bft) S 184 ° 1 min 97 W/m² 11,8 °C 14,5 °C 0,0 km/h (0 Bft)
14.07.2023 07:10 24,1 °C 14,6 °C 56 % 84 % 1018,7 hPa 0,0 l/m² 0,0 km/h (0 Bft) S 184 ° 1 min 69 W/m² 11,9 °C 14,6 °C 0,0 km/h (0 Bft)
14.07.2023 07:11 24,1 °C 14,6 °C 56 % 84 % 1018,8 hPa 0,0 l/m² 0,0 km/h (0 Bft) S 184 ° 1 min 70 W/m² 11,9 °C 14,6 °C 0,0 km/h (0 Bft)
14.07.2023 07:12 24,1 °C 14,6 °C 56 % 84 % 1018,8 hPa 0,0 l/m² 1,6 km/h (1 Bft) S 184 ° 1 min 72 W/m² 11,9 °C 14,6 °C 4,8 km/h (1 Bft)
14.07.2023 07:13 24,1 °C 14,7 °C 56 % 83 % 1018,8 hPa 0,0 l/m² 2,1 km/h (1 Bft) S 184 ° 1 min 74 W/m² 11,8 °C 14,7 °C 4,8 km/h (1 Bft)
14.07.2023 07:14 24,1 °C 14,7 °C 56 % 83 % 1018,8 hPa 0,0 l/m² 0,4 km/h (0 Bft) S 184 ° 1 min 74 W/m² 11,8 °C 14,7 °C 1,6 km/h (1 Bft)
14.07.2023 07:15 24,1 °C 14,7 °C 56 % 83 % 1018,8 hPa 0,0 l/m² 1,7 km/h (1 Bft) S 184 ° 1 min 83 W/m² 11,8 °C 14,7 °C 3,2 km/h (1 Bft)
14.07.2023 07:16 24,1 °C 14,7 °C 56 % 83 % 1018,8 hPa 0,0 l/m² 1,9 km/h (1 Bft) S 184 ° 1 min 176 W/m² 11,8 °C 14,7 °C 3,2 km/h (1 Bft)
14.07.2023 07:17 24,1 °C 14,8 °C 56 % 83 % 1018,8 hPa 0,0 l/m² 1,3 km/h (1 Bft) S 184 ° 1 min 206 W/m² 11,9 °C 14,8 °C 3,2 km/h (1 Bft)
14.07.2023 07:18 24,1 °C 14,8 °C 56 % 83 % 1018,8 hPa 0,0 l/m² 0,3 km/h (0 Bft) S 184 ° 1 min 204 W/m² 11,9 °C 14,8 °C 1,6 km/h (1 Bft)
14.07.2023 07:19 24,1 °C 14,9 °C 56 % 83 % 1018,8 hPa 0,0 l/m² 0,0 km/h (0 Bft) S 184 ° 1 min 216 W/m² 12,0 °C 14,9 °C 0,0 km/h (0 Bft)
14.07.2023 07:20 24,1 °C 14,9 °C 56 % 83 % 1018,7 hPa 0,0 l/m² 0,5 km/h (0 Bft) S 184 ° 1 min 223 W/m² 12,0 °C 14,9 °C 1,6 km/h (1 Bft)
14.07.2023 07:21 24,1 °C 14,9 °C 56 % 82 % 1018,8 hPa 0,0 l/m² 1,3 km/h (1 Bft) S 184 ° 1 min 229 W/m² 11,9 °C 14,9 °C 3,2 km/h (1 Bft)
14.07.2023 07:22 24,1 °C 15,1 °C 56 % 82 % 1018,8 hPa 0,0 l/m² 1,2 km/h (1 Bft) S 184 ° 1 min 237 W/m² 12,0 °C 15,1 °C 3,2 km/h (1 Bft)
14.07.2023 07:23 24,1 °C 15,1 °C 56 % 82 % 1018,8 hPa 0,0 l/m² 0,0 km/h (0 Bft) S 184 ° 1 min 243 W/m² 12,0 °C 15,1 °C 0,0 km/h (0 Bft)
14.07.2023 07:24 24,1 °C 15,1 °C 56 % 82 % 1018,8 hPa 0,0 l/m² 0,1 km/h (0 Bft) S 184 ° 1 min 248 W/m² 12,0 °C 15,1 °C 1,6 km/h (1 Bft)
14.07.2023 07:25 24,1 °C 15,2 °C 56 % 82 % 1018,8 hPa 0,0 l/m² 1,4 km/h (1 Bft) S 184 ° 1 min 248 W/m² 12,1 °C 15,2 °C 3,2 km/h (1 Bft)
14.07.2023 07:26 24,1 °C 15,2 °C 56 % 82 % 1018,7 hPa 0,0 l/m² 0,1 km/h (0 Bft) S 184 ° 1 min 251 W/m² 12,1 °C 15,2 °C 1,6 km/h (1 Bft)
14.07.2023 07:27 24,1 °C 15,3 °C 56 % 82 % 1018,7 hPa 0,0 l/m² 0,3 km/h (0 Bft) S 184 ° 1 min 251 W/m² 12,2 °C 15,3 °C 1,6 km/h (1 Bft)
14.07.2023 07:28 24,1 °C 15,4 °C 56 % 81 % 1018,8 hPa 0,0 l/m² 2,0 km/h (1 Bft) S 184 ° 1 min 255 W/m² 12,2 °C 15,4 °C 3,2 km/h (1 Bft)
14.07.2023 07:29 24,1 °C 15,5 °C 56 % 81 % 1018,7 hPa 0,0 l/m² 0,7 km/h (0 Bft) S 184 ° 1 min 253 W/m² 12,3 °C 15,5 °C 3,2 km/h (1 Bft)
14.07.2023 07:30 24,1 °C 15,6 °C 56 % 81 % 1018,7 hPa 0,0 l/m² 2,7 km/h (1 Bft) S 184 ° 1 min 257 W/m² 12,3 °C 15,6 °C 4,8 km/h (1 Bft)
14.07.2023 07:31 24,1 °C 15,7 °C 56 % 80 % 1018,7 hPa 0,0 l/m² 0,3 km/h (0 Bft) S 184 ° 1 min 257 W/m² 12,3 °C 15,7 °C 1,6 km/h (1 Bft)
14.07.2023 07:32 24,1 °C 15,7 °C 56 % 80 % 1018,7 hPa 0,0 l/m² 0,3 km/h (0 Bft) S 184 ° 1 min 257 W/m² 12,3 °C 15,7 °C 1,6 km/h (1 Bft)
14.07.2023 07:33 24,1 °C 15,8 °C 56 % 80 % 1018,6 hPa 0,0 l/m² 2,6 km/h (1 Bft) S-SW 198 ° 1 min 257 W/m² 12,4 °C 15,8 °C 3,2 km/h (1 Bft)
14.07.2023 07:34 24,1 °C 15,8 °C 56 % 80 % 1018,7 hPa 0,0 l/m² 2,1 km/h (1 Bft) S-SW 198 ° 1 min 260 W/m² 12,4 °C 15,8 °C 3,2 km/h (1 Bft)
14.07.2023 07:35 24,1 °C 15,9 °C 56 % 80 % 1018,7 hPa 0,0 l/m² 1,6 km/h (1 Bft) S-SW 198 ° 1 min 262 W/m² 12,5 °C 15,9 °C 3,2 km/h (1 Bft)
14.07.2023 07:36 24,1 °C 15,9 °C 56 % 79 % 1018,6 hPa 0,0 l/m² 2,6 km/h (1 Bft) S-SW 198 ° 1 min 262 W/m² 12,3 °C 15,9 °C 4,8 km/h (1 Bft)
14.07.2023 07:37 24,1 °C 16,0 °C 56 % 79 % 1018,5 hPa 0,0 l/m² 0,2 km/h (0 Bft) S-SW 198 ° 1 min 265 W/m² 12,4 °C 16,0 °C 1,6 km/h (1 Bft)
14.07.2023 07:38 24,1 °C 16,1 °C 56 % 79 % 1018,6 hPa 0,0 l/m² 0,0 km/h (0 Bft) S-SW 198 ° 1 min 265 W/m² 12,5 °C 16,1 °C 0,0 km/h (0 Bft)
14.07.2023 07:39 24,1 °C 16,1 °C 56 % 78 % 1018,6 hPa 0,0 l/m² 0,0 km/h (0 Bft) S-SW 198 ° 1 min 265 W/m² 12,3 °C 16,1 °C 0,0 km/h (0 Bft)
14.07.2023 07:40 24,1 °C 16,1 °C 56 % 78 % 1018,6 hPa 0,0 l/m² 0,0 km/h (0 Bft) S-SW 198 ° 1 min 262 W/m² 12,3 °C 16,1 °C 0,0 km/h (0 Bft)
14.07.2023 07:41 24,1 °C 16,1 °C 56 % 78 % 1018,6 hPa 0,0 l/m² 1,4 km/h (1 Bft) S-SW 198 ° 1 min 264 W/m² 12,3 °C 16,1 °C 3,2 km/h (1 Bft)
14.07.2023 07:42 24,1 °C 16,2 °C 56 % 78 % 1018,5 hPa 0,0 l/m² 0,5 km/h (0 Bft) S-SW 198 ° 1 min 264 W/m² 12,4 °C 16,2 °C 1,6 km/h (1 Bft)
14.07.2023 07:43 24,1 °C 16,2 °C 56 % 78 % 1018,6 hPa 0,0 l/m² 0,0 km/h (0 Bft) S-SW 198 ° 1 min 264 W/m² 12,4 °C 16,2 °C 0,0 km/h (0 Bft)
14.07.2023 07:44 24,1 °C 16,3 °C 56 % 78 % 1018,5 hPa 0,0 l/m² 0,0 km/h (0 Bft) S-SW 198 ° 1 min 262 W/m² 12,5 °C 16,3 °C 0,0 km/h (0 Bft)
14.07.2023 07:45 24,1 °C 16,4 °C 56 % 78 % 1018,5 hPa 0,0 l/m² 0,0 km/h (0 Bft) S-SW 198 ° 1 min 260 W/m² 12,6 °C 16,4 °C 0,0 km/h (0 Bft)
14.07.2023 07:46 24,1 °C 16,4 °C 56 % 78 % 1018,6 hPa 0,0 l/m² 0,0 km/h (0 Bft) S-SW 198 ° 1 min 262 W/m² 12,6 °C 16,4 °C 0,0 km/h (0 Bft)
14.07.2023 07:47 24,1 °C 16,6 °C 56 % 78 % 1018,6 hPa 0,0 l/m² 0,0 km/h (0 Bft) S-SW 198 ° 1 min 262 W/m² 12,7 °C 16,6 °C 0,0 km/h (0 Bft)
14.07.2023 07:48 24,1 °C 16,7 °C 56 % 78 % 1018,6 hPa 0,0 l/m² 0,0 km/h (0 Bft) S-SW 198 ° 1 min 260 W/m² 12,8 °C 16,7 °C 0,0 km/h (0 Bft)
14.07.2023 07:49 24,1 °C 16,7 °C 56 % 77 % 1018,6 hPa 0,0 l/m² 0,3 km/h (0 Bft) S-SW 197 ° 1 min 260 W/m² 12,6 °C 16,7 °C 1,6 km/h (1 Bft)
14.07.2023 07:50 24,1 °C 16,8 °C 56 % 77 % 1018,6 hPa 0,0 l/m² 1,7 km/h (1 Bft) S-SW 197 ° 1 min 258 W/m² 12,7 °C 16,8 °C 3,2 km/h (1 Bft)
14.07.2023 07:51 24,1 °C 16,8 °C 56 % 77 % 1018,6 hPa 0,0 l/m² 0,7 km/h (0 Bft) S-SW 197 ° 1 min 258 W/m² 12,7 °C 16,8 °C 1,6 km/h (1 Bft)
14.07.2023 07:52 24,1 °C 16,8 °C 56 % 77 % 1018,6 hPa 0,0 l/m² 0,5 km/h (0 Bft) S-SW 197 ° 1 min 258 W/m² 12,7 °C 16,8 °C 3,2 km/h (1 Bft)
14.07.2023 07:53 24,1 °C 16,9 °C 56 % 77 % 1018,6 hPa 0,0 l/m² 0,6 km/h (0 Bft) S-SW 197 ° 1 min 258 W/m² 12,8 °C 16,9 °C 3,2 km/h (1 Bft)
14.07.2023 07:54 24,1 °C 16,9 °C 56 % 76 % 1018,6 hPa 0,0 l/m² 1,1 km/h (1 Bft) S-SW 197 ° 1 min 260 W/m² 12,6 °C 16,9 °C 1,6 km/h (1 Bft)
14.07.2023 07:55 24,1 °C 17,1 °C 56 % 77 % 1018,6 hPa 0,0 l/m² 0,3 km/h (0 Bft) S-SW 197 ° 1 min 262 W/m² 13,0 °C 17,1 °C 1,6 km/h (1 Bft)
14.07.2023 07:56 24,1 °C 17,3 °C 56 % 76 % 1018,6 hPa 0,0 l/m² 0,4 km/h (0 Bft) S-SW 197 ° 1 min 264 W/m² 13,0 °C 17,3 °C 1,6 km/h (1 Bft)
14.07.2023 07:57 24,1 °C 17,3 °C 56 % 76 % 1018,6 hPa 0,0 l/m² 1,1 km/h (1 Bft) S-SW 197 ° 1 min 269 W/m² 13,0 °C 17,3 °C 3,2 km/h (1 Bft)
14.07.2023 07:58 24,1 °C 17,3 °C 56 % 76 % 1018,6 hPa 0,0 l/m² 0,2 km/h (0 Bft) S-SW 197 ° 1 min 272 W/m² 13,0 °C 17,3 °C 1,6 km/h (1 Bft)
14.07.2023 07:59 24,1 °C 17,3 °C 56 % 75 % 1018,6 hPa 0,0 l/m² 1,0 km/h (0 Bft) S-SW 197 ° 1 min 276 W/m² 12,8 °C 17,3 °C 3,2 km/h (1 Bft)
14.07.2023 08:00 24,1 °C 17,3 °C 56 % 75 % 1018,6 hPa 0,0 l/m² 3,3 km/h (1 Bft) S 185 ° 1 min 281 W/m² 12,8 °C 17,3 °C 4,8 km/h (1 Bft)
14.07.2023 08:01 24,1 °C 17,3 °C 56 % 74 % 1018,6 hPa 0,0 l/m² 1,3 km/h (1 Bft) S 185 ° 1 min 288 W/m² 12,6 °C 17,3 °C 3,2 km/h (1 Bft)
14.07.2023 08:02 24,1 °C 17,3 °C 56 % 74 % 1018,6 hPa 0,0 l/m² 0,0 km/h (0 Bft) S 185 ° 1 min 295 W/m² 12,6 °C 17,3 °C 0,0 km/h (0 Bft)
14.07.2023 08:03 24,1 °C 17,3 °C 56 % 74 % 1018,6 hPa 0,0 l/m² 0,0 km/h (0 Bft) S 185 ° 1 min 308 W/m² 12,6 °C 17,3 °C 0,0 km/h (0 Bft)
14.07.2023 08:04 24,1 °C 17,4 °C 56 % 76 % 1018,6 hPa 0,0 l/m² 0,0 km/h (0 Bft) S 185 ° 1 min 318 W/m² 13,1 °C 17,4 °C 0,0 km/h (0 Bft)
14.07.2023 08:05 24,1 °C 17,6 °C 56 % 76 % 1018,6 hPa 0,0 l/m² 0,0 km/h (0 Bft) S 185 ° 1 min 325 W/m² 13,3 °C 17,6 °C 0,0 km/h (0 Bft)
14.07.2023 08:06 24,1 °C 17,7 °C 56 % 74 % 1018,6 hPa 0,0 l/m² 0,0 km/h (0 Bft) S 185 ° 1 min 332 W/m² 13,0 °C 17,7 °C 0,0 km/h (0 Bft)
14.07.2023 08:07 24,1 °C 17,8 °C 56 % 74 % 1018,6 hPa 0,0 l/m² 0,0 km/h (0 Bft) S 185 ° 1 min 339 W/m² 13,1 °C 17,8 °C 0,0 km/h (0 Bft)
14.07.2023 08:08 24,1 °C 17,9 °C 56 % 75 % 1018,5 hPa 0,0 l/m² 1,1 km/h (1 Bft) S 183 ° 1 min 345 W/m² 13,4 °C 17,9 °C 3,2 km/h (1 Bft)
14.07.2023 08:09 24,1 °C 18,1 °C 56 % 74 % 1018,5 hPa 0,0 l/m² 0,8 km/h (0 Bft) S 183 ° 1 min 355 W/m² 13,4 °C 18,1 °C 3,2 km/h (1 Bft)
14.07.2023 08:10 24,1 °C 18,0 °C 56 % 73 % 1018,5 hPa 0,0 l/m² 0,7 km/h (0 Bft) S 183 ° 1 min 359 W/m² 13,1 °C 18,0 °C 1,6 km/h (1 Bft)
14.07.2023 08:11 24,1 °C 18,0 °C 56 % 73 % 1018,5 hPa 0,0 l/m² 0,0 km/h (0 Bft) S 183 ° 1 min 360 W/m² 13,1 °C 18,0 °C 0,0 km/h (0 Bft)
14.07.2023 08:12 24,1 °C 18,2 °C 56 % 73 % 1018,5 hPa 0,0 l/m² 0,3 km/h (0 Bft) S 184 ° 1 min 362 W/m² 13,3 °C 18,2 °C 3,2 km/h (1 Bft)
14.07.2023 08:13 24,1 °C 18,2 °C 56 % 72 % 1018,5 hPa 0,0 l/m² 0,7 km/h (0 Bft) S 184 ° 1 min 362 W/m² 13,1 °C 18,2 °C 1,6 km/h (1 Bft)
14.07.2023 08:14 24,1 °C 18,2 °C 56 % 72 % 1018,5 hPa 0,0 l/m² 1,3 km/h (1 Bft) S 182 ° 1 min 366 W/m² 13,1 °C 18,2 °C 3,2 km/h (1 Bft)
14.07.2023 08:15 24,1 °C 18,3 °C 56 % 72 % 1018,5 hPa 0,0 l/m² 0,1 km/h (0 Bft) S 182 ° 1 min 367 W/m² 13,2 °C 18,3 °C 1,6 km/h (1 Bft)
14.07.2023 08:16 24,1 °C 18,4 °C 56 % 72 % 1018,5 hPa 0,0 l/m² 0,0 km/h (0 Bft) S 182 ° 1 min 369 W/m² 13,3 °C 18,4 °C 0,0 km/h (0 Bft)
14.07.2023 08:17 24,1 °C 18,5 °C 56 % 72 % 1018,5 hPa 0,0 l/m² 0,0 km/h (0 Bft) S 182 ° 1 min 371 W/m² 13,4 °C 18,5 °C 0,0 km/h (0 Bft)
14.07.2023 08:18 24,1 °C 18,6 °C 56 % 71 % 1018,5 hPa 0,0 l/m² 0,0 km/h (0 Bft) S 182 ° 1 min 373 W/m² 13,2 °C 18,6 °C 0,0 km/h (0 Bft)
14.07.2023 08:19 24,1 °C 18,5 °C 56 % 71 % 1018,5 hPa 0,0 l/m² 0,0 km/h (0 Bft) S 182 ° 1 min 373 W/m² 13,1 °C 18,5 °C 0,0 km/h (0 Bft)
14.07.2023 08:20 24,1 °C 18,6 °C 56 % 71 % 1018,4 hPa 0,0 l/m² 0,7 km/h (0 Bft) S 182 ° 1 min 373 W/m² 13,2 °C 18,6 °C 3,2 km/h (1 Bft)
14.07.2023 08:21 24,1 °C 18,7 °C 56 % 72 % 1018,4 hPa 0,0 l/m² 0,1 km/h (0 Bft) S 182 ° 1 min 373 W/m² 13,5 °C 18,7 °C 1,6 km/h (1 Bft)
14.07.2023 08:22 24,2 °C 18,8 °C 56 % 72 % 1018,4 hPa 0,0 l/m² 0,2 km/h (0 Bft) S 182 ° 1 min 374 W/m² 13,6 °C 18,8 °C 1,6 km/h (1 Bft)
14.07.2023 08:23 24,1 °C 18,8 °C 56 % 71 % 1018,4 hPa 0,0 l/m² 1,7 km/h (1 Bft) S 180 ° 1 min 373 W/m² 13,4 °C 18,8 °C 3,2 km/h (1 Bft)
14.07.2023 08:24 24,1 °C 18,8 °C 56 % 71 % 1018,4 hPa 0,0 l/m² 1,5 km/h (1 Bft) S 180 ° 1 min 371 W/m² 13,4 °C 18,8 °C 3,2 km/h (1 Bft)
14.07.2023 08:25 24,1 °C 18,8 °C 56 % 70 % 1018,4 hPa 0,0 l/m² 0,0 km/h (0 Bft) S 180 ° 1 min 371 W/m² 13,2 °C 18,8 °C 0,0 km/h (0 Bft)
14.07.2023 08:26 24,1 °C 18,8 °C 56 % 70 % 1018,4 hPa 0,0 l/m² 0,0 km/h (0 Bft) S 180 ° 1 min 364 W/m² 13,2 °C 18,8 °C 0,0 km/h (0 Bft)
14.07.2023 08:27 24,2 °C 18,8 °C 56 % 70 % 1018,4 hPa 0,0 l/m² 0,0 km/h (0 Bft) S 181 ° 1 min 360 W/m² 13,2 °C 18,8 °C 0,0 km/h (0 Bft)
14.07.2023 08:28 24,2 °C 18,8 °C 56 % 70 % 1018,4 hPa 0,0 l/m² 0,3 km/h (0 Bft) S-SW 194 ° 1 min 355 W/m² 13,2 °C 18,8 °C 1,6 km/h (1 Bft)
14.07.2023 08:29 24,1 °C 18,8 °C 56 % 70 % 1018,4 hPa 0,0 l/m² 0,0 km/h (0 Bft) S-SW 194 ° 1 min 353 W/m² 13,2 °C 18,8 °C 0,0 km/h (0 Bft)
14.07.2023 08:30 24,1 °C 18,9 °C 56 % 70 % 1018,4 hPa 0,0 l/m² 0,0 km/h (0 Bft) S-SW 194 ° 1 min 352 W/m² 13,3 °C 18,9 °C 0,0 km/h (0 Bft)
14.07.2023 08:31 24,1 °C 18,9 °C 56 % 69 % 1018,4 hPa 0,0 l/m² 0,8 km/h (0 Bft) S-SW 195 ° 1 min 350 W/m² 13,1 °C 18,9 °C 1,6 km/h (1 Bft)
14.07.2023 08:32 24,1 °C 19,0 °C 56 % 69 % 1018,3 hPa 0,0 l/m² 0,1 km/h (0 Bft) S-SW 195 ° 1 min 348 W/m² 13,2 °C 19,0 °C 1,6 km/h (1 Bft)
14.07.2023 08:33 24,1 °C 19,0 °C 56 % 69 % 1018,3 hPa 0,0 l/m² 0,0 km/h (0 Bft) S-SW 195 ° 1 min 346 W/m² 13,2 °C 19,0 °C 0,0 km/h (0 Bft)
14.07.2023 08:34 24,1 °C 19,1 °C 56 % 69 % 1018,3 hPa 0,0 l/m² 0,1 km/h (0 Bft) S-SW 195 ° 1 min 348 W/m² 13,3 °C 19,1 °C 1,6 km/h (1 Bft)
14.07.2023 08:35 24,1 °C 19,1 °C 56 % 69 % 1018,3 hPa 0,0 l/m² 0,7 km/h (0 Bft) S-SW 194 ° 1 min 348 W/m² 13,3 °C 19,1 °C 4,8 km/h (1 Bft)
14.07.2023 08:36 24,1 °C 19,1 °C 56 % 68 % 1018,3 hPa 0,0 l/m² 2,7 km/h (1 Bft) S-SW 194 ° 1 min 350 W/m² 13,1 °C 19,1 °C 4,8 km/h (1 Bft)
14.07.2023 08:37 24,2 °C 19,1 °C 56 % 68 % 1018,3 hPa 0,0 l/m² 2,7 km/h (1 Bft) S-SW 194 ° 1 min 352 W/m² 13,1 °C 19,1 °C 4,8 km/h (1 Bft)
14.07.2023 08:38 24,2 °C 19,2 °C 56 % 69 % 1018,3 hPa 0,0 l/m² 2,2 km/h (1 Bft) S 184 ° 1 min 359 W/m² 13,4 °C 19,2 °C 4,8 km/h (1 Bft)
14.07.2023 08:39 24,1 °C 19,4 °C 56 % 68 % 1018,3 hPa 0,0 l/m² 2,2 km/h (1 Bft) S 180 ° 1 min 364 W/m² 13,3 °C 19,4 °C 3,2 km/h (1 Bft)
14.07.2023 08:40 24,1 °C 19,5 °C 56 % 68 % 1018,3 hPa 0,0 l/m² 2,1 km/h (1 Bft) S 180 ° 1 min 367 W/m² 13,4 °C 19,5 °C 3,2 km/h (1 Bft)
14.07.2023 08:41 24,2 °C 19,5 °C 56 % 67 % 1018,3 hPa 0,0 l/m² 2,6 km/h (1 Bft) S-SO 163 ° 1 min 369 W/m² 13,2 °C 19,5 °C 6,4 km/h (2 Bft)
14.07.2023 08:42 24,2 °C 19,6 °C 56 % 67 % 1018,3 hPa 0,0 l/m² 3,0 km/h (1 Bft) S-SO 165 ° 1 min 369 W/m² 13,3 °C 19,6 °C 6,4 km/h (2 Bft)
14.07.2023 08:43 24,2 °C 19,8 °C 56 % 66 % 1018,3 hPa 0,0 l/m² 0,7 km/h (0 Bft) S-SO 166 ° 1 min 366 W/m² 13,3 °C 19,8 °C 1,6 km/h (1 Bft)
14.07.2023 08:44 24,2 °C 19,7 °C 56 % 65 % 1018,3 hPa 0,0 l/m² 0,0 km/h (0 Bft) S-SO 166 ° 1 min 359 W/m² 12,9 °C 19,7 °C 0,0 km/h (0 Bft)
14.07.2023 08:45 24,2 °C 19,7 °C 56 % 65 % 1018,3 hPa 0,0 l/m² 0,7 km/h (0 Bft) S-SO 165 ° 1 min 355 W/m² 12,9 °C 19,7 °C 4,8 km/h (1 Bft)
14.07.2023 08:46 24,2 °C 19,7 °C 56 % 66 % 1018,3 hPa 0,0 l/m² 0,8 km/h (0 Bft) S-SO 165 ° 1 min 352 W/m² 13,2 °C 19,7 °C 3,2 km/h (1 Bft)
14.07.2023 08:47 24,2 °C 19,7 °C 56 % 65 % 1018,3 hPa 0,0 l/m² 0,1 km/h (0 Bft) S-SO 165 ° 1 min 352 W/m² 12,9 °C 19,7 °C 1,6 km/h (1 Bft)
14.07.2023 08:48 24,2 °C 19,9 °C 56 % 66 % 1018,4 hPa 0,0 l/m² 4,6 km/h (1 Bft) O-SO 102 ° 1 min 352 W/m² 13,4 °C 19,9 °C 6,4 km/h (2 Bft)
14.07.2023 08:49 24,2 °C 19,9 °C 56 % 65 % 1018,4 hPa 0,0 l/m² 2,1 km/h (1 Bft) O-SO 102 ° 1 min 352 W/m² 13,1 °C 19,9 °C 4,8 km/h (1 Bft)
14.07.2023 08:50 24,1 °C 20,1 °C 56 % 65 % 1018,3 hPa 0,0 l/m² 3,7 km/h (1 Bft) S-SW 199 ° 1 min 359 W/m² 13,3 °C 20,1 °C 6,4 km/h (2 Bft)
14.07.2023 08:51 24,2 °C 20,1 °C 56 % 64 % 1018,3 hPa 0,0 l/m² 1,9 km/h (1 Bft) S-SW 199 ° 1 min 364 W/m² 13,1 °C 20,1 °C 3,2 km/h (1 Bft)
14.07.2023 08:52 24,2 °C 20,1 °C 56 % 65 % 1018,3 hPa 0,0 l/m² 0,0 km/h (0 Bft) S-SW 199 ° 1 min 367 W/m² 13,3 °C 20,1 °C 0,0 km/h (0 Bft)
14.07.2023 08:53 24,2 °C 20,2 °C 56 % 64 % 1018,3 hPa 0,0 l/m² 2,2 km/h (1 Bft) S-SW 202 ° 1 min 371 W/m² 13,2 °C 20,2 °C 4,8 km/h (1 Bft)
14.07.2023 08:54 24,2 °C 20,2 °C 56 % 64 % 1018,3 hPa 0,0 l/m² 1,2 km/h (1 Bft) S-SW 202 ° 1 min 378 W/m² 13,2 °C 20,2 °C 3,2 km/h (1 Bft)
14.07.2023 08:55 24,2 °C 20,3 °C 56 % 64 % 1018,3 hPa 0,0 l/m² 0,1 km/h (0 Bft) S-SW 202 ° 1 min 388 W/m² 13,3 °C 20,3 °C 1,6 km/h (1 Bft)
14.07.2023 08:56 24,2 °C 20,3 °C 56 % 63 % 1018,3 hPa 0,0 l/m² 0,0 km/h (0 Bft) S-SW 202 ° 1 min 408 W/m² 13,0 °C 20,3 °C 0,0 km/h (0 Bft)
14.07.2023 08:57 24,2 °C 20,3 °C 56 % 64 % 1018,3 hPa 0,0 l/m² 3,2 km/h (1 Bft) SW 215 ° 1 min 417 W/m² 13,3 °C 20,3 °C 6,4 km/h (2 Bft)
14.07.2023 08:58 24,1 °C 20,3 °C 56 % 63 % 1018,3 hPa 0,0 l/m² 1,0 km/h (0 Bft) SW 217 ° 1 min 425 W/m² 13,0 °C 20,3 °C 4,8 km/h (1 Bft)
14.07.2023 08:59 24,2 °C 20,4 °C 56 % 63 % 1018,4 hPa 0,0 l/m² 4,4 km/h (1 Bft) W-SW 240 ° 1 min 436 W/m² 13,1 °C 20,4 °C 6,4 km/h (2 Bft)
14.07.2023 09:00 24,2 °C 20,5 °C 56 % 63 % 1018,3 hPa 0,0 l/m² 2,9 km/h (1 Bft) SW 219 ° 1 min 443 W/m² 13,2 °C 20,5 °C 4,8 km/h (1 Bft)
14.07.2023 09:02 24,1 °C 20,7 °C 56 % 63 % 1018,3 hPa 0,0 l/m² 4,5 km/h (1 Bft) W-SW 239 ° 2 min 464 W/m² 13,4 °C 20,7 °C 6,4 km/h (2 Bft)
14.07.2023 09:03 24,2 °C 20,7 °C 56 % 63 % 1018,3 hPa 0,0 l/m² 3,7 km/h (1 Bft) W-SW 238 ° 1 min 464 W/m² 13,4 °C 20,7 °C 4,8 km/h (1 Bft)
14.07.2023 09:04 24,2 °C 20,6 °C 56 % 62 % 1018,4 hPa 0,0 l/m² 4,0 km/h (1 Bft) W-SW 240 ° 1 min 476 W/m² 13,1 °C 20,6 °C 6,4 km/h (2 Bft)
14.07.2023 09:05 24,1 °C 20,6 °C 56 % 63 % 1018,3 hPa 0,0 l/m² 2,6 km/h (1 Bft) W-SW 240 ° 1 min 482 W/m² 13,3 °C 20,6 °C 4,8 km/h (1 Bft)
14.07.2023 09:06 24,1 °C 20,6 °C 56 % 63 % 1018,3 hPa 0,0 l/m² 0,2 km/h (0 Bft) W-SW 240 ° 1 min 490 W/m² 13,3 °C 20,6 °C 1,6 km/h (1 Bft)
14.07.2023 09:07 24,2 °C 20,6 °C 56 % 62 % 1018,3 hPa 0,0 l/m² 0,1 km/h (0 Bft) W-SW 240 ° 1 min 499 W/m² 13,1 °C 20,6 °C 1,6 km/h (1 Bft)
14.07.2023 09:08 24,2 °C 20,7 °C 56 % 62 % 1018,2 hPa 0,0 l/m² 4,0 km/h (1 Bft) S 184 ° 1 min 504 W/m² 13,2 °C 20,7 °C 9,7 km/h (2 Bft)
14.07.2023 09:09 24,2 °C 20,8 °C 56 % 62 % 1018,3 hPa 0,0 l/m² 9,7 km/h (2 Bft) S 171 ° 1 min 513 W/m² 13,2 °C 19,6 °C 14,5 km/h (3 Bft)
14.07.2023 09:10 24,2 °C 21,1 °C 56 % 62 % 1018,3 hPa 0,0 l/m² 8,5 km/h (2 Bft) S-SW 202 ° 1 min 524 W/m² 13,5 °C 20,3 °C 11,3 km/h (2 Bft)
14.07.2023 09:12 24,2 °C 21,2 °C 56 % 60 % 1018,3 hPa 0,0 l/m² 10,5 km/h (2 Bft) S 184 ° 2 min 534 W/m² 13,1 °C 19,8 °C 12,9 km/h (3 Bft)
14.07.2023 09:13 24,2 °C 21,1 °C 56 % 59 % 1018,3 hPa 0,0 l/m² 8,0 km/h (2 Bft) S 177 ° 1 min 545 W/m² 12,8 °C 20,5 °C 11,3 km/h (2 Bft)
14.07.2023 09:14 24,2 °C 21,1 °C 56 % 61 % 1018,3 hPa 0,0 l/m² 9,5 km/h (2 Bft) S-SW 209 ° 1 min 547 W/m² 13,3 °C 20,0 °C 11,3 km/h (2 Bft)
14.07.2023 09:15 24,1 °C 21,1 °C 56 % 60 % 1018,2 hPa 0,0 l/m² 7,8 km/h (2 Bft) SW 220 ° 1 min 547 W/m² 13,0 °C 20,6 °C 9,7 km/h (2 Bft)
14.07.2023 09:16 24,2 °C 21,1 °C 56 % 60 % 1018,3 hPa 0,0 l/m² 5,2 km/h (1 Bft) W-SW 248 ° 1 min 554 W/m² 13,0 °C 21,1 °C 8,0 km/h (2 Bft)
14.07.2023 09:17 24,2 °C 21,1 °C 56 % 59 % 1018,3 hPa 0,0 l/m² 8,0 km/h (2 Bft) SW 225 ° 1 min 554 W/m² 12,8 °C 20,5 °C 12,9 km/h (3 Bft)
14.07.2023 09:18 24,2 °C 21,2 °C 56 % 60 % 1018,4 hPa 0,0 l/m² 8,9 km/h (2 Bft) S-SW 208 ° 1 min 554 W/m² 13,1 °C 20,3 °C 12,9 km/h (3 Bft)
14.07.2023 09:19 24,2 °C 21,2 °C 56 % 59 % 1018,3 hPa 0,0 l/m² 9,1 km/h (2 Bft) S-SW 199 ° 1 min 559 W/m² 12,9 °C 20,2 °C 11,3 km/h (2 Bft)
14.07.2023 09:20 24,2 °C 21,3 °C 56 % 59 % 1018,2 hPa 0,0 l/m² 7,0 km/h (2 Bft) S-SW 206 ° 1 min 563 W/m² 13,0 °C 21,1 °C 9,7 km/h (2 Bft)
14.07.2023 09:21 24,2 °C 21,3 °C 56 % 59 % 1018,2 hPa 0,0 l/m² 8,6 km/h (2 Bft) SW 216 ° 1 min 563 W/m² 13,0 °C 20,5 °C 12,9 km/h (3 Bft)
14.07.2023 09:22 24,2 °C 21,3 °C 56 % 58 % 1018,3 hPa 0,0 l/m² 10,9 km/h (2 Bft) SW 223 ° 1 min 566 W/m² 12,7 °C 19,8 °C 14,5 km/h (3 Bft)
14.07.2023 09:23 24,2 °C 21,4 °C 56 % 58 % 1018,2 hPa 0,0 l/m² 13,5 km/h (3 Bft) SW 217 ° 1 min 571 W/m² 12,8 °C 19,3 °C 16,1 km/h (3 Bft)
14.07.2023 09:24 24,2 °C 21,5 °C 56 % 57 % 1018,2 hPa 0,0 l/m² 9,2 km/h (2 Bft) S 178 ° 1 min 575 W/m² 12,6 °C 20,5 °C 11,3 km/h (2 Bft)
14.07.2023 09:25 24,2 °C 21,3 °C 56 % 57 % 1018,2 hPa 0,0 l/m² 6,3 km/h (2 Bft) S 178 ° 1 min 584 W/m² 12,4 °C 21,3 °C 8,0 km/h (2 Bft)
14.07.2023 09:27 24,2 °C 21,4 °C 56 % 59 % 1018,3 hPa 0,0 l/m² 9,4 km/h (2 Bft) W-SW 244 ° 2 min 585 W/m² 13,0 °C 20,4 °C 16,1 km/h (3 Bft)
14.07.2023 09:28 24,2 °C 21,4 °C 56 % 58 % 1018,3 hPa 0,0 l/m² 9,0 km/h (2 Bft) S-SW 213 ° 1 min 591 W/m² 12,8 °C 20,5 °C 12,9 km/h (3 Bft)
14.07.2023 09:29 24,2 °C 21,4 °C 56 % 58 % 1018,3 hPa 0,0 l/m² 7,7 km/h (2 Bft) SW 214 ° 1 min 587 W/m² 12,8 °C 20,9 °C 11,3 km/h (2 Bft)
14.07.2023 09:30 24,2 °C 21,6 °C 56 % 58 % 1018,2 hPa 0,0 l/m² 7,0 km/h (2 Bft) SW 225 ° 1 min 589 W/m² 13,0 °C 21,4 °C 9,7 km/h (2 Bft)
14.07.2023 09:31 24,2 °C 21,7 °C 56 % 58 % 1018,2 hPa 0,0 l/m² 6,8 km/h (2 Bft) W-SW 243 ° 1 min 587 W/m² 13,1 °C 21,6 °C 9,7 km/h (2 Bft)
14.07.2023 09:32 24,2 °C 21,8 °C 56 % 57 % 1018,2 hPa 0,0 l/m² 7,0 km/h (2 Bft) W-SW 254 ° 1 min 585 W/m² 12,9 °C 21,6 °C 11,3 km/h (2 Bft)
14.07.2023 09:33 24,2 °C 21,7 °C 56 % 57 % 1018,2 hPa 0,0 l/m² 3,7 km/h (1 Bft) W 271 ° 1 min 506 W/m² 12,8 °C 21,7 °C 6,4 km/h (2 Bft)
14.07.2023 09:34 24,2 °C 21,6 °C 56 % 57 % 1018,2 hPa 0,0 l/m² 6,0 km/h (2 Bft) SW 225 ° 1 min 547 W/m² 12,7 °C 21,6 °C 9,7 km/h (2 Bft)
14.07.2023 09:35 24,2 °C 21,6 °C 56 % 57 % 1018,2 hPa 0,0 l/m² 3,6 km/h (1 Bft) SW 228 ° 1 min 608 W/m² 12,7 °C 21,6 °C 6,4 km/h (2 Bft)
14.07.2023 09:37 24,2 °C 21,7 °C 56 % 58 % 1018,1 hPa 0,0 l/m² 2,9 km/h (1 Bft) W 275 ° 2 min 543 W/m² 13,1 °C 21,7 °C 6,4 km/h (2 Bft)
14.07.2023 09:38 24,2 °C 22,0 °C 56 % 58 % 1018,1 hPa 0,0 l/m² 2,8 km/h (1 Bft) W 275 ° 1 min 529 W/m² 13,3 °C 22,0 °C 4,8 km/h (1 Bft)
14.07.2023 09:39 24,2 °C 22,2 °C 56 % 58 % 1018,0 hPa 0,0 l/m² 0,6 km/h (0 Bft) W 275 ° 1 min 599 W/m² 13,5 °C 22,2 °C 3,2 km/h (1 Bft)
14.07.2023 09:40 24,2 °C 22,3 °C 56 % 56 % 1018,1 hPa 0,0 l/m² 2,4 km/h (1 Bft) S-SW 205 ° 1 min 605 W/m² 13,1 °C 22,3 °C 6,4 km/h (2 Bft)
14.07.2023 09:41 24,2 °C 22,3 °C 56 % 56 % 1018,1 hPa 0,0 l/m² 9,4 km/h (2 Bft) SW 227 ° 1 min 610 W/m² 13,1 °C 21,3 °C 14,5 km/h (3 Bft)
14.07.2023 09:42 24,2 °C 22,3 °C 56 % 56 % 1018,1 hPa 0,0 l/m² 10,5 km/h (2 Bft) W-SW 250 ° 1 min 603 W/m² 13,1 °C 21,0 °C 14,5 km/h (3 Bft)
14.07.2023 09:43 24,2 °C 22,4 °C 56 % 56 % 1018,2 hPa 0,0 l/m² 9,3 km/h (2 Bft) W-SW 251 ° 1 min 619 W/m² 13,2 °C 21,5 °C 14,5 km/h (3 Bft)
14.07.2023 09:44 24,2 °C 22,3 °C 56 % 56 % 1018,2 hPa 0,0 l/m² 8,4 km/h (2 Bft) W-SW 255 ° 1 min 619 W/m² 13,1 °C 21,6 °C 11,3 km/h (2 Bft)
14.07.2023 09:46 24,2 °C 22,2 °C 56 % 57 % 1018,1 hPa 0,0 l/m² 4,6 km/h (1 Bft) W-SW 244 ° 2 min 615 W/m² 13,3 °C 22,2 °C 9,7 km/h (2 Bft)
14.07.2023 09:47 24,2 °C 22,3 °C 56 % 56 % 1018,1 hPa 0,0 l/m² 5,4 km/h (2 Bft) S-SW 194 ° 1 min 624 W/m² 13,1 °C 22,3 °C 6,4 km/h (2 Bft)
14.07.2023 09:48 24,2 °C 22,3 °C 56 % 56 % 1018,1 hPa 0,0 l/m² 8,7 km/h (2 Bft) S 171 ° 1 min 613 W/m² 13,1 °C 21,6 °C 11,3 km/h (2 Bft)
14.07.2023 09:49 24,2 °C 22,2 °C 56 % 55 % 1018,1 hPa 0,0 l/m² 8,6 km/h (2 Bft) S-SW 199 ° 1 min 582 W/m² 12,7 °C 21,5 °C 11,3 km/h (2 Bft)
14.07.2023 09:50 24,2 °C 22,2 °C 56 % 56 % 1018,0 hPa 0,0 l/m² 7,5 km/h (2 Bft) W-SW 238 ° 1 min 587 W/m² 13,0 °C 21,8 °C 9,7 km/h (2 Bft)
14.07.2023 09:51 24,2 °C 22,3 °C 56 % 56 % 1018,0 hPa 0,0 l/m² 6,4 km/h (2 Bft) W-SW 242 ° 1 min 573 W/m² 13,1 °C 22,3 °C 9,7 km/h (2 Bft)
14.07.2023 09:52 24,2 °C 22,4 °C 56 % 56 % 1018,0 hPa 0,0 l/m² 8,6 km/h (2 Bft) W-SW 244 ° 1 min 628 W/m² 13,2 °C 21,7 °C 11,3 km/h (2 Bft)
14.07.2023 09:53 24,2 °C 22,5 °C 56 % 56 % 1018,0 hPa 0,0 l/m² 10,7 km/h (2 Bft) SW 235 ° 1 min 615 W/m² 13,3 °C 21,2 °C 14,5 km/h (3 Bft)
14.07.2023 09:54 24,2 °C 22,4 °C 56 % 55 % 1018,0 hPa 0,0 l/m² 6,7 km/h (2 Bft) W-SW 253 ° 1 min 636 W/m² 12,9 °C 22,3 °C 11,3 km/h (2 Bft)
14.07.2023 09:55 24,2 °C 22,4 °C 56 % 55 % 1018,0 hPa 0,0 l/m² 4,0 km/h (1 Bft) W-SW 248 ° 1 min 615 W/m² 12,9 °C 22,4 °C 11,3 km/h (2 Bft)
14.07.2023 09:56 24,2 °C 22,4 °C 56 % 55 % 1018,0 hPa 0,0 l/m² 7,5 km/h (2 Bft) SW 219 ° 1 min 626 W/m² 12,9 °C 22,0 °C 12,9 km/h (3 Bft)
14.07.2023 09:57 24,2 °C 22,5 °C 56 % 55 % 1018,0 hPa 0,0 l/m² 8,9 km/h (2 Bft) SW 235 ° 1 min 624 W/m² 13,0 °C 21,7 °C 14,5 km/h (3 Bft)
14.07.2023 09:58 24,2 °C 22,6 °C 56 % 54 % 1018,0 hPa 0,0 l/m² 9,3 km/h (2 Bft) S-SW 208 ° 1 min 617 W/m² 12,8 °C 21,7 °C 12,9 km/h (3 Bft)
14.07.2023 09:59 24,2 °C 22,6 °C 56 % 53 % 1018,0 hPa 0,0 l/m² 10,1 km/h (2 Bft) S-SW 213 ° 1 min 598 W/m² 12,5 °C 21,5 °C 14,5 km/h (3 Bft)
14.07.2023 10:00 24,2 °C 22,5 °C 56 % 53 % 1018,0 hPa 0,0 l/m² 9,2 km/h (2 Bft) S-SW 205 ° 1 min 629 W/m² 12,4 °C 21,6 °C 11,3 km/h (2 Bft)
14.07.2023 10:01 24,2 °C 22,4 °C 56 % 54 % 1018,0 hPa 0,0 l/m² 8,1 km/h (2 Bft) S 180 ° 1 min 626 W/m² 12,6 °C 21,8 °C 11,3 km/h (2 Bft)
14.07.2023 10:02 24,2 °C 22,6 °C 56 % 54 % 1018,0 hPa 0,0 l/m² 8,8 km/h (2 Bft) S-SO 164 ° 1 min 649 W/m² 12,8 °C 21,8 °C 12,9 km/h (3 Bft)
14.07.2023 10:03 24,2 °C 22,7 °C 56 % 54 % 1018,0 hPa 0,0 l/m² 10,6 km/h (2 Bft) SW 221 ° 1 min 656 W/m² 12,9 °C 21,5 °C 16,1 km/h (3 Bft)
14.07.2023 10:04 24,2 °C 22,6 °C 56 % 53 % 1018,0 hPa 0,0 l/m² 6,5 km/h (2 Bft) SW 233 ° 1 min 671 W/m² 12,5 °C 22,6 °C 9,7 km/h (2 Bft)
14.07.2023 10:05 24,2 °C 22,6 °C 56 % 53 % 1018,0 hPa 0,0 l/m² 8,3 km/h (2 Bft) W-SW 252 ° 1 min 663 W/m² 12,5 °C 22,0 °C 11,3 km/h (2 Bft)
14.07.2023 10:07 24,2 °C 22,9 °C 56 % 52 % 1018,0 hPa 0,0 l/m² 9,9 km/h (2 Bft) SW 232 ° 2 min 663 W/m² 12,5 °C 21,9 °C 14,5 km/h (3 Bft)
14.07.2023 10:08 24,2 °C 23,1 °C 56 % 52 % 1018,0 hPa 0,0 l/m² 9,5 km/h (2 Bft) W-SW 255 ° 1 min 642 W/m² 12,7 °C 22,2 °C 12,9 km/h (3 Bft)
14.07.2023 10:09 24,2 °C 23,2 °C 56 % 51 % 1018,0 hPa 0,0 l/m² 12,2 km/h (2 Bft) W 260 ° 1 min 652 W/m² 12,5 °C 21,7 °C 14,5 km/h (3 Bft)
14.07.2023 10:10 24,2 °C 23,3 °C 56 % 51 % 1018,0 hPa 0,0 l/m² 7,7 km/h (2 Bft) S-SW 198 ° 1 min 650 W/m² 12,6 °C 22,9 °C 11,3 km/h (2 Bft)
14.07.2023 10:11 24,2 °C 23,4 °C 56 % 50 % 1018,0 hPa 0,0 l/m² 6,6 km/h (2 Bft) W-SW 253 ° 1 min 656 W/m² 12,4 °C 23,3 °C 8,0 km/h (2 Bft)
14.07.2023 10:12 24,2 °C 23,4 °C 56 % 50 % 1018,0 hPa 0,0 l/m² 5,5 km/h (2 Bft) W 274 ° 1 min 654 W/m² 12,4 °C 23,4 °C 9,7 km/h (2 Bft)
14.07.2023 10:13 24,2 °C 23,3 °C 56 % 50 % 1017,9 hPa 0,0 l/m² 3,4 km/h (1 Bft) W 277 ° 1 min 652 W/m² 12,3 °C 23,3 °C 9,7 km/h (2 Bft)
14.07.2023 10:14 24,2 °C 23,2 °C 56 % 51 % 1017,9 hPa 0,0 l/m² 4,4 km/h (1 Bft) W 267 ° 1 min 654 W/m² 12,5 °C 23,2 °C 6,4 km/h (2 Bft)
14.07.2023 10:15 24,2 °C 23,1 °C 56 % 50 % 1017,9 hPa 0,0 l/m² 4,3 km/h (1 Bft) S-SW 210 ° 1 min 656 W/m² 12,1 °C 23,1 °C 6,4 km/h (2 Bft)
14.07.2023 10:16 24,2 °C 22,9 °C 56 % 52 % 1017,9 hPa 0,0 l/m² 0,3 km/h (0 Bft) SW 214 ° 1 min 664 W/m² 12,5 °C 22,9 °C 3,2 km/h (1 Bft)
14.07.2023 10:17 24,2 °C 22,9 °C 56 % 53 % 1017,9 hPa 0,0 l/m² 5,1 km/h (1 Bft) W-SW 240 ° 1 min 675 W/m² 12,8 °C 22,9 °C 9,7 km/h (2 Bft)
14.07.2023 10:18 24,2 °C 22,9 °C 56 % 52 % 1017,9 hPa 0,0 l/m² 5,2 km/h (1 Bft) SW 219 ° 1 min 689 W/m² 12,5 °C 22,9 °C 9,7 km/h (2 Bft)
14.07.2023 10:19 24,2 °C 23,1 °C 56 % 52 % 1018,0 hPa 0,0 l/m² 8,7 km/h (2 Bft) S 180 ° 1 min 689 W/m² 12,7 °C 22,4 °C 11,3 km/h (2 Bft)
14.07.2023 10:20 24,2 °C 23,2 °C 56 % 50 % 1018,0 hPa 0,0 l/m² 10,3 km/h (2 Bft) S 187 ° 1 min 687 W/m² 12,2 °C 22,1 °C 16,1 km/h (3 Bft)
14.07.2023 10:22 24,2 °C 23,5 °C 56 % 50 % 1017,9 hPa 0,0 l/m² 13,5 km/h (3 Bft) S 191 ° 2 min 689 W/m² 12,5 °C 21,8 °C 16,1 km/h (3 Bft)
14.07.2023 10:23 24,2 °C 23,6 °C 56 % 48 % 1017,9 hPa 0,0 l/m² 7,6 km/h (2 Bft) S 179 ° 1 min 670 W/m² 11,9 °C 23,2 °C 9,7 km/h (2 Bft)
14.07.2023 10:24 24,2 °C 23,4 °C 56 % 49 % 1018,0 hPa 0,0 l/m² 10,2 km/h (2 Bft) S 181 ° 1 min 686 W/m² 12,1 °C 22,3 °C 14,5 km/h (3 Bft)
14.07.2023 10:25 24,2 °C 23,3 °C 56 % 49 % 1017,9 hPa 0,0 l/m² 7,4 km/h (2 Bft) S-SW 210 ° 1 min 691 W/m² 12,0 °C 23,0 °C 11,3 km/h (2 Bft)
14.07.2023 10:26 24,2 °C 23,3 °C 56 % 50 % 1017,9 hPa 0,0 l/m² 7,2 km/h (2 Bft) W-SW 241 ° 1 min 696 W/m² 12,3 °C 23,1 °C 11,3 km/h (2 Bft)
14.07.2023 10:27 24,2 °C 23,4 °C 56 % 51 % 1017,9 hPa 0,0 l/m² 2,9 km/h (1 Bft) W-SW 241 ° 1 min 707 W/m² 12,7 °C 23,4 °C 4,8 km/h (1 Bft)
14.07.2023 10:28 24,2 °C 23,6 °C 56 % 50 % 1017,9 hPa 0,0 l/m² 4,7 km/h (1 Bft) S-SW 212 ° 1 min 700 W/m² 12,6 °C 23,6 °C 8,0 km/h (2 Bft)
14.07.2023 10:29 24,2 °C 23,6 °C 56 % 49 % 1017,9 hPa 0,0 l/m² 4,8 km/h (1 Bft) S-SW 212 ° 1 min 710 W/m² 12,2 °C 23,6 °C 6,4 km/h (2 Bft)
14.07.2023 10:30 24,2 °C 23,4 °C 56 % 50 % 1017,9 hPa 0,0 l/m² 2,6 km/h (1 Bft) S-SW 209 ° 1 min 719 W/m² 12,4 °C 23,4 °C 4,8 km/h (1 Bft)
14.07.2023 10:31 24,2 °C 23,3 °C 56 % 50 % 1017,9 hPa 0,0 l/m² 9,3 km/h (2 Bft) S 183 ° 1 min 714 W/m² 12,3 °C 22,5 °C 14,5 km/h (3 Bft)
14.07.2023 10:32 24,2 °C 23,2 °C 56 % 48 % 1017,9 hPa 0,0 l/m² 7,0 km/h (2 Bft) S-SO 165 ° 1 min 700 W/m² 11,6 °C 23,0 °C 8,0 km/h (2 Bft)
14.07.2023 10:33 24,2 °C 23,1 °C 56 % 50 % 1017,9 hPa 0,0 l/m² 5,6 km/h (2 Bft) SW 223 ° 1 min 729 W/m² 12,1 °C 23,1 °C 9,7 km/h (2 Bft)
14.07.2023 10:34 24,2 °C 23,1 °C 56 % 50 % 1017,9 hPa 0,0 l/m² 4,2 km/h (1 Bft) SW 214 ° 1 min 722 W/m² 12,1 °C 23,1 °C 9,7 km/h (2 Bft)
14.07.2023 10:35 24,2 °C 23,2 °C 56 % 51 % 1017,9 hPa 0,0 l/m² 7,6 km/h (2 Bft) S 186 ° 1 min 740 W/m² 12,5 °C 22,8 °C 12,9 km/h (3 Bft)
14.07.2023 10:36 24,2 °C 23,4 °C 56 % 49 % 1017,9 hPa 0,0 l/m² 10,5 km/h (2 Bft) SW 217 ° 1 min 740 W/m² 12,1 °C 22,3 °C 14,5 km/h (3 Bft)
14.07.2023 10:37 24,2 °C 23,4 °C 56 % 49 % 1017,9 hPa 0,0 l/m² 6,4 km/h (2 Bft) S 189 ° 1 min 747 W/m² 12,1 °C 23,4 °C 11,3 km/h (2 Bft)
14.07.2023 10:38 24,2 °C 23,3 °C 56 % 49 % 1017,8 hPa 0,0 l/m² 9,1 km/h (2 Bft) S-SO 153 ° 1 min 747 W/m² 12,0 °C 22,5 °C 14,5 km/h (3 Bft)
14.07.2023 10:39 24,2 °C 23,4 °C 56 % 49 % 1017,9 hPa 0,0 l/m² 7,0 km/h (2 Bft) S-SW 211 ° 1 min 761 W/m² 12,1 °C 23,2 °C 9,7 km/h (2 Bft)
14.07.2023 10:40 24,2 °C 23,6 °C 56 % 49 % 1017,8 hPa 0,0 l/m² 9,5 km/h (2 Bft) SW 228 ° 1 min 758 W/m² 12,2 °C 22,7 °C 16,1 km/h (3 Bft)
14.07.2023 10:41 24,2 °C 23,7 °C 56 % 48 % 1017,9 hPa 0,0 l/m² 10,8 km/h (2 Bft) SW 215 ° 1 min 747 W/m² 12,0 °C 22,5 °C 14,5 km/h (3 Bft)
14.07.2023 10:42 24,2 °C 23,6 °C 56 % 47 % 1017,8 hPa 0,0 l/m² 7,4 km/h (2 Bft) S 190 ° 1 min 715 W/m² 11,6 °C 23,3 °C 14,5 km/h (3 Bft)
14.07.2023 10:43 24,2 °C 23,6 °C 56 % 48 % 1017,8 hPa 0,0 l/m² 10,7 km/h (2 Bft) S 188 ° 1 min 747 W/m² 11,9 °C 22,5 °C 14,5 km/h (3 Bft)
14.07.2023 10:44 24,2 °C 23,7 °C 56 % 48 % 1017,8 hPa 0,0 l/m² 11,6 km/h (2 Bft) S-SW 213 ° 1 min 733 W/m² 12,0 °C 22,4 °C 19,3 km/h (3 Bft)
14.07.2023 10:45 24,2 °C 23,8 °C 56 % 49 % 1017,8 hPa 0,0 l/m² 12,0 km/h (2 Bft) SW 216 ° 1 min 756 W/m² 12,4 °C 22,4 °C 16,1 km/h (3 Bft)
14.07.2023 10:46 24,2 °C 23,8 °C 56 % 49 % 1017,9 hPa 0,0 l/m² 13,7 km/h (3 Bft) S 173 ° 1 min 756 W/m² 12,4 °C 22,1 °C 20,9 km/h (4 Bft)
14.07.2023 10:47 24,2 °C 23,7 °C 56 % 48 % 1017,8 hPa 0,0 l/m² 11,1 km/h (2 Bft) S-SO 164 ° 1 min 751 W/m² 12,0 °C 22,5 °C 14,5 km/h (3 Bft)
14.07.2023 10:48 24,2 °C 23,8 °C 56 % 49 % 1017,8 hPa 0,0 l/m² 10,1 km/h (2 Bft) S-SW 193 ° 1 min 761 W/m² 12,4 °C 22,8 °C 14,5 km/h (3 Bft)
14.07.2023 10:49 24,2 °C 23,9 °C 56 % 48 % 1017,8 hPa 0,0 l/m² 9,3 km/h (2 Bft) S 173 ° 1 min 763 W/m² 12,2 °C 23,1 °C 12,9 km/h (3 Bft)
14.07.2023 10:50 24,2 °C 23,8 °C 56 % 48 % 1017,9 hPa 0,0 l/m² 11,7 km/h (2 Bft) S 184 ° 1 min 759 W/m² 12,1 °C 22,5 °C 17,7 km/h (3 Bft)
14.07.2023 10:51 24,2 °C 24,0 °C 56 % 48 % 1017,9 hPa 0,0 l/m² 14,6 km/h (3 Bft) S 177 ° 1 min 742 W/m² 12,3 °C 22,2 °C 20,9 km/h (4 Bft)
14.07.2023 10:52 24,2 °C 23,9 °C 56 % 48 % 1017,8 hPa 0,0 l/m² 13,2 km/h (3 Bft) S 171 ° 1 min 722 W/m² 12,2 °C 22,3 °C 17,7 km/h (3 Bft)
14.07.2023 10:53 24,2 °C 23,9 °C 56 % 47 % 1017,8 hPa 0,0 l/m² 10,2 km/h (2 Bft) W-SW 239 ° 1 min 663 W/m² 11,9 °C 22,9 °C 19,3 km/h (3 Bft)
14.07.2023 10:54 24,2 °C 23,9 °C 56 % 48 % 1017,8 hPa 0,0 l/m² 14,0 km/h (3 Bft) S-SW 204 ° 1 min 691 W/m² 12,2 °C 22,1 °C 16,1 km/h (3 Bft)
14.07.2023 10:55 24,2 °C 24,0 °C 56 % 48 % 1017,9 hPa 0,0 l/m² 9,1 km/h (2 Bft) SW 224 ° 1 min 728 W/m² 12,3 °C 23,3 °C 11,3 km/h (2 Bft)
14.07.2023 10:56 24,2 °C 24,0 °C 56 % 49 % 1017,8 hPa 0,0 l/m² 6,2 km/h (2 Bft) W-SW 246 ° 1 min 717 W/m² 12,6 °C 24,0 °C 9,7 km/h (2 Bft)
14.07.2023 10:57 24,2 °C 24,0 °C 56 % 48 % 1017,9 hPa 0,0 l/m² 5,6 km/h (2 Bft) W-NW 299 ° 1 min 707 W/m² 12,3 °C 24,0 °C 11,3 km/h (2 Bft)
14.07.2023 10:58 24,2 °C 23,9 °C 56 % 48 % 1017,8 hPa 0,0 l/m² 2,5 km/h (1 Bft) W-SW 252 ° 1 min 656 W/m² 12,2 °C 23,9 °C 3,2 km/h (1 Bft)
14.07.2023 10:59 24,2 °C 23,8 °C 56 % 48 % 1017,8 hPa 0,0 l/m² 1,3 km/h (1 Bft) W-NW 288 ° 1 min 742 W/m² 12,1 °C 23,8 °C 4,8 km/h (1 Bft)
14.07.2023 11:00 24,2 °C 23,9 °C 56 % 49 % 1017,8 hPa 0,0 l/m² 3,4 km/h (1 Bft) W 268 ° 1 min 668 W/m² 12,5 °C 23,9 °C 6,4 km/h (2 Bft)
14.07.2023 11:02 24,2 °C 24,1 °C 56 % 48 % 1017,8 hPa 0,0 l/m² 4,1 km/h (1 Bft) S-SW 198 ° 2 min 763 W/m² 12,4 °C 24,1 °C 9,7 km/h (2 Bft)
14.07.2023 11:03 24,2 °C 24,2 °C 56 % 49 % 1017,8 hPa 0,0 l/m² 9,5 km/h (2 Bft) W 261 ° 1 min 761 W/m² 12,8 °C 23,4 °C 14,5 km/h (3 Bft)
14.07.2023 11:04 24,2 °C 24,2 °C 56 % 48 % 1017,7 hPa 0,0 l/m² 7,6 km/h (2 Bft) W 261 ° 1 min 791 W/m² 12,5 °C 23,9 °C 11,3 km/h (2 Bft)
14.07.2023 11:05 24,2 °C 24,2 °C 56 % 48 % 1017,7 hPa 0,0 l/m² 6,3 km/h (2 Bft) SW 222 ° 1 min 786 W/m² 12,5 °C 24,2 °C 11,3 km/h (2 Bft)
14.07.2023 11:06 24,2 °C 24,4 °C 56 % 48 % 1017,7 hPa 0,0 l/m² 7,6 km/h (2 Bft) W 261 ° 1 min 779 W/m² 12,7 °C 24,1 °C 9,7 km/h (2 Bft)
14.07.2023 11:07 24,2 °C 24,7 °C 56 % 48 % 1017,7 hPa 0,0 l/m² 4,0 km/h (1 Bft) S 188 ° 1 min 791 W/m² 12,9 °C 24,7 °C 9,7 km/h (2 Bft)
14.07.2023 11:08 24,2 °C 24,7 °C 56 % 46 % 1017,7 hPa 0,0 l/m² 14,3 km/h (3 Bft) S 183 ° 1 min 798 W/m² 12,3 °C 23,1 °C 17,7 km/h (3 Bft)
14.07.2023 11:09 24,2 °C 24,7 °C 56 % 46 % 1017,7 hPa 0,0 l/m² 13,2 km/h (3 Bft) S-SW 194 ° 1 min 803 W/m² 12,3 °C 23,2 °C 17,7 km/h (3 Bft)
14.07.2023 11:10 24,2 °C 24,4 °C 56 % 46 % 1017,7 hPa 0,0 l/m² 11,9 km/h (2 Bft) S-SW 202 ° 1 min 798 W/m² 12,0 °C 23,1 °C 16,1 km/h (3 Bft)
14.07.2023 11:12 24,2 °C 24,3 °C 56 % 46 % 1017,7 hPa 0,0 l/m² 16,1 km/h (3 Bft) S 179 ° 2 min 809 W/m² 11,9 °C 22,3 °C 20,9 km/h (4 Bft)
14.07.2023 11:13 24,2 °C 24,3 °C 56 % 47 % 1017,7 hPa 0,0 l/m² 10,7 km/h (2 Bft) S-SO 161 ° 1 min 809 W/m² 12,3 °C 23,2 °C 14,5 km/h (3 Bft)
14.07.2023 11:14 24,2 °C 24,2 °C 56 % 47 % 1017,6 hPa 0,0 l/m² 7,6 km/h (2 Bft) S-SO 152 ° 1 min 793 W/m² 12,2 °C 23,9 °C 11,3 km/h (2 Bft)
14.07.2023 11:15 24,2 °C 24,1 °C 56 % 47 % 1017,6 hPa 0,0 l/m² 10,3 km/h (2 Bft) S-SO 165 ° 1 min 795 W/m² 12,1 °C 23,1 °C 19,3 km/h (3 Bft)
14.07.2023 11:16 24,2 °C 24,2 °C 56 % 47 % 1017,6 hPa 0,0 l/m² 13,6 km/h (3 Bft) S 181 ° 1 min 805 W/m² 12,2 °C 22,6 °C 19,3 km/h (3 Bft)
14.07.2023 11:17 24,2 °C 24,2 °C 56 % 47 % 1017,6 hPa 0,0 l/m² 9,8 km/h (2 Bft) S 176 ° 1 min 807 W/m² 12,2 °C 23,3 °C 12,9 km/h (3 Bft)
14.07.2023 11:18 24,2 °C 24,2 °C 56 % 47 % 1017,6 hPa 0,0 l/m² 9,9 km/h (2 Bft) S-SW 196 ° 1 min 798 W/m² 12,2 °C 23,3 °C 12,9 km/h (3 Bft)
14.07.2023 11:19 24,2 °C 24,0 °C 56 % 46 % 1017,6 hPa 0,0 l/m² 6,4 km/h (2 Bft) S-SW 212 ° 1 min 805 W/m² 11,7 °C 24,0 °C 8,0 km/h (2 Bft)
14.07.2023 11:20 24,2 °C 23,9 °C 56 % 47 % 1017,6 hPa 0,0 l/m² 3,6 km/h (1 Bft) S-SW 212 ° 1 min 805 W/m² 11,9 °C 23,9 °C 6,4 km/h (2 Bft)
14.07.2023 11:21 24,2 °C 23,8 °C 56 % 48 % 1017,5 hPa 0,0 l/m² 2,3 km/h (1 Bft) S-SW 207 ° 1 min 805 W/m² 12,1 °C 23,8 °C 6,4 km/h (2 Bft)
14.07.2023 11:22 24,2 °C 23,9 °C 56 % 48 % 1017,6 hPa 0,0 l/m² 5,4 km/h (2 Bft) SW 229 ° 1 min 803 W/m² 12,2 °C 23,9 °C 9,7 km/h (2 Bft)
14.07.2023 11:23 24,2 °C 23,9 °C 56 % 48 % 1017,6 hPa 0,0 l/m² 3,7 km/h (1 Bft) S 190 ° 1 min 803 W/m² 12,2 °C 23,9 °C 6,4 km/h (2 Bft)
14.07.2023 11:24 24,2 °C 23,9 °C 56 % 47 % 1017,6 hPa 0,0 l/m² 2,7 km/h (1 Bft) SW 223 ° 1 min 823 W/m² 11,9 °C 23,9 °C 8,0 km/h (2 Bft)
14.07.2023 11:25 24,2 °C 23,9 °C 56 % 48 % 1017,6 hPa 0,0 l/m² 2,1 km/h (1 Bft) W 259 ° 1 min 838 W/m² 12,2 °C 23,9 °C 4,8 km/h (1 Bft)
14.07.2023 11:26 24,2 °C 24,1 °C 56 % 48 % 1017,5 hPa 0,0 l/m² 5,0 km/h (1 Bft) SW 235 ° 1 min 838 W/m² 12,4 °C 24,1 °C 11,3 km/h (2 Bft)
14.07.2023 11:27 24,2 °C 24,4 °C 56 % 48 % 1017,5 hPa 0,0 l/m² 10,3 km/h (2 Bft) S-SW 211 ° 1 min 838 W/m² 12,7 °C 23,4 °C 19,3 km/h (3 Bft)
14.07.2023 11:28 24,2 °C 24,3 °C 56 % 46 % 1017,5 hPa 0,0 l/m² 8,9 km/h (2 Bft) S-SW 205 ° 1 min 838 W/m² 11,9 °C 23,6 °C 14,5 km/h (3 Bft)
14.07.2023 11:29 24,2 °C 24,1 °C 56 % 46 % 1017,5 hPa 0,0 l/m² 2,5 km/h (1 Bft) S-SW 203 ° 1 min 838 W/m² 11,7 °C 24,1 °C 6,4 km/h (2 Bft)
14.07.2023 11:30 24,2 °C 23,8 °C 56 % 47 % 1017,4 hPa 0,0 l/m² 1,7 km/h (1 Bft) SW 215 ° 1 min 838 W/m² 11,8 °C 23,8 °C 4,8 km/h (1 Bft)
14.07.2023 11:31 24,2 °C 23,9 °C 56 % 48 % 1017,4 hPa 0,0 l/m² 4,0 km/h (1 Bft) W-SW 252 ° 1 min 838 W/m² 12,2 °C 23,9 °C 14,5 km/h (3 Bft)
14.07.2023 11:32 24,2 °C 24,1 °C 56 % 47 % 1017,5 hPa 0,0 l/m² 6,0 km/h (2 Bft) W-SW 240 ° 1 min 858 W/m² 12,1 °C 24,1 °C 14,5 km/h (3 Bft)
14.07.2023 11:33 24,2 °C 24,2 °C 56 % 47 % 1017,4 hPa 0,0 l/m² 0,3 km/h (0 Bft) W-SW 240 ° 1 min 853 W/m² 12,2 °C 24,2 °C 1,6 km/h (1 Bft)
14.07.2023 11:34 24,2 °C 24,4 °C 56 % 46 % 1017,5 hPa 0,0 l/m² 7,5 km/h (2 Bft) SW 220 ° 1 min 858 W/m² 12,0 °C 24,1 °C 11,3 km/h (2 Bft)
14.07.2023 11:35 24,2 °C 24,6 °C 56 % 45 % 1017,4 hPa 0,0 l/m² 5,4 km/h (2 Bft) W-SW 252 ° 1 min 853 W/m² 11,9 °C 24,6 °C 9,7 km/h (2 Bft)
14.07.2023 11:36 24,2 °C 24,7 °C 56 % 45 % 1017,4 hPa 0,0 l/m² 7,8 km/h (2 Bft) S 189 ° 1 min 858 W/m² 12,0 °C 24,3 °C 12,9 km/h (3 Bft)
14.07.2023 11:37 24,2 °C 24,6 °C 56 % 44 % 1017,4 hPa 0,0 l/m² 5,1 km/h (1 Bft) S 174 ° 1 min 863 W/m² 11,5 °C 24,6 °C 8,0 km/h (2 Bft)
14.07.2023 11:38 24,2 °C 24,7 °C 56 % 45 % 1017,4 hPa 0,0 l/m² 8,9 km/h (2 Bft) W-SW 252 ° 1 min 861 W/m² 12,0 °C 24,1 °C 12,9 km/h (3 Bft)
14.07.2023 11:39 24,2 °C 24,8 °C 56 % 44 % 1017,4 hPa 0,0 l/m² 6,5 km/h (2 Bft) SW 223 ° 1 min 861 W/m² 11,7 °C 24,8 °C 9,7 km/h (2 Bft)
14.07.2023 11:40 24,2 °C 24,7 °C 56 % 44 % 1017,4 hPa 0,0 l/m² 3,3 km/h (1 Bft) S-SW 200 ° 1 min 879 W/m² 11,6 °C 24,7 °C 6,4 km/h (2 Bft)
14.07.2023 11:41 24,2 °C 24,5 °C 56 % 44 % 1017,4 hPa 0,0 l/m² 4,8 km/h (1 Bft) S-SW 201 ° 1 min 872 W/m² 11,4 °C 24,5 °C 8,0 km/h (2 Bft)
14.07.2023 11:42 24,2 °C 24,6 °C 56 % 44 % 1017,3 hPa 0,0 l/m² 7,0 km/h (2 Bft) SW 221 ° 1 min 879 W/m² 11,5 °C 24,4 °C 9,7 km/h (2 Bft)
14.07.2023 11:43 24,2 °C 24,6 °C 56 % 44 % 1017,4 hPa 0,0 l/m² 4,3 km/h (1 Bft) S 183 ° 1 min 891 W/m² 11,5 °C 24,6 °C 6,4 km/h (2 Bft)
14.07.2023 11:44 24,2 °C 24,7 °C 56 % 46 % 1017,4 hPa 0,0 l/m² 5,5 km/h (2 Bft) SW 236 ° 1 min 895 W/m² 12,3 °C 24,7 °C 8,0 km/h (2 Bft)
14.07.2023 11:45 24,2 °C 24,8 °C 56 % 44 % 1017,3 hPa 0,0 l/m² 7,2 km/h (2 Bft) S-SW 202 ° 1 min 881 W/m² 11,7 °C 24,6 °C 9,7 km/h (2 Bft)
14.07.2023 11:46 24,2 °C 24,9 °C 56 % 43 % 1017,3 hPa 0,0 l/m² 4,5 km/h (1 Bft) SW 214 ° 1 min 881 W/m² 11,4 °C 24,9 °C 9,7 km/h (2 Bft)
14.07.2023 11:47 24,2 °C 24,8 °C 56 % 43 % 1017,3 hPa 0,0 l/m² 0,8 km/h (0 Bft) SW 217 ° 1 min 886 W/m² 11,4 °C 24,8 °C 3,2 km/h (1 Bft)
14.07.2023 11:48 24,2 °C 24,8 °C 56 % 45 % 1017,3 hPa 0,0 l/m² 2,2 km/h (1 Bft) W-SW 254 ° 1 min 896 W/m² 12,0 °C 24,8 °C 6,4 km/h (2 Bft)
14.07.2023 11:49 24,2 °C 24,8 °C 56 % 45 % 1017,3 hPa 0,0 l/m² 9,3 km/h (2 Bft) S 185 ° 1 min 919 W/m² 12,0 °C 24,1 °C 16,1 km/h (3 Bft)
14.07.2023 11:50 24,2 °C 25,1 °C 56 % 44 % 1017,2 hPa 0,0 l/m² 11,2 km/h (2 Bft) S 187 ° 1 min 921 W/m² 12,0 °C 24,0 °C 17,7 km/h (3 Bft)
14.07.2023 11:51 24,2 °C 25,3 °C 56 % 43 % 1017,3 hPa 0,0 l/m² 15,3 km/h (3 Bft) SW 224 ° 1 min 933 W/m² 11,8 °C 23,6 °C 17,7 km/h (3 Bft)
14.07.2023 11:52 24,2 °C 25,6 °C 56 % 44 % 1017,3 hPa 0,0 l/m² 15,0 km/h (3 Bft) S-SW 207 ° 1 min 935 W/m² 12,4 °C 24,0 °C 17,7 km/h (3 Bft)
14.07.2023 11:53 24,2 °C 25,8 °C 56 % 43 % 1017,3 hPa 0,0 l/m² 11,6 km/h (2 Bft) S 186 ° 1 min 944 W/m² 12,3 °C 24,8 °C 12,9 km/h (3 Bft)
14.07.2023 11:54 24,2 °C 25,7 °C 56 % 42 % 1017,3 hPa 0,0 l/m² 8,0 km/h (2 Bft) S 170 ° 1 min 940 W/m² 11,8 °C 25,3 °C 9,7 km/h (2 Bft)
14.07.2023 11:55 24,2 °C 25,3 °C 56 % 42 % 1017,3 hPa 0,0 l/m² 7,0 km/h (2 Bft) S 173 ° 1 min 946 W/m² 11,5 °C 25,2 °C 11,3 km/h (2 Bft)
14.07.2023 11:56 24,2 °C 25,0 °C 56 % 43 % 1017,3 hPa 0,0 l/m² 7,0 km/h (2 Bft) S-SW 202 ° 1 min 949 W/m² 11,5 °C 24,8 °C 11,3 km/h (2 Bft)
14.07.2023 11:57 24,2 °C 24,9 °C 56 % 43 % 1017,3 hPa 0,0 l/m² 5,1 km/h (1 Bft) SW 233 ° 1 min 949 W/m² 11,4 °C 24,9 °C 6,4 km/h (2 Bft)
14.07.2023 11:58 24,2 °C 24,6 °C 56 % 44 % 1017,3 hPa 0,0 l/m² 2,1 km/h (1 Bft) SW 230 ° 1 min 949 W/m² 11,5 °C 24,6 °C 4,8 km/h (1 Bft)
14.07.2023 11:59 24,2 °C 24,3 °C 56 % 44 % 1017,3 hPa 0,0 l/m² 3,9 km/h (1 Bft) SW 218 ° 1 min 949 W/m² 11,3 °C 24,3 °C 11,3 km/h (2 Bft)
14.07.2023 12:00 24,2 °C 24,3 °C 56 % 44 % 1017,2 hPa 0,0 l/m² 15,0 km/h (3 Bft) SW 226 ° 1 min 197 W/m² 11,3 °C 22,5 °C 22,5 km/h (4 Bft)
14.07.2023 12:01 24,2 °C 24,3 °C 56 % 45 % 1017,3 hPa 0,0 l/m² 14,3 km/h (3 Bft) SW 219 ° 1 min 181 W/m² 11,6 °C 22,6 °C 19,3 km/h (3 Bft)
14.07.2023 12:02 24,2 °C 24,3 °C 56 % 44 % 1017,3 hPa 0,0 l/m² 13,3 km/h (3 Bft) S 189 ° 1 min 188 W/m² 11,3 °C 22,7 °C 17,7 km/h (3 Bft)
14.07.2023 12:03 24,2 °C 24,3 °C 56 % 44 % 1017,3 hPa 0,0 l/m² 9,5 km/h (2 Bft) S-SW 205 ° 1 min 278 W/m² 11,3 °C 23,5 °C 12,9 km/h (3 Bft)
14.07.2023 12:04 24,2 °C 24,4 °C 56 % 44 % 1017,3 hPa 0,0 l/m² 6,2 km/h (2 Bft) SW 223 ° 1 min 278 W/m² 11,3 °C 24,4 °C 9,7 km/h (2 Bft)
14.07.2023 12:05 24,2 °C 24,3 °C 56 % 44 % 1017,3 hPa 0,0 l/m² 3,2 km/h (1 Bft) SW 229 ° 1 min 209 W/m² 11,3 °C 24,3 °C 8,0 km/h (2 Bft)
14.07.2023 12:07 24,2 °C 24,6 °C 56 % 45 % 1017,2 hPa 0,0 l/m² 7,1 km/h (2 Bft) S-SW 210 ° 2 min 209 W/m² 11,9 °C 24,4 °C 16,1 km/h (3 Bft)
14.07.2023 12:08 24,2 °C 24,9 °C 56 % 43 % 1017,2 hPa 0,0 l/m² 11,6 km/h (2 Bft) S-SW 211 ° 1 min 953 W/m² 11,4 °C 23,7 °C 16,1 km/h (3 Bft)
14.07.2023 12:09 24,2 °C 25,1 °C 56 % 43 % 1017,2 hPa 0,0 l/m² 9,5 km/h (2 Bft) S 188 ° 1 min 979 W/m² 11,6 °C 24,4 °C 11,3 km/h (2 Bft)
14.07.2023 12:10 24,2 °C 25,1 °C 56 % 42 % 1017,2 hPa 0,0 l/m² 8,0 km/h (2 Bft) S 184 ° 1 min 953 W/m² 11,3 °C 24,7 °C 9,7 km/h (2 Bft)
14.07.2023 12:12 24,2 °C 25,3 °C 56 % 42 % 1017,2 hPa 0,0 l/m² 7,4 km/h (2 Bft) S-SW 205 ° 2 min 923 W/m² 11,5 °C 25,1 °C 14,5 km/h (3 Bft)
14.07.2023 12:13 24,2 °C 25,4 °C 56 % 41 % 1017,2 hPa 0,0 l/m² 6,0 km/h (2 Bft) S 190 ° 1 min 923 W/m² 11,2 °C 25,4 °C 8,0 km/h (2 Bft)
14.07.2023 12:14 24,2 °C 25,3 °C 56 % 41 % 1017,2 hPa 0,0 l/m² 4,6 km/h (1 Bft) S 175 ° 1 min 176 W/m² 11,1 °C 25,3 °C 8,0 km/h (2 Bft)
14.07.2023 12:15 24,2 °C 25,0 °C 56 % 41 % 1017,2 hPa 0,0 l/m² 3,6 km/h (1 Bft) S-SW 200 ° 1 min 216 W/m² 10,8 °C 25,0 °C 6,4 km/h (2 Bft)
14.07.2023 12:17 24,2 °C 24,8 °C 56 % 42 % 1017,0 hPa 0,0 l/m² 3,0 km/h (1 Bft) S 175 ° 2 min 216 W/m² 11,0 °C 24,8 °C 8,0 km/h (2 Bft)
14.07.2023 12:18 24,2 °C 24,8 °C 56 % 43 % 1017,0 hPa 0,0 l/m² 0,7 km/h (0 Bft) S 175 ° 1 min 216 W/m² 11,4 °C 24,8 °C 3,2 km/h (1 Bft)
14.07.2023 12:19 24,2 °C 24,8 °C 56 % 43 % 1017,1 hPa 0,0 l/m² 3,1 km/h (1 Bft) SW 215 ° 1 min 237 W/m² 11,4 °C 24,8 °C 4,8 km/h (1 Bft)
14.07.2023 12:20 24,2 °C 24,9 °C 56 % 43 % 1017,0 hPa 0,0 l/m² 6,6 km/h (2 Bft) S-SW 196 ° 1 min 237 W/m² 11,4 °C 24,9 °C 8,0 km/h (2 Bft)
14.07.2023 12:21 24,2 °C 25,1 °C 56 % 43 % 1017,1 hPa 0,0 l/m² 7,7 km/h (2 Bft) S-SW 198 ° 1 min 1005 W/m² 11,6 °C 24,8 °C 14,5 km/h (3 Bft)
14.07.2023 12:22 24,2 °C 25,3 °C 56 % 42 % 1017,0 hPa 0,0 l/m² 12,6 km/h (3 Bft) S-SW 213 ° 1 min 308 W/m² 11,5 °C 24,0 °C 17,7 km/h (3 Bft)
14.07.2023 12:23 24,2 °C 25,3 °C 56 % 42 % 1017,0 hPa 0,0 l/m² 12,7 km/h (3 Bft) SW 225 ° 1 min 308 W/m² 11,5 °C 24,0 °C 16,1 km/h (3 Bft)
14.07.2023 12:24 24,2 °C 25,2 °C 56 % 42 % 1017,0 hPa 0,0 l/m² 8,9 km/h (2 Bft) W-SW 249 ° 1 min 308 W/m² 11,4 °C 24,6 °C 12,9 km/h (3 Bft)
14.07.2023 12:25 24,2 °C 25,2 °C 56 % 42 % 1017,0 hPa 0,0 l/m² 15,1 km/h (3 Bft) SW 221 ° 1 min 223 W/m² 11,4 °C 23,5 °C 22,5 km/h (4 Bft)
14.07.2023 12:26 24,2 °C 25,1 °C 56 % 42 % 1017,0 hPa 0,0 l/m² 10,4 km/h (2 Bft) W-SW 243 ° 1 min 225 W/m² 11,3 °C 24,2 °C 16,1 km/h (3 Bft)
14.07.2023 12:27 24,2 °C 24,9 °C 55 % 42 % 1017,1 hPa 0,0 l/m² 7,3 km/h (2 Bft) W-SW 244 ° 1 min 229 W/m² 11,1 °C 24,7 °C 12,9 km/h (3 Bft)
14.07.2023 12:28 24,2 °C 24,7 °C 56 % 43 % 1017,0 hPa 0,0 l/m² 10,7 km/h (2 Bft) SW 234 ° 1 min 236 W/m² 11,3 °C 23,7 °C 17,7 km/h (3 Bft)
14.07.2023 12:29 24,2 °C 24,7 °C 56 % 43 % 1017,0 hPa 0,0 l/m² 10,4 km/h (2 Bft) SW 229 ° 1 min 230 W/m² 11,3 °C 23,7 °C 16,1 km/h (3 Bft)
14.07.2023 12:30 24,2 °C 24,6 °C 56 % 43 % 1016,9 hPa 0,0 l/m² 13,0 km/h (3 Bft) SW 227 ° 1 min 230 W/m² 11,2 °C 23,1 °C 17,7 km/h (3 Bft)
14.07.2023 12:31 24,2 °C 24,6 °C 56 % 43 % 1017,0 hPa 0,0 l/m² 11,3 km/h (2 Bft) SW 229 ° 1 min 221 W/m² 11,2 °C 23,5 °C 12,9 km/h (3 Bft)
14.07.2023 12:32 24,2 °C 24,6 °C 56 % 43 % 1017,0 hPa 0,0 l/m² 10,8 km/h (2 Bft) W 265 ° 1 min 223 W/m² 11,2 °C 23,6 °C 14,5 km/h (3 Bft)
14.07.2023 12:33 24,2 °C 24,4 °C 56 % 44 % 1017,0 hPa 0,0 l/m² 6,6 km/h (2 Bft) SW 218 ° 1 min 230 W/m² 11,3 °C 24,4 °C 9,7 km/h (2 Bft)
14.07.2023 12:34 24,2 °C 24,5 °C 56 % 44 % 1017,0 hPa 0,0 l/m² 11,7 km/h (2 Bft) SW 235 ° 1 min 230 W/m² 11,4 °C 23,3 °C 14,5 km/h (3 Bft)
14.07.2023 12:35 24,2 °C 24,4 °C 56 % 44 % 1016,9 hPa 0,0 l/m² 7,5 km/h (2 Bft) SW 214 ° 1 min 283 W/m² 11,3 °C 24,1 °C 9,7 km/h (2 Bft)
14.07.2023 12:36 24,2 °C 24,6 °C 56 % 44 % 1016,8 hPa 0,0 l/m² 13,0 km/h (3 Bft) S 188 ° 1 min 283 W/m² 11,5 °C 23,1 °C 16,1 km/h (3 Bft)
14.07.2023 12:37 24,2 °C 25,0 °C 56 % 44 % 1016,8 hPa 0,0 l/m² 8,7 km/h (2 Bft) SW 223 ° 1 min 283 W/m² 11,9 °C 24,4 °C 9,7 km/h (2 Bft)
14.07.2023 12:38 24,2 °C 25,4 °C 56 % 43 % 1016,8 hPa 0,0 l/m² 6,9 km/h (2 Bft) W-SW 248 ° 1 min 1044 W/m² 11,9 °C 25,3 °C 11,3 km/h (2 Bft)
14.07.2023 12:39 24,2 °C 25,5 °C 56 % 42 % 1016,9 hPa 0,0 l/m² 2,1 km/h (1 Bft) W-SW 247 ° 1 min 1041 W/m² 11,6 °C 25,5 °C 6,4 km/h (2 Bft)
14.07.2023 12:40 24,2 °C 25,5 °C 56 % 43 % 1016,8 hPa 0,0 l/m² 1,9 km/h (1 Bft) W-SW 252 ° 1 min 1048 W/m² 12,0 °C 25,5 °C 3,2 km/h (1 Bft)
14.07.2023 12:41 24,2 °C 25,8 °C 56 % 44 % 1016,8 hPa 0,0 l/m² 1,5 km/h (1 Bft) S-SO 159 ° 1 min 1051 W/m² 12,6 °C 25,8 °C 3,2 km/h (1 Bft)
14.07.2023 12:42 24,2 °C 26,1 °C 56 % 41 % 1016,8 hPa 0,0 l/m² 9,1 km/h (2 Bft) SW 215 ° 1 min 1021 W/m² 11,8 °C 25,5 °C 17,7 km/h (3 Bft)
14.07.2023 12:43 24,2 °C 26,3 °C 56 % 40 % 1016,8 hPa 0,0 l/m² 13,3 km/h (3 Bft) S-SW 211 ° 1 min 1053 W/m² 11,6 °C 25,1 °C 16,1 km/h (3 Bft)
14.07.2023 12:45 24,2 °C 26,1 °C 55 % 40 % 1016,7 hPa 0,0 l/m² 6,8 km/h (2 Bft) S-SW 200 ° 2 min 960 W/m² 11,4 °C 26,0 °C 9,7 km/h (2 Bft)
14.07.2023 12:46 24,2 °C 26,2 °C 55 % 40 % 1016,7 hPa 0,0 l/m² 6,7 km/h (2 Bft) SW 230 ° 1 min 1046 W/m² 11,5 °C 26,1 °C 11,3 km/h (2 Bft)
14.07.2023 12:47 24,2 °C 26,0 °C 56 % 40 % 1016,6 hPa 0,0 l/m² 2,7 km/h (1 Bft) SW 226 ° 1 min 1021 W/m² 11,3 °C 26,0 °C 9,7 km/h (2 Bft)
14.07.2023 12:48 24,2 °C 26,2 °C 56 % 42 % 1016,7 hPa 0,0 l/m² 9,6 km/h (2 Bft) W-SW 252 ° 1 min 995 W/m² 12,3 °C 25,6 °C 14,5 km/h (3 Bft)
14.07.2023 12:49 24,2 °C 26,2 °C 55 % 41 % 1016,6 hPa 0,0 l/m² 15,3 km/h (3 Bft) W-SW 252 ° 1 min 960 W/m² 11,9 °C 24,7 °C 19,3 km/h (3 Bft)
14.07.2023 12:50 24,2 °C 26,3 °C 55 % 41 % 1016,7 hPa 0,0 l/m² 10,3 km/h (2 Bft) W 262 ° 1 min 1099 W/m² 12,0 °C 25,5 °C 14,5 km/h (3 Bft)
14.07.2023 12:51 24,2 °C 26,2 °C 55 % 41 % 1016,6 hPa 0,0 l/m² 1,0 km/h (0 Bft) W-NW 288 ° 1 min 1092 W/m² 11,9 °C 26,2 °C 3,2 km/h (1 Bft)
14.07.2023 12:52 24,2 °C 26,3 °C 55 % 41 % 1016,7 hPa 0,0 l/m² 4,5 km/h (1 Bft) S-SO 155 ° 1 min 1120 W/m² 12,0 °C 26,3 °C 6,4 km/h (2 Bft)
14.07.2023 12:53 24,2 °C 26,2 °C 55 % 40 % 1016,6 hPa 0,0 l/m² 4,5 km/h (1 Bft) SO 141 ° 1 min 1118 W/m² 11,5 °C 26,2 °C 8,0 km/h (2 Bft)
14.07.2023 12:54 24,2 °C 26,2 °C 55 % 39 % 1016,6 hPa 0,0 l/m² 4,3 km/h (1 Bft) SO 125 ° 1 min 1118 W/m² 11,1 °C 26,2 °C 6,4 km/h (2 Bft)
14.07.2023 12:55 24,2 °C 26,2 °C 55 % 40 % 1016,7 hPa 0,0 l/m² 8,0 km/h (2 Bft) SW 233 ° 1 min 1118 W/m² 11,5 °C 25,9 °C 12,9 km/h (3 Bft)
14.07.2023 12:56 24,2 °C 26,4 °C 56 % 40 % 1016,6 hPa 0,0 l/m² 6,4 km/h (2 Bft) SW 219 ° 1 min 1118 W/m² 11,7 °C 26,4 °C 12,9 km/h (3 Bft)
14.07.2023 12:57 24,2 °C 26,4 °C 56 % 39 % 1016,6 hPa 0,0 l/m² 8,5 km/h (2 Bft) W-SW 253 ° 1 min 1009 W/m² 11,3 °C 26,0 °C 11,3 km/h (2 Bft)
14.07.2023 12:58 24,2 °C 26,4 °C 55 % 40 % 1016,6 hPa 0,0 l/m² 4,3 km/h (1 Bft) W-SW 258 ° 1 min 995 W/m² 11,7 °C 26,4 °C 11,3 km/h (2 Bft)
14.07.2023 12:59 24,2 °C 26,4 °C 55 % 39 % 1016,6 hPa 0,0 l/m² 3,1 km/h (1 Bft) SW 223 ° 1 min 1023 W/m² 11,3 °C 26,4 °C 6,4 km/h (2 Bft)
14.07.2023 13:00 24,2 °C 26,6 °C 55 % 40 % 1016,6 hPa 0,0 l/m² 4,9 km/h (1 Bft) W 275 ° 1 min 1078 W/m² 11,9 °C 26,6 °C 9,7 km/h (2 Bft)
14.07.2023 13:01 24,2 °C 26,7 °C 55 % 41 % 1016,6 hPa 0,0 l/m² 6,3 km/h (2 Bft) S-SW 198 ° 1 min 1067 W/m² 12,3 °C 26,7 °C 14,5 km/h (3 Bft)
14.07.2023 13:02 24,2 °C 26,8 °C 55 % 39 % 1016,4 hPa 0,0 l/m² 14,6 km/h (3 Bft) S 181 ° 1 min 1090 W/m² 11,7 °C 25,5 °C 17,7 km/h (3 Bft)
14.07.2023 13:03 24,2 °C 26,8 °C 55 % 38 % 1016,5 hPa 0,0 l/m² 10,9 km/h (2 Bft) S 186 ° 1 min 276 W/m² 11,3 °C 26,0 °C 17,7 km/h (3 Bft)
14.07.2023 13:04 24,2 °C 26,6 °C 55 % 38 % 1016,6 hPa 0,0 l/m² 5,1 km/h (1 Bft) SO 136 ° 1 min 294 W/m² 11,1 °C 26,6 °C 8,0 km/h (2 Bft)
14.07.2023 13:05 24,2 °C 26,5 °C 55 % 39 % 1016,5 hPa 0,0 l/m² 6,5 km/h (2 Bft) S-SW 209 ° 1 min 294 W/m² 11,4 °C 26,5 °C 9,7 km/h (2 Bft)
14.07.2023 13:06 24,2 °C 26,6 °C 55 % 39 % 1016,6 hPa 0,0 l/m² 8,9 km/h (2 Bft) S 184 ° 1 min 294 W/m² 11,5 °C 26,1 °C 12,9 km/h (3 Bft)
14.07.2023 13:07 24,2 °C 26,3 °C 55 % 39 % 1016,6 hPa 0,0 l/m² 13,2 km/h (3 Bft) S 175 ° 1 min 290 W/m² 11,2 °C 25,1 °C 24,1 km/h (4 Bft)
14.07.2023 13:08 24,2 °C 26,2 °C 55 % 39 % 1016,5 hPa 0,0 l/m² 13,9 km/h (3 Bft) S-SW 198 ° 1 min 281 W/m² 11,1 °C 24,9 °C 24,1 km/h (4 Bft)
14.07.2023 13:09 24,2 °C 26,1 °C 55 % 39 % 1016,5 hPa 0,0 l/m² 12,1 km/h (2 Bft) S 187 ° 1 min 279 W/m² 11,0 °C 25,0 °C 16,1 km/h (3 Bft)
14.07.2023 13:10 24,2 °C 26,1 °C 55 % 39 % 1016,4 hPa 0,0 l/m² 13,9 km/h (3 Bft) S 178 ° 1 min 274 W/m² 11,0 °C 24,8 °C 17,7 km/h (3 Bft)
14.07.2023 13:11 24,2 °C 25,9 °C 55 % 39 % 1016,5 hPa 0,0 l/m² 10,7 km/h (2 Bft) S 189 ° 1 min 274 W/m² 10,9 °C 25,0 °C 14,5 km/h (3 Bft)
14.07.2023 13:12 24,2 °C 25,9 °C 55 % 39 % 1016,5 hPa 0,0 l/m² 9,5 km/h (2 Bft) S-SW 205 ° 1 min 271 W/m² 10,9 °C 25,2 °C 11,3 km/h (2 Bft)
14.07.2023 13:13 24,2 °C 25,8 °C 55 % 39 % 1016,5 hPa 0,0 l/m² 5,8 km/h (2 Bft) SW 215 ° 1 min 271 W/m² 10,8 °C 25,8 °C 9,7 km/h (2 Bft)
14.07.2023 13:14 24,2 °C 25,5 °C 55 % 40 % 1016,4 hPa 0,0 l/m² 5,4 km/h (2 Bft) SW 232 ° 1 min 267 W/m² 10,9 °C 25,5 °C 8,0 km/h (2 Bft)
14.07.2023 13:15 24,2 °C 25,5 °C 55 % 40 % 1016,4 hPa 0,0 l/m² 6,2 km/h (2 Bft) S-SO 155 ° 1 min 274 W/m² 10,9 °C 25,5 °C 9,7 km/h (2 Bft)
14.07.2023 13:16 24,2 °C 25,4 °C 55 % 40 % 1016,5 hPa 0,0 l/m² 6,9 km/h (2 Bft) S-SO 156 ° 1 min 313 W/m² 10,8 °C 25,3 °C 9,7 km/h (2 Bft)
14.07.2023 13:17 24,2 °C 25,4 °C 55 % 40 % 1016,4 hPa 0,0 l/m² 5,0 km/h (1 Bft) S-SO 161 ° 1 min 313 W/m² 10,8 °C 25,4 °C 8,0 km/h (2 Bft)
14.07.2023 13:18 24,2 °C 25,6 °C 55 % 40 % 1016,4 hPa 0,0 l/m² 7,2 km/h (2 Bft) S-SO 165 ° 1 min 1030 W/m² 11,0 °C 25,4 °C 9,7 km/h (2 Bft)
14.07.2023 13:19 24,2 °C 25,7 °C 55 % 40 % 1016,3 hPa 0,0 l/m² 6,4 km/h (2 Bft) SO 136 ° 1 min 1004 W/m² 11,1 °C 25,7 °C 12,9 km/h (3 Bft)
14.07.2023 13:20 24,2 °C 25,9 °C 55 % 40 % 1016,4 hPa 0,0 l/m² 9,5 km/h (2 Bft) W-SW 252 ° 1 min 1004 W/m² 11,3 °C 25,2 °C 12,9 km/h (3 Bft)
14.07.2023 13:21 24,2 °C 26,3 °C 55 % 40 % 1016,4 hPa 0,0 l/m² 12,0 km/h (2 Bft) SW 229 ° 1 min 1004 W/m² 11,6 °C 25,3 °C 14,5 km/h (3 Bft)
14.07.2023 13:22 24,2 °C 26,4 °C 55 % 39 % 1016,4 hPa 0,0 l/m² 13,0 km/h (3 Bft) S 189 ° 1 min 1004 W/m² 11,3 °C 25,3 °C 14,5 km/h (3 Bft)
14.07.2023 13:23 24,2 °C 26,2 °C 55 % 38 % 1016,4 hPa 0,0 l/m² 11,7 km/h (2 Bft) S-SO 167 ° 1 min 1004 W/m² 10,7 °C 25,2 °C 16,1 km/h (3 Bft)
14.07.2023 13:24 24,2 °C 26,1 °C 55 % 39 % 1016,4 hPa 0,0 l/m² 9,3 km/h (2 Bft) W-SW 242 ° 1 min 359 W/m² 11,0 °C 25,5 °C 14,5 km/h (3 Bft)
14.07.2023 13:25 24,2 °C 26,2 °C 55 % 39 % 1016,4 hPa 0,0 l/m² 9,8 km/h (2 Bft) SW 221 ° 1 min 1095 W/m² 11,1 °C 25,5 °C 12,9 km/h (3 Bft)
14.07.2023 13:26 24,2 °C 26,5 °C 55 % 39 % 1016,4 hPa 0,0 l/m² 7,4 km/h (2 Bft) S-SW 204 ° 1 min 1095 W/m² 11,4 °C 26,3 °C 9,7 km/h (2 Bft)
14.07.2023 13:27 24,2 °C 26,4 °C 55 % 38 % 1016,3 hPa 0,0 l/m² 8,0 km/h (2 Bft) S-SW 201 ° 1 min 1095 W/m² 10,9 °C 26,1 °C 9,7 km/h (2 Bft)
14.07.2023 13:28 24,2 °C 26,2 °C 55 % 38 % 1016,3 hPa 0,0 l/m² 5,4 km/h (2 Bft) SW 230 ° 1 min 295 W/m² 10,7 °C 26,2 °C 9,7 km/h (2 Bft)
14.07.2023 13:29 24,2 °C 25,9 °C 55 % 39 % 1016,3 hPa 0,0 l/m² 5,2 km/h (1 Bft) S-SO 153 ° 1 min 313 W/m² 10,9 °C 25,9 °C 8,0 km/h (2 Bft)
14.07.2023 13:30 24,2 °C 25,8 °C 55 % 39 % 1016,4 hPa 0,0 l/m² 4,1 km/h (1 Bft) S-SO 153 ° 1 min 313 W/m² 10,8 °C 25,8 °C 8,0 km/h (2 Bft)
14.07.2023 13:31 24,2 °C 25,6 °C 55 % 39 % 1016,4 hPa 0,0 l/m² 0,2 km/h (0 Bft) S-SO 153 ° 1 min 1034 W/m² 10,6 °C 25,6 °C 1,6 km/h (1 Bft)
14.07.2023 13:32 24,2 °C 25,8 °C 55 % 40 % 1016,2 hPa 0,0 l/m² 0,0 km/h (0 Bft) S-SO 153 ° 1 min 1053 W/m² 11,2 °C 25,8 °C 0,0 km/h (0 Bft)
14.07.2023 13:33 24,2 °C 26,1 °C 55 % 41 % 1016,3 hPa 0,0 l/m² 1,3 km/h (1 Bft) O-SO 115 ° 1 min 1053 W/m² 11,8 °C 26,1 °C 3,2 km/h (1 Bft)
14.07.2023 13:34 24,2 °C 26,5 °C 55 % 40 % 1016,2 hPa 0,0 l/m² 6,3 km/h (2 Bft) O 86 ° 1 min 1056 W/m² 11,8 °C 26,5 °C 8,0 km/h (2 Bft)
14.07.2023 13:35 24,2 °C 26,7 °C 55 % 39 % 1016,2 hPa 0,0 l/m² 7,5 km/h (2 Bft) O-NO 71 ° 1 min 1056 W/m² 11,6 °C 26,5 °C 11,3 km/h (2 Bft)
14.07.2023 13:36 24,2 °C 26,7 °C 55 % 38 % 1016,2 hPa 0,0 l/m² 8,5 km/h (2 Bft) O 86 ° 1 min 1056 W/m² 11,2 °C 26,3 °C 11,3 km/h (2 Bft)
14.07.2023 13:37 24,2 °C 26,7 °C 55 % 38 % 1016,2 hPa 0,0 l/m² 9,7 km/h (2 Bft) O 90 ° 1 min 441 W/m² 11,2 °C 26,1 °C 11,3 km/h (2 Bft)
14.07.2023 13:38 24,2 °C 26,8 °C 55 % 39 % 1016,3 hPa 0,0 l/m² 9,8 km/h (2 Bft) O-SO 105 ° 1 min 441 W/m² 11,7 °C 26,2 °C 11,3 km/h (2 Bft)
14.07.2023 13:39 24,2 °C 26,8 °C 55 % 38 % 1016,2 hPa 0,0 l/m² 7,1 km/h (2 Bft) O-SO 113 ° 1 min 636 W/m² 11,3 °C 26,7 °C 14,5 km/h (3 Bft)
14.07.2023 13:40 24,2 °C 26,7 °C 55 % 38 % 1016,2 hPa 0,0 l/m² 6,4 km/h (2 Bft) SO 128 ° 1 min 636 W/m² 11,2 °C 26,7 °C 9,7 km/h (2 Bft)
14.07.2023 13:41 24,2 °C 26,5 °C 55 % 38 % 1016,1 hPa 0,0 l/m² 6,0 km/h (2 Bft) S-SW 209 ° 1 min 636 W/m² 11,0 °C 26,5 °C 12,9 km/h (3 Bft)
14.07.2023 13:42 24,2 °C 26,4 °C 55 % 37 % 1016,1 hPa 0,0 l/m² 6,9 km/h (2 Bft) S 182 ° 1 min 636 W/m² 10,5 °C 26,3 °C 9,7 km/h (2 Bft)
14.07.2023 13:43 24,2 °C 26,3 °C 55 % 38 % 1016,1 hPa 0,0 l/m² 5,3 km/h (1 Bft) S-SW 200 ° 1 min 636 W/m² 10,8 °C 26,3 °C 8,0 km/h (2 Bft)
14.07.2023 13:44 24,2 °C 26,2 °C 55 % 38 % 1016,1 hPa 0,0 l/m² 5,7 km/h (2 Bft) W-SW 257 ° 1 min 879 W/m² 10,7 °C 26,2 °C 12,9 km/h (3 Bft)
14.07.2023 13:45 24,2 °C 26,4 °C 55 % 40 % 1016,1 hPa 0,0 l/m² 11,4 km/h (2 Bft) S-SO 161 ° 1 min 879 W/m² 11,7 °C 25,5 °C 20,9 km/h (4 Bft)
14.07.2023 13:46 24,2 °C 26,7 °C 55 % 37 % 1016,1 hPa 0,0 l/m² 12,8 km/h (3 Bft) SW 219 ° 1 min 717 W/m² 10,8 °C 25,6 °C 16,1 km/h (3 Bft)
14.07.2023 13:47 24,2 °C 26,8 °C 55 % 37 % 1016,1 hPa 0,0 l/m² 17,8 km/h (3 Bft) S 178 ° 1 min 763 W/m² 10,9 °C 25,2 °C 24,1 km/h (4 Bft)
14.07.2023 13:48 24,2 °C 27,1 °C 55 % 37 % 1016,1 hPa 0,0 l/m² 12,9 km/h (3 Bft) S-SW 209 ° 1 min 765 W/m² 11,1 °C 26,1 °C 17,7 km/h (3 Bft)
14.07.2023 13:49 24,2 °C 27,1 °C 55 % 36 % 1016,1 hPa 0,0 l/m² 9,2 km/h (2 Bft) SW 231 ° 1 min 694 W/m² 10,7 °C 26,6 °C 16,1 km/h (3 Bft)
14.07.2023 13:50 24,2 °C 27,1 °C 55 % 37 % 1016,1 hPa 0,0 l/m² 13,9 km/h (3 Bft) W-SW 247 ° 1 min 722 W/m² 11,1 °C 26,0 °C 17,7 km/h (3 Bft)
14.07.2023 13:51 24,2 °C 26,9 °C 55 % 36 % 1016,1 hPa 0,0 l/m² 10,8 km/h (2 Bft) SW 214 ° 1 min 657 W/m² 10,6 °C 26,1 °C 12,9 km/h (3 Bft)
14.07.2023 13:52 24,2 °C 26,7 °C 55 % 37 % 1016,1 hPa 0,0 l/m² 9,3 km/h (2 Bft) SW 217 ° 1 min 726 W/m² 10,8 °C 26,2 °C 12,9 km/h (3 Bft)
14.07.2023 13:53 24,2 °C 26,8 °C 55 % 37 % 1016,1 hPa 0,0 l/m² 12,6 km/h (3 Bft) S-SW 207 ° 1 min 789 W/m² 10,9 °C 25,8 °C 16,1 km/h (3 Bft)
14.07.2023 13:54 24,2 °C 26,8 °C 55 % 37 % 1016,1 hPa 0,0 l/m² 15,0 km/h (3 Bft) S-SW 192 ° 1 min 779 W/m² 10,9 °C 25,5 °C 17,7 km/h (3 Bft)
14.07.2023 13:55 24,2 °C 26,8 °C 55 % 36 % 1016,0 hPa 0,0 l/m² 14,4 km/h (3 Bft) S-SW 192 ° 1 min 882 W/m² 10,5 °C 25,6 °C 17,7 km/h (3 Bft)
14.07.2023 13:56 24,2 °C 26,8 °C 55 % 36 % 1016,1 hPa 0,0 l/m² 10,9 km/h (2 Bft) SW 214 ° 1 min 882 W/m² 10,5 °C 26,0 °C 14,5 km/h (3 Bft)
14.07.2023 13:57 24,2 °C 26,9 °C 55 % 37 % 1016,1 hPa 0,0 l/m² 6,7 km/h (2 Bft) SW 230 ° 1 min 882 W/m² 11,0 °C 26,8 °C 8,0 km/h (2 Bft)
14.07.2023 13:58 24,2 °C 26,8 °C 55 % 37 % 1016,0 hPa 0,0 l/m² 9,6 km/h (2 Bft) W-SW 257 ° 1 min 882 W/m² 10,9 °C 26,2 °C 12,9 km/h (3 Bft)
14.07.2023 13:59 24,2 °C 26,6 °C 55 % 37 % 1015,9 hPa 0,0 l/m² 5,0 km/h (1 Bft) W-SW 238 ° 1 min 882 W/m² 10,7 °C 26,6 °C 9,7 km/h (2 Bft)
14.07.2023 14:00 24,2 °C 26,5 °C 55 % 38 % 1016,0 hPa 0,0 l/m² 4,2 km/h (1 Bft) W-SW 258 ° 1 min 882 W/m² 11,0 °C 26,5 °C 6,4 km/h (2 Bft)
14.07.2023 14:01 24,2 °C 26,4 °C 55 % 37 % 1016,0 hPa 0,0 l/m² 5,8 km/h (2 Bft) S-SW 194 ° 1 min 309 W/m² 10,5 °C 26,4 °C 8,0 km/h (2 Bft)
14.07.2023 14:02 24,2 °C 26,4 °C 55 % 37 % 1016,0 hPa 0,0 l/m² 10,5 km/h (2 Bft) S 173 ° 1 min 309 W/m² 10,5 °C 25,6 °C 16,1 km/h (3 Bft)
14.07.2023 14:03 24,2 °C 26,6 °C 55 % 37 % 1016,1 hPa 0,0 l/m² 8,2 km/h (2 Bft) S-SO 149 ° 1 min 309 W/m² 10,7 °C 26,2 °C 11,3 km/h (2 Bft)
14.07.2023 14:04 24,2 °C 26,6 °C 55 % 37 % 1016,0 hPa 0,0 l/m² 10,4 km/h (2 Bft) S-SW 198 ° 1 min 309 W/m² 10,7 °C 25,9 °C 16,1 km/h (3 Bft)
14.07.2023 14:05 24,2 °C 26,8 °C 55 % 37 % 1015,9 hPa 0,0 l/m² 10,9 km/h (2 Bft) S-SW 198 ° 1 min 309 W/m² 10,9 °C 26,0 °C 12,9 km/h (3 Bft)
14.07.2023 14:07 24,2 °C 27,2 °C 55 % 36 % 1016,0 hPa 0,0 l/m² 13,3 km/h (3 Bft) S 190 ° 2 min 909 W/m² 10,8 °C 26,2 °C 19,3 km/h (3 Bft)
14.07.2023 14:08 24,2 °C 27,1 °C 55 % 36 % 1016,0 hPa 0,0 l/m² 11,9 km/h (2 Bft) S-SW 207 ° 1 min 863 W/m² 10,7 °C 26,2 °C 17,7 km/h (3 Bft)
14.07.2023 14:09 24,2 °C 27,1 °C 55 % 37 % 1016,0 hPa 0,0 l/m² 11,3 km/h (2 Bft) S-SW 207 ° 1 min 863 W/m² 11,1 °C 26,3 °C 17,7 km/h (3 Bft)
14.07.2023 14:10 24,2 °C 26,9 °C 55 % 36 % 1016,0 hPa 0,0 l/m² 12,5 km/h (2 Bft) SW 217 ° 1 min 881 W/m² 10,6 °C 25,9 °C 16,1 km/h (3 Bft)
14.07.2023 14:11 24,2 °C 26,8 °C 55 % 36 % 1016,0 hPa 0,0 l/m² 7,9 km/h (2 Bft) S 187 ° 1 min 849 W/m² 10,5 °C 26,5 °C 12,9 km/h (3 Bft)
14.07.2023 14:12 24,2 °C 26,8 °C 55 % 37 % 1015,9 hPa 0,0 l/m² 5,7 km/h (2 Bft) SW 225 ° 1 min 846 W/m² 10,9 °C 26,8 °C 9,7 km/h (2 Bft)
14.07.2023 14:13 24,2 °C 26,9 °C 55 % 38 % 1015,9 hPa 0,0 l/m² 8,8 km/h (2 Bft) W-SW 238 ° 1 min 846 W/m² 11,4 °C 26,5 °C 16,1 km/h (3 Bft)
14.07.2023 14:14 24,2 °C 26,8 °C 55 % 37 % 1015,8 hPa 0,0 l/m² 3,5 km/h (1 Bft) SW 228 ° 1 min 846 W/m² 10,9 °C 26,8 °C 12,9 km/h (3 Bft)
14.07.2023 14:15 24,2 °C 26,8 °C 55 % 37 % 1015,8 hPa 0,0 l/m² 7,9 km/h (2 Bft) W-SW 244 ° 1 min 846 W/m² 10,9 °C 26,5 °C 11,3 km/h (2 Bft)
14.07.2023 14:16 24,2 °C 26,7 °C 55 % 38 % 1015,8 hPa 0,0 l/m² 5,6 km/h (2 Bft) SW 236 ° 1 min 923 W/m² 11,2 °C 26,7 °C 8,0 km/h (2 Bft)
14.07.2023 14:17 24,2 °C 26,8 °C 55 % 38 % 1015,8 hPa 0,0 l/m² 6,7 km/h (2 Bft) W-SW 256 ° 1 min 949 W/m² 11,3 °C 26,7 °C 11,3 km/h (2 Bft)
14.07.2023 14:18 24,2 °C 27,0 °C 55 % 38 % 1015,8 hPa 0,0 l/m² 6,7 km/h (2 Bft) SW 217 ° 1 min 988 W/m² 11,5 °C 26,9 °C 11,3 km/h (2 Bft)
14.07.2023 14:19 24,2 °C 27,1 °C 55 % 36 % 1015,8 hPa 0,0 l/m² 8,8 km/h (2 Bft) SW 236 ° 1 min 960 W/m² 10,7 °C 26,7 °C 11,3 km/h (2 Bft)
14.07.2023 14:20 24,2 °C 27,1 °C 55 % 37 % 1015,8 hPa 0,0 l/m² 5,8 km/h (2 Bft) W-SW 250 ° 1 min 976 W/m² 11,1 °C 27,1 °C 9,7 km/h (2 Bft)
14.07.2023 14:21 24,2 °C 27,0 °C 55 % 37 % 1015,8 hPa 0,0 l/m² 2,3 km/h (1 Bft) W-SW 242 ° 1 min 911 W/m² 11,1 °C 27,0 °C 6,4 km/h (2 Bft)
14.07.2023 14:22 24,2 °C 26,8 °C 55 % 36 % 1015,8 hPa 0,0 l/m² 3,2 km/h (1 Bft) S-SO 148 ° 1 min 840 W/m² 10,5 °C 26,8 °C 4,8 km/h (1 Bft)
14.07.2023 14:23 24,2 °C 26,6 °C 55 % 37 % 1015,8 hPa 0,0 l/m² 4,7 km/h (1 Bft) S-SO 163 ° 1 min 858 W/m² 10,7 °C 26,6 °C 9,7 km/h (2 Bft)
14.07.2023 14:24 24,2 °C 26,7 °C 55 % 37 % 1015,7 hPa 0,0 l/m² 9,3 km/h (2 Bft) SO 125 ° 1 min 986 W/m² 10,8 °C 26,2 °C 12,9 km/h (3 Bft)
14.07.2023 14:25 24,2 °C 26,8 °C 55 % 37 % 1015,8 hPa 0,0 l/m² 8,9 km/h (2 Bft) S-SO 158 ° 1 min 1028 W/m² 10,9 °C 26,3 °C 12,9 km/h (3 Bft)
14.07.2023 14:26 24,2 °C 27,0 °C 55 % 36 % 1015,8 hPa 0,0 l/m² 8,0 km/h (2 Bft) S 175 ° 1 min 1041 W/m² 10,6 °C 26,7 °C 11,3 km/h (2 Bft)
14.07.2023 14:27 24,2 °C 27,3 °C 55 % 36 % 1015,7 hPa 0,0 l/m² 13,1 km/h (3 Bft) S 188 ° 1 min 1042 W/m² 10,9 °C 26,3 °C 17,7 km/h (3 Bft)
14.07.2023 14:28 24,2 °C 27,9 °C 55 % 35 % 1015,7 hPa 0,0 l/m² 10,3 km/h (2 Bft) S 191 ° 1 min 1035 W/m² 11,0 °C 27,3 °C 14,5 km/h (3 Bft)
14.07.2023 14:29 24,2 °C 28,2 °C 55 % 34 % 1015,7 hPa 0,0 l/m² 12,5 km/h (2 Bft) S-SW 194 ° 1 min 1016 W/m² 10,8 °C 27,4 °C 16,1 km/h (3 Bft)
14.07.2023 14:30 24,2 °C 28,3 °C 55 % 34 % 1015,8 hPa 0,0 l/m² 14,3 km/h (3 Bft) S-SO 162 ° 1 min 972 W/m² 10,9 °C 27,4 °C 22,5 km/h (4 Bft)
14.07.2023 14:31 24,2 °C 28,2 °C 55 % 35 % 1015,8 hPa 0,0 l/m² 13,3 km/h (3 Bft) S-SW 205 ° 1 min 905 W/m² 11,3 °C 27,3 °C 17,7 km/h (3 Bft)
14.07.2023 14:32 24,2 °C 28,1 °C 55 % 34 % 1015,8 hPa 0,0 l/m² 13,6 km/h (3 Bft) S-SW 192 ° 1 min 856 W/m² 10,7 °C 27,2 °C 14,5 km/h (3 Bft)
14.07.2023 14:33 24,2 °C 27,8 °C 55 % 34 % 1015,8 hPa 0,0 l/m² 9,3 km/h (2 Bft) S-SW 206 ° 1 min 856 W/m² 10,5 °C 27,4 °C 12,9 km/h (3 Bft)
14.07.2023 14:34 24,2 °C 27,6 °C 55 % 35 % 1015,7 hPa 0,0 l/m² 15,2 km/h (3 Bft) SW 215 ° 1 min 856 W/m² 10,7 °C 26,4 °C 17,7 km/h (3 Bft)
14.07.2023 14:35 24,2 °C 27,4 °C 55 % 35 % 1015,7 hPa 0,0 l/m² 16,0 km/h (3 Bft) SW 214 ° 1 min 995 W/m² 10,6 °C 26,1 °C 20,9 km/h (4 Bft)
14.07.2023 14:36 24,2 °C 27,5 °C 55 % 35 % 1015,7 hPa 0,0 l/m² 14,1 km/h (3 Bft) S-SW 196 ° 1 min 946 W/m² 10,7 °C 26,4 °C 17,7 km/h (3 Bft)
14.07.2023 14:37 24,2 °C 27,4 °C 55 % 34 % 1015,7 hPa 0,0 l/m² 8,2 km/h (2 Bft) SW 215 ° 1 min 914 W/m² 10,1 °C 27,1 °C 12,9 km/h (3 Bft)
14.07.2023 14:38 24,2 °C 27,1 °C 55 % 35 % 1015,7 hPa 0,0 l/m² 1,9 km/h (1 Bft) W-NW 297 ° 1 min 998 W/m² 10,3 °C 27,1 °C 8,0 km/h (2 Bft)
14.07.2023 14:39 24,3 °C 26,8 °C 55 % 36 % 1015,6 hPa 0,0 l/m² 1,4 km/h (1 Bft) S 176 ° 1 min 998 W/m² 10,5 °C 26,8 °C 3,2 km/h (1 Bft)
14.07.2023 14:40 24,2 °C 26,8 °C 55 % 36 % 1015,6 hPa 0,0 l/m² 4,0 km/h (1 Bft) S-SO 148 ° 1 min 336 W/m² 10,5 °C 26,8 °C 9,7 km/h (2 Bft)
14.07.2023 14:41 24,2 °C 26,9 °C 55 % 36 % 1015,6 hPa 0,0 l/m² 9,2 km/h (2 Bft) SO 128 ° 1 min 881 W/m² 10,6 °C 26,4 °C 12,9 km/h (3 Bft)
14.07.2023 14:42 24,3 °C 26,9 °C 55 % 36 % 1015,6 hPa 0,0 l/m² 5,4 km/h (2 Bft) SO 146 ° 1 min 889 W/m² 10,6 °C 26,9 °C 12,9 km/h (3 Bft)
14.07.2023 14:43 24,2 °C 26,9 °C 55 % 35 % 1015,6 hPa 0,0 l/m² 9,6 km/h (2 Bft) S-SO 148 ° 1 min 946 W/m² 10,1 °C 26,3 °C 16,1 km/h (3 Bft)
14.07.2023 14:44 24,2 °C 27,1 °C 55 % 36 % 1015,5 hPa 0,0 l/m² 13,2 km/h (3 Bft) S-SO 165 ° 1 min 965 W/m² 10,7 °C 26,1 °C 17,7 km/h (3 Bft)
14.07.2023 14:45 24,2 °C 27,2 °C 55 % 36 % 1015,5 hPa 0,0 l/m² 10,4 km/h (2 Bft) SO 142 ° 1 min 958 W/m² 10,8 °C 26,5 °C 14,5 km/h (3 Bft)
14.07.2023 14:46 24,2 °C 27,4 °C 55 % 35 % 1015,6 hPa 0,0 l/m² 10,3 km/h (2 Bft) O-SO 122 ° 1 min 923 W/m² 10,6 °C 26,8 °C 14,5 km/h (3 Bft)
14.07.2023 14:47 24,2 °C 27,6 °C 55 % 35 % 1015,6 hPa 0,0 l/m² 11,2 km/h (2 Bft) SO 126 ° 1 min 1018 W/m² 10,7 °C 26,9 °C 12,9 km/h (3 Bft)
14.07.2023 14:48 24,2 °C 27,3 °C 55 % 35 % 1015,6 hPa 0,0 l/m² 6,2 km/h (2 Bft) S 186 ° 1 min 1009 W/m² 10,5 °C 27,3 °C 9,7 km/h (2 Bft)
14.07.2023 14:49 24,2 °C 27,2 °C 55 % 35 % 1015,5 hPa 0,0 l/m² 4,3 km/h (1 Bft) SO 128 ° 1 min 1000 W/m² 10,4 °C 27,2 °C 6,4 km/h (2 Bft)
14.07.2023 14:50 24,2 °C 27,2 °C 55 % 35 % 1015,5 hPa 0,0 l/m² 2,6 km/h (1 Bft) S-SO 148 ° 1 min 979 W/m² 10,4 °C 27,2 °C 4,8 km/h (1 Bft)
14.07.2023 14:51 24,2 °C 27,2 °C 55 % 35 % 1015,5 hPa 0,0 l/m² 4,1 km/h (1 Bft) S 173 ° 1 min 1041 W/m² 10,4 °C 27,2 °C 9,7 km/h (2 Bft)
14.07.2023 14:52 24,2 °C 27,1 °C 55 % 36 % 1015,5 hPa 0,0 l/m² 10,5 km/h (2 Bft) SW 227 ° 1 min 1041 W/m² 10,7 °C 26,4 °C 16,1 km/h (3 Bft)
14.07.2023 14:53 24,2 °C 27,4 °C 55 % 36 % 1015,5 hPa 0,0 l/m² 10,6 km/h (2 Bft) W 267 ° 1 min 1041 W/m² 11,0 °C 26,7 °C 19,3 km/h (3 Bft)
14.07.2023 14:54 24,2 °C 27,4 °C 55 % 36 % 1015,5 hPa 0,0 l/m² 5,6 km/h (2 Bft) SW 227 ° 1 min 1041 W/m² 11,0 °C 27,4 °C 12,9 km/h (3 Bft)
14.07.2023 14:55 24,2 °C 27,3 °C 55 % 35 % 1015,4 hPa 0,0 l/m² 4,5 km/h (1 Bft) W 265 ° 1 min 341 W/m² 10,5 °C 27,3 °C 9,7 km/h (2 Bft)
14.07.2023 14:56 24,2 °C 27,1 °C 55 % 36 % 1015,4 hPa 0,0 l/m² 4,1 km/h (1 Bft) W 281 ° 1 min 341 W/m² 10,7 °C 27,1 °C 6,4 km/h (2 Bft)
14.07.2023 14:57 24,2 °C 26,9 °C 55 % 36 % 1015,4 hPa 0,0 l/m² 1,1 km/h (1 Bft) W-NW 287 ° 1 min 341 W/m² 10,6 °C 26,9 °C 6,4 km/h (2 Bft)
14.07.2023 14:58 24,3 °C 26,9 °C 55 % 36 % 1015,4 hPa 0,0 l/m² 3,2 km/h (1 Bft) SW 234 ° 1 min 341 W/m² 10,6 °C 26,9 °C 4,8 km/h (1 Bft)
14.07.2023 14:59 24,2 °C 27,1 °C 55 % 37 % 1015,4 hPa 0,0 l/m² 6,4 km/h (2 Bft) W-NW 302 ° 1 min 316 W/m² 11,1 °C 27,1 °C 11,3 km/h (2 Bft)
14.07.2023 15:00 24,2 °C 27,0 °C 55 % 36 % 1015,4 hPa 0,0 l/m² 5,1 km/h (1 Bft) W 270 ° 1 min 309 W/m² 10,6 °C 27,0 °C 9,7 km/h (2 Bft)
14.07.2023 15:02 24,3 °C 26,8 °C 55 % 36 % 1015,3 hPa 0,0 l/m² 1,1 km/h (1 Bft) S-SO 151 ° 2 min 313 W/m² 10,5 °C 26,8 °C 6,4 km/h (2 Bft)
14.07.2023 15:03 24,3 °C 26,8 °C 55 % 36 % 1015,3 hPa 0,0 l/m² 9,9 km/h (2 Bft) S-SW 193 ° 1 min 306 W/m² 10,5 °C 26,2 °C 12,9 km/h (3 Bft)
14.07.2023 15:04 24,2 °C 26,7 °C 55 % 36 % 1015,3 hPa 0,0 l/m² 9,4 km/h (2 Bft) S-SO 168 ° 1 min 339 W/m² 10,4 °C 26,1 °C 11,3 km/h (2 Bft)
14.07.2023 15:05 24,2 °C 26,7 °C 55 % 36 % 1015,4 hPa 0,0 l/m² 8,9 km/h (2 Bft) S 177 ° 1 min 292 W/m² 10,4 °C 26,2 °C 14,5 km/h (3 Bft)
14.07.2023 15:07 24,3 °C 26,6 °C 55 % 37 % 1015,3 hPa 0,0 l/m² 9,7 km/h (2 Bft) S-SO 164 ° 2 min 271 W/m² 10,7 °C 26,0 °C 12,9 km/h (3 Bft)
14.07.2023 15:08 24,3 °C 26,4 °C 55 % 37 % 1015,3 hPa 0,0 l/m² 7,0 km/h (2 Bft) S-SO 164 ° 1 min 265 W/m² 10,5 °C 26,3 °C 9,7 km/h (2 Bft)
14.07.2023 15:09 24,2 °C 26,3 °C 55 % 37 % 1015,4 hPa 0,0 l/m² 3,2 km/h (1 Bft) S-SO 162 ° 1 min 260 W/m² 10,4 °C 26,3 °C 6,4 km/h (2 Bft)
14.07.2023 15:10 24,3 °C 26,3 °C 55 % 37 % 1015,3 hPa 0,0 l/m² 4,0 km/h (1 Bft) S-SO 163 ° 1 min 257 W/m² 10,4 °C 26,3 °C 6,4 km/h (2 Bft)
14.07.2023 15:11 24,3 °C 26,1 °C 55 % 37 % 1015,3 hPa 0,0 l/m² 3,0 km/h (1 Bft) S 189 ° 1 min 271 W/m² 10,3 °C 26,1 °C 4,8 km/h (1 Bft)
14.07.2023 15:12 24,2 °C 26,0 °C 55 % 37 % 1015,3 hPa 0,0 l/m² 1,8 km/h (1 Bft) S 189 ° 1 min 294 W/m² 10,2 °C 26,0 °C 3,2 km/h (1 Bft)
14.07.2023 15:13 24,3 °C 26,0 °C 55 % 38 % 1015,3 hPa 0,0 l/m² 1,3 km/h (1 Bft) S 189 ° 1 min 294 W/m² 10,6 °C 26,0 °C 4,8 km/h (1 Bft)
14.07.2023 15:14 24,2 °C 26,1 °C 55 % 38 % 1015,2 hPa 0,0 l/m² 4,0 km/h (1 Bft) S-SW 213 ° 1 min 294 W/m² 10,7 °C 26,1 °C 4,8 km/h (1 Bft)
14.07.2023 15:15 24,3 °C 26,1 °C 55 % 38 % 1015,2 hPa 0,0 l/m² 1,5 km/h (1 Bft) S-SW 209 ° 1 min 297 W/m² 10,7 °C 26,1 °C 6,4 km/h (2 Bft)
14.07.2023 15:17 24,3 °C 26,3 °C 55 % 38 % 1015,2 hPa 0,0 l/m² 2,0 km/h (1 Bft) SO 126 ° 2 min 343 W/m² 10,8 °C 26,3 °C 4,8 km/h (1 Bft)
14.07.2023 15:18 24,3 °C 26,3 °C 55 % 37 % 1015,2 hPa 0,0 l/m² 1,3 km/h (1 Bft) SO 126 ° 1 min 385 W/m² 10,4 °C 26,3 °C 4,8 km/h (1 Bft)
14.07.2023 15:19 24,3 °C 26,3 °C 55 % 37 % 1015,1 hPa 0,0 l/m² 0,1 km/h (0 Bft) SO 126 ° 1 min 390 W/m² 10,4 °C 26,3 °C 1,6 km/h (1 Bft)
14.07.2023 15:20 24,3 °C 26,4 °C 55 % 38 % 1015,2 hPa 0,0 l/m² 2,3 km/h (1 Bft) O 92 ° 1 min 411 W/m² 10,9 °C 26,4 °C 9,7 km/h (2 Bft)
14.07.2023 15:21 24,3 °C 26,6 °C 55 % 37 % 1015,2 hPa 0,0 l/m² 2,4 km/h (1 Bft) O 87 ° 1 min 392 W/m² 10,7 °C 26,6 °C 6,4 km/h (2 Bft)
14.07.2023 15:22 24,3 °C 26,7 °C 55 % 38 % 1015,1 hPa 0,0 l/m² 0,1 km/h (0 Bft) O 87 ° 1 min 392 W/m² 11,2 °C 26,7 °C 1,6 km/h (1 Bft)
14.07.2023 15:23 24,2 °C 26,8 °C 55 % 38 % 1015,2 hPa 0,0 l/m² 1,7 km/h (1 Bft) SO 126 ° 1 min 392 W/m² 11,3 °C 26,8 °C 4,8 km/h (1 Bft)
14.07.2023 15:24 24,3 °C 27,2 °C 55 % 38 % 1015,1 hPa 0,0 l/m² 2,8 km/h (1 Bft) O-NO 60 ° 1 min 327 W/m² 11,6 °C 27,2 °C 6,4 km/h (2 Bft)
14.07.2023 15:25 24,3 °C 27,3 °C 55 % 37 % 1015,1 hPa 0,0 l/m² 6,0 km/h (2 Bft) O 88 ° 1 min 325 W/m² 11,3 °C 27,3 °C 9,7 km/h (2 Bft)
14.07.2023 15:26 24,2 °C 27,2 °C 55 % 36 % 1015,1 hPa 0,0 l/m² 9,7 km/h (2 Bft) O-SO 102 ° 1 min 357 W/m² 10,8 °C 26,6 °C 11,3 km/h (2 Bft)
14.07.2023 15:27 24,3 °C 27,1 °C 55 % 36 % 1015,2 hPa 0,0 l/m² 5,5 km/h (2 Bft) O-NO 63 ° 1 min 313 W/m² 10,7 °C 27,1 °C 8,0 km/h (2 Bft)
14.07.2023 15:28 24,3 °C 27,1 °C 55 % 37 % 1015,1 hPa 0,0 l/m² 3,8 km/h (1 Bft) NO 51 ° 1 min 313 W/m² 11,1 °C 27,1 °C 6,4 km/h (2 Bft)
14.07.2023 15:29 24,2 °C 27,2 °C 55 % 38 % 1015,1 hPa 0,0 l/m² 0,6 km/h (0 Bft) NO 51 ° 1 min 332 W/m² 11,6 °C 27,2 °C 3,2 km/h (1 Bft)
14.07.2023 15:30 24,3 °C 27,4 °C 55 % 37 % 1015,1 hPa 0,0 l/m² 1,5 km/h (1 Bft) NO 50 ° 1 min 417 W/m² 11,4 °C 27,4 °C 3,2 km/h (1 Bft)
14.07.2023 15:31 24,3 °C 27,4 °C 55 % 37 % 1015,1 hPa 0,0 l/m² 3,9 km/h (1 Bft) O-NO 66 ° 1 min 417 W/m² 11,4 °C 27,4 °C 6,4 km/h (2 Bft)
14.07.2023 15:32 24,3 °C 27,6 °C 55 % 36 % 1015,1 hPa 0,0 l/m² 6,0 km/h (2 Bft) O 101 ° 1 min 417 W/m² 11,2 °C 27,6 °C 9,7 km/h (2 Bft)
14.07.2023 15:33 24,3 °C 27,5 °C 55 % 35 % 1015,1 hPa 0,0 l/m² 6,4 km/h (2 Bft) SO 126 ° 1 min 417 W/m² 10,7 °C 27,5 °C 9,7 km/h (2 Bft)
14.07.2023 15:34 24,3 °C 27,3 °C 55 % 35 % 1015,1 hPa 0,0 l/m² 8,8 km/h (2 Bft) S-SO 161 ° 1 min 390 W/m² 10,5 °C 26,9 °C 11,3 km/h (2 Bft)
14.07.2023 15:35 24,3 °C 27,1 °C 55 % 35 % 1015,0 hPa 0,0 l/m² 3,9 km/h (1 Bft) S-SO 161 ° 1 min 390 W/m² 10,3 °C 27,1 °C 8,0 km/h (2 Bft)
14.07.2023 15:36 24,3 °C 26,9 °C 55 % 35 % 1015,1 hPa 0,0 l/m² 1,8 km/h (1 Bft) S-SO 161 ° 1 min 390 W/m² 10,1 °C 26,9 °C 3,2 km/h (1 Bft)
14.07.2023 15:37 24,3 °C 26,8 °C 55 % 36 % 1015,1 hPa 0,0 l/m² 4,5 km/h (1 Bft) S 181 ° 1 min 390 W/m² 10,5 °C 26,8 °C 6,4 km/h (2 Bft)
14.07.2023 15:38 24,3 °C 26,8 °C 55 % 37 % 1015,0 hPa 0,0 l/m² 2,5 km/h (1 Bft) S 188 ° 1 min 390 W/m² 10,9 °C 26,8 °C 6,4 km/h (2 Bft)
14.07.2023 15:39 24,3 °C 26,9 °C 55 % 36 % 1015,0 hPa 0,0 l/m² 0,6 km/h (0 Bft) S 188 ° 1 min 390 W/m² 10,6 °C 26,9 °C 4,8 km/h (1 Bft)
14.07.2023 15:40 24,3 °C 26,9 °C 55 % 37 % 1015,0 hPa 0,0 l/m² 6,2 km/h (2 Bft) S 190 ° 1 min 390 W/m² 11,0 °C 26,9 °C 12,9 km/h (3 Bft)
14.07.2023 15:41 24,3 °C 27,1 °C 55 % 36 % 1014,9 hPa 0,0 l/m² 11,5 km/h (2 Bft) S 183 ° 1 min 390 W/m² 10,7 °C 26,3 °C 14,5 km/h (3 Bft)
14.07.2023 15:42 24,3 °C 27,3 °C 55 % 36 % 1015,0 hPa 0,0 l/m² 14,2 km/h (3 Bft) S-SW 209 ° 1 min 390 W/m² 10,9 °C 26,2 °C 16,1 km/h (3 Bft)
14.07.2023 15:43 24,3 °C 27,7 °C 55 % 35 % 1015,0 hPa 0,0 l/m² 13,2 km/h (3 Bft) S-SW 211 ° 1 min 327 W/m² 10,8 °C 26,8 °C 14,5 km/h (3 Bft)
14.07.2023 15:44 24,3 °C 27,7 °C 55 % 34 % 1015,0 hPa 0,0 l/m² 10,5 km/h (2 Bft) S-SW 207 ° 1 min 318 W/m² 10,4 °C 27,1 °C 12,9 km/h (3 Bft)
14.07.2023 15:46 24,3 °C 27,3 °C 55 % 35 % 1015,0 hPa 0,0 l/m² 9,9 km/h (2 Bft) SO 136 ° 2 min 404 W/m² 10,5 °C 26,7 °C 19,3 km/h (3 Bft)
14.07.2023 15:47 24,3 °C 27,1 °C 55 % 35 % 1014,9 hPa 0,0 l/m² 4,8 km/h (1 Bft) S-SO 167 ° 1 min 404 W/m² 10,3 °C 27,1 °C 9,7 km/h (2 Bft)
14.07.2023 15:48 24,3 °C 27,1 °C 55 % 35 % 1014,9 hPa 0,0 l/m² 4,4 km/h (1 Bft) S-SO 168 ° 1 min 404 W/m² 10,3 °C 27,1 °C 6,4 km/h (2 Bft)
14.07.2023 15:49 24,3 °C 27,0 °C 55 % 35 % 1014,9 hPa 0,0 l/m² 1,4 km/h (1 Bft) S-SO 168 ° 1 min 404 W/m² 10,2 °C 27,0 °C 3,2 km/h (1 Bft)
14.07.2023 15:50 24,3 °C 26,9 °C 55 % 35 % 1014,9 hPa 0,0 l/m² 0,0 km/h (0 Bft) S-SO 168 ° 1 min 294 W/m² 10,1 °C 26,9 °C 0,0 km/h (0 Bft)
14.07.2023 15:51 24,3 °C 26,8 °C 55 % 35 % 1014,8 hPa 0,0 l/m² 4,4 km/h (1 Bft) SW 219 ° 1 min 294 W/m² 10,0 °C 26,8 °C 8,0 km/h (2 Bft)
14.07.2023 15:52 24,3 °C 26,8 °C 55 % 35 % 1014,9 hPa 0,0 l/m² 3,4 km/h (1 Bft) SW 219 ° 1 min 330 W/m² 10,0 °C 26,8 °C 8,0 km/h (2 Bft)
14.07.2023 15:53 24,3 °C 26,7 °C 55 % 36 % 1014,9 hPa 0,0 l/m² 3,9 km/h (1 Bft) S-SO 168 ° 1 min 330 W/m² 10,4 °C 26,7 °C 6,4 km/h (2 Bft)
14.07.2023 15:54 24,3 °C 26,7 °C 55 % 36 % 1014,8 hPa 0,0 l/m² 8,6 km/h (2 Bft) O-SO 123 ° 1 min 330 W/m² 10,4 °C 26,3 °C 12,9 km/h (3 Bft)
14.07.2023 15:55 24,3 °C 26,8 °C 55 % 37 % 1014,8 hPa 0,0 l/m² 10,2 km/h (2 Bft) SO 126 ° 1 min 355 W/m² 10,9 °C 26,1 °C 12,9 km/h (3 Bft)
14.07.2023 15:56 24,3 °C 26,8 °C 55 % 36 % 1014,8 hPa 0,0 l/m² 11,9 km/h (2 Bft) SO 138 ° 1 min 355 W/m² 10,5 °C 25,9 °C 14,5 km/h (3 Bft)
14.07.2023 15:57 24,3 °C 26,9 °C 55 % 36 % 1014,9 hPa 0,0 l/m² 7,7 km/h (2 Bft) SO 126 ° 1 min 768 W/m² 10,6 °C 26,7 °C 11,3 km/h (2 Bft)
14.07.2023 15:58 24,3 °C 26,9 °C 55 % 36 % 1014,8 hPa 0,0 l/m² 5,3 km/h (1 Bft) S-SO 147 ° 1 min 768 W/m² 10,6 °C 26,9 °C 6,4 km/h (2 Bft)
14.07.2023 15:59 24,3 °C 27,2 °C 55 % 36 % 1014,8 hPa 0,0 l/m² 7,6 km/h (2 Bft) SO 146 ° 1 min 768 W/m² 10,8 °C 27,0 °C 9,7 km/h (2 Bft)
14.07.2023 16:00 24,3 °C 27,3 °C 55 % 35 % 1014,8 hPa 0,0 l/m² 6,0 km/h (2 Bft) SO 140 ° 1 min 768 W/m² 10,5 °C 27,3 °C 8,0 km/h (2 Bft)
14.07.2023 16:01 24,3 °C 27,3 °C 55 % 37 % 1014,9 hPa 0,0 l/m² 1,1 km/h (1 Bft) SO 138 ° 1 min 348 W/m² 11,3 °C 27,3 °C 4,8 km/h (1 Bft)
14.07.2023 16:02 24,3 °C 27,2 °C 55 % 36 % 1014,8 hPa 0,0 l/m² 0,6 km/h (0 Bft) SO 138 ° 1 min 373 W/m² 10,8 °C 27,2 °C 1,6 km/h (1 Bft)
14.07.2023 16:03 24,3 °C 27,1 °C 55 % 35 % 1014,7 hPa 0,0 l/m² 0,1 km/h (0 Bft) SO 137 ° 1 min 373 W/m² 10,3 °C 27,1 °C 1,6 km/h (1 Bft)
14.07.2023 16:04 24,3 °C 27,0 °C 55 % 36 % 1014,8 hPa 0,0 l/m² 0,3 km/h (0 Bft) SW 215 ° 1 min 385 W/m² 10,6 °C 27,0 °C 3,2 km/h (1 Bft)
14.07.2023 16:05 24,3 °C 27,1 °C 55 % 37 % 1014,7 hPa 0,0 l/m² 1,7 km/h (1 Bft) SW 227 ° 1 min 359 W/m² 11,1 °C 27,1 °C 4,8 km/h (1 Bft)
14.07.2023 16:07 24,3 °C 27,1 °C 55 % 37 % 1014,7 hPa 0,0 l/m² 0,1 km/h (0 Bft) SW 227 ° 2 min 327 W/m² 11,1 °C 27,1 °C 1,6 km/h (1 Bft)
14.07.2023 16:08 24,3 °C 27,1 °C 55 % 35 % 1014,7 hPa 0,0 l/m² 0,0 km/h (0 Bft) SW 227 ° 1 min 295 W/m² 10,3 °C 27,1 °C 0,0 km/h (0 Bft)
14.07.2023 16:09 24,3 °C 26,9 °C 55 % 35 % 1014,7 hPa 0,0 l/m² 0,0 km/h (0 Bft) SW 227 ° 1 min 269 W/m² 10,1 °C 26,9 °C 0,0 km/h (0 Bft)
14.07.2023 16:10 24,3 °C 26,8 °C 55 % 35 % 1014,7 hPa 0,0 l/m² 0,0 km/h (0 Bft) SW 227 ° 1 min 257 W/m² 10,0 °C 26,8 °C 0,0 km/h (0 Bft)
14.07.2023 16:11 24,3 °C 26,7 °C 55 % 36 % 1014,7 hPa 0,0 l/m² 2,7 km/h (1 Bft) SO 143 ° 1 min 250 W/m² 10,4 °C 26,7 °C 6,4 km/h (2 Bft)
14.07.2023 16:12 24,3 °C 26,8 °C 55 % 36 % 1014,6 hPa 0,0 l/m² 3,7 km/h (1 Bft) SO 142 ° 1 min 246 W/m² 10,5 °C 26,8 °C 4,8 km/h (1 Bft)
14.07.2023 16:13 24,3 °C 26,7 °C 55 % 36 % 1014,7 hPa 0,0 l/m² 3,5 km/h (1 Bft) SO 144 ° 1 min 246 W/m² 10,4 °C 26,7 °C 4,8 km/h (1 Bft)
14.07.2023 16:14 24,3 °C 26,7 °C 55 % 36 % 1014,7 hPa 0,0 l/m² 3,9 km/h (1 Bft) SO 134 ° 1 min 251 W/m² 10,4 °C 26,7 °C 8,0 km/h (2 Bft)
14.07.2023 16:15 24,3 °C 26,6 °C 55 % 37 % 1014,7 hPa 0,0 l/m² 6,0 km/h (2 Bft) S-SO 149 ° 1 min 348 W/m² 10,7 °C 26,6 °C 9,7 km/h (2 Bft)
14.07.2023 16:16 24,3 °C 26,6 °C 55 % 37 % 1014,6 hPa 0,0 l/m² 7,0 km/h (2 Bft) S-SO 160 ° 1 min 318 W/m² 10,7 °C 26,5 °C 8,0 km/h (2 Bft)
14.07.2023 16:17 24,3 °C 26,7 °C 55 % 36 % 1014,6 hPa 0,0 l/m² 2,7 km/h (1 Bft) S-SO 159 ° 1 min 327 W/m² 10,4 °C 26,7 °C 6,4 km/h (2 Bft)
14.07.2023 16:18 24,3 °C 26,7 °C 55 % 36 % 1014,6 hPa 0,0 l/m² 0,2 km/h (0 Bft) S-SO 159 ° 1 min 339 W/m² 10,4 °C 26,7 °C 1,6 km/h (1 Bft)
14.07.2023 16:19 24,3 °C 26,7 °C 55 % 37 % 1014,6 hPa 0,0 l/m² 1,0 km/h (0 Bft) SO 145 ° 1 min 388 W/m² 10,8 °C 26,7 °C 3,2 km/h (1 Bft)
14.07.2023 16:20 24,3 °C 26,7 °C 55 % 37 % 1014,5 hPa 0,0 l/m² 1,8 km/h (1 Bft) SO 140 ° 1 min 378 W/m² 10,8 °C 26,7 °C 3,2 km/h (1 Bft)
14.07.2023 16:21 24,3 °C 27,1 °C 55 % 38 % 1014,5 hPa 0,0 l/m² 0,1 km/h (0 Bft) SO 140 ° 1 min 378 W/m² 11,5 °C 27,1 °C 1,6 km/h (1 Bft)
14.07.2023 16:22 24,3 °C 27,2 °C 55 % 38 % 1014,5 hPa 0,0 l/m² 2,3 km/h (1 Bft) SO 128 ° 1 min 294 W/m² 11,6 °C 27,2 °C 3,2 km/h (1 Bft)
14.07.2023 16:23 24,3 °C 27,2 °C 55 % 37 % 1014,6 hPa 0,0 l/m² 1,1 km/h (1 Bft) O 100 ° 1 min 290 W/m² 11,2 °C 27,2 °C 3,2 km/h (1 Bft)
14.07.2023 16:24 24,3 °C 27,2 °C 55 % 36 % 1014,5 hPa 0,0 l/m² 1,8 km/h (1 Bft) O 100 ° 1 min 327 W/m² 10,8 °C 27,2 °C 3,2 km/h (1 Bft)
14.07.2023 16:25 24,3 °C 27,2 °C 55 % 36 % 1014,4 hPa 0,0 l/m² 0,0 km/h (0 Bft) O 100 ° 1 min 327 W/m² 10,8 °C 27,2 °C 0,0 km/h (0 Bft)
14.07.2023 16:26 24,3 °C 27,2 °C 55 % 36 % 1014,4 hPa 0,0 l/m² 0,0 km/h (0 Bft) O 101 ° 1 min 327 W/m² 10,8 °C 27,2 °C 0,0 km/h (0 Bft)
14.07.2023 16:27 24,3 °C 27,3 °C 55 % 37 % 1014,4 hPa 0,0 l/m² 0,7 km/h (0 Bft) O 96 ° 1 min 831 W/m² 11,3 °C 27,3 °C 3,2 km/h (1 Bft)
14.07.2023 16:28 24,3 °C 27,4 °C 55 % 35 % 1014,4 hPa 0,0 l/m² 2,4 km/h (1 Bft) O 85 ° 1 min 831 W/m² 10,6 °C 27,4 °C 3,2 km/h (1 Bft)
14.07.2023 16:29 24,3 °C 27,2 °C 55 % 35 % 1014,3 hPa 0,0 l/m² 2,3 km/h (1 Bft) O 82 ° 1 min 404 W/m² 10,4 °C 27,2 °C 3,2 km/h (1 Bft)
14.07.2023 16:30 24,3 °C 27,3 °C 55 % 36 % 1014,3 hPa 0,0 l/m² 0,0 km/h (0 Bft) O 82 ° 1 min 404 W/m² 10,9 °C 27,3 °C 0,0 km/h (0 Bft)
14.07.2023 16:32 24,3 °C 27,6 °C 55 % 36 % 1014,3 hPa 0,0 l/m² 0,4 km/h (0 Bft) O 83 ° 2 min 761 W/m² 11,2 °C 27,6 °C 3,2 km/h (1 Bft)
14.07.2023 16:33 24,3 °C 27,8 °C 55 % 36 % 1014,3 hPa 0,0 l/m² 1,7 km/h (1 Bft) SW 234 ° 1 min 838 W/m² 11,3 °C 27,8 °C 4,8 km/h (1 Bft)
14.07.2023 16:34 24,3 °C 28,1 °C 55 % 37 % 1014,3 hPa 0,0 l/m² 1,6 km/h (1 Bft) S-SW 208 ° 1 min 838 W/m² 12,0 °C 28,1 °C 3,2 km/h (1 Bft)
14.07.2023 16:35 24,3 °C 28,2 °C 55 % 35 % 1014,2 hPa 0,0 l/m² 8,2 km/h (2 Bft) SW 219 ° 1 min 838 W/m² 11,3 °C 27,9 °C 9,7 km/h (2 Bft)
14.07.2023 16:36 24,3 °C 28,1 °C 55 % 34 % 1014,2 hPa 0,0 l/m² 9,3 km/h (2 Bft) W-SW 246 ° 1 min 373 W/m² 10,7 °C 27,7 °C 11,3 km/h (2 Bft)
14.07.2023 16:37 24,3 °C 27,8 °C 55 % 34 % 1014,2 hPa 0,0 l/m² 4,1 km/h (1 Bft) W-SW 242 ° 1 min 373 W/m² 10,5 °C 27,8 °C 11,3 km/h (2 Bft)
14.07.2023 16:38 24,3 °C 27,6 °C 55 % 35 % 1014,2 hPa 0,0 l/m² 0,0 km/h (0 Bft) W-SW 237 ° 1 min 237 W/m² 10,7 °C 27,6 °C 0,0 km/h (0 Bft)
14.07.2023 16:39 24,3 °C 27,4 °C 55 % 35 % 1014,2 hPa 0,0 l/m² 3,6 km/h (1 Bft) O 82 ° 1 min 234 W/m² 10,6 °C 27,4 °C 4,8 km/h (1 Bft)
14.07.2023 16:40 24,3 °C 27,3 °C 55 % 36 % 1014,2 hPa 0,0 l/m² 1,8 km/h (1 Bft) O 81 ° 1 min 232 W/m² 10,9 °C 27,3 °C 4,8 km/h (1 Bft)
14.07.2023 16:41 24,3 °C 27,3 °C 55 % 36 % 1014,1 hPa 0,0 l/m² 2,3 km/h (1 Bft) SW 217 ° 1 min 250 W/m² 10,9 °C 27,3 °C 6,4 km/h (2 Bft)
14.07.2023 16:42 24,3 °C 27,2 °C 55 % 37 % 1014,2 hPa 0,0 l/m² 4,3 km/h (1 Bft) W 259 ° 1 min 250 W/m² 11,2 °C 27,2 °C 8,0 km/h (2 Bft)
14.07.2023 16:43 24,3 °C 27,4 °C 55 % 37 % 1014,1 hPa 0,0 l/m² 2,0 km/h (1 Bft) W-SW 257 ° 1 min 547 W/m² 11,4 °C 27,4 °C 4,8 km/h (1 Bft)
14.07.2023 16:44 24,3 °C 27,6 °C 55 % 37 % 1014,1 hPa 0,0 l/m² 6,3 km/h (2 Bft) W-SW 258 ° 1 min 547 W/m² 11,6 °C 27,6 °C 11,3 km/h (2 Bft)
14.07.2023 16:45 24,3 °C 27,7 °C 55 % 36 % 1014,2 hPa 0,0 l/m² 3,5 km/h (1 Bft) W-SW 248 ° 1 min 267 W/m² 11,3 °C 27,7 °C 6,4 km/h (2 Bft)
14.07.2023 16:46 24,3 °C 27,7 °C 55 % 36 % 1014,1 hPa 0,0 l/m² 5,5 km/h (2 Bft) W 266 ° 1 min 267 W/m² 11,3 °C 27,7 °C 8,0 km/h (2 Bft)
14.07.2023 16:47 24,3 °C 27,6 °C 55 % 36 % 1014,0 hPa 0,0 l/m² 9,7 km/h (2 Bft) W-SW 241 ° 1 min 267 W/m² 11,2 °C 27,1 °C 14,5 km/h (3 Bft)
14.07.2023 16:48 24,3 °C 27,5 °C 55 % 35 % 1014,1 hPa 0,0 l/m² 6,8 km/h (2 Bft) W 268 ° 1 min 234 W/m² 10,7 °C 27,4 °C 9,7 km/h (2 Bft)
14.07.2023 16:49 24,3 °C 27,4 °C 55 % 36 % 1014,0 hPa 0,0 l/m² 8,2 km/h (2 Bft) S-SW 206 ° 1 min 221 W/m² 11,0 °C 27,1 °C 11,3 km/h (2 Bft)
14.07.2023 16:50 24,3 °C 27,3 °C 55 % 35 % 1014,1 hPa 0,0 l/m² 7,2 km/h (2 Bft) S 186 ° 1 min 213 W/m² 10,5 °C 27,2 °C 9,7 km/h (2 Bft)
14.07.2023 16:51 24,3 °C 27,2 °C 55 % 35 % 1014,0 hPa 0,0 l/m² 4,4 km/h (1 Bft) W 259 ° 1 min 216 W/m² 10,4 °C 27,2 °C 6,4 km/h (2 Bft)
14.07.2023 16:52 24,3 °C 27,2 °C 55 % 36 % 1014,0 hPa 0,0 l/m² 6,4 km/h (2 Bft) W-SW 238 ° 1 min 218 W/m² 10,8 °C 27,2 °C 8,0 km/h (2 Bft)
14.07.2023 16:53 24,3 °C 27,1 °C 55 % 36 % 1014,0 hPa 0,0 l/m² 2,8 km/h (1 Bft) W-SW 240 ° 1 min 214 W/m² 10,7 °C 27,1 °C 6,4 km/h (2 Bft)
14.07.2023 16:54 24,3 °C 27,0 °C 55 % 36 % 1014,0 hPa 0,0 l/m² 4,2 km/h (1 Bft) S-SO 159 ° 1 min 221 W/m² 10,6 °C 27,0 °C 6,4 km/h (2 Bft)
14.07.2023 16:55 24,3 °C 27,1 °C 55 % 36 % 1014,0 hPa 0,0 l/m² 3,9 km/h (1 Bft) O-SO 109 ° 1 min 221 W/m² 10,7 °C 27,1 °C 6,4 km/h (2 Bft)
14.07.2023 16:56 24,3 °C 27,3 °C 55 % 36 % 1014,0 hPa 0,0 l/m² 4,9 km/h (1 Bft) SO 127 ° 1 min 705 W/m² 10,9 °C 27,3 °C 9,7 km/h (2 Bft)
14.07.2023 16:57 24,3 °C 27,4 °C 55 % 37 % 1013,9 hPa 0,0 l/m² 7,5 km/h (2 Bft) O-SO 119 ° 1 min 705 W/m² 11,4 °C 27,2 °C 9,7 km/h (2 Bft)
14.07.2023 16:58 24,3 °C 27,4 °C 55 % 37 % 1013,9 hPa 0,0 l/m² 4,3 km/h (1 Bft) S-SO 155 ° 1 min 255 W/m² 11,4 °C 27,4 °C 6,4 km/h (2 Bft)
14.07.2023 16:59 24,3 °C 27,3 °C 55 % 36 % 1013,9 hPa 0,0 l/m² 5,1 km/h (1 Bft) O-SO 107 ° 1 min 255 W/m² 10,9 °C 27,3 °C 6,4 km/h (2 Bft)
14.07.2023 17:00 24,3 °C 27,4 °C 55 % 36 % 1013,9 hPa 0,0 l/m² 5,8 km/h (2 Bft) O-SO 110 ° 1 min 255 W/m² 11,0 °C 27,4 °C 8,0 km/h (2 Bft)
14.07.2023 17:01 24,3 °C 27,4 °C 55 % 36 % 1013,8 hPa 0,0 l/m² 6,3 km/h (2 Bft) O-NO 76 ° 1 min 250 W/m² 11,0 °C 27,4 °C 9,7 km/h (2 Bft)
14.07.2023 17:02 24,3 °C 27,4 °C 55 % 36 % 1013,8 hPa 0,0 l/m² 6,9 km/h (2 Bft) O 85 ° 1 min 244 W/m² 11,0 °C 27,3 °C 11,3 km/h (2 Bft)
14.07.2023 17:03 24,3 °C 27,4 °C 55 % 36 % 1013,9 hPa 0,0 l/m² 7,0 km/h (2 Bft) O-SO 115 ° 1 min 243 W/m² 11,0 °C 27,3 °C 11,3 km/h (2 Bft)
14.07.2023 17:04 24,3 °C 27,4 °C 55 % 36 % 1013,8 hPa 0,0 l/m² 10,9 km/h (2 Bft) O-SO 103 ° 1 min 243 W/m² 11,0 °C 26,7 °C 16,1 km/h (3 Bft)
14.07.2023 17:05 24,3 °C 27,3 °C 55 % 36 % 1013,8 hPa 0,0 l/m² 14,1 km/h (3 Bft) O 81 ° 1 min 258 W/m² 10,9 °C 26,2 °C 16,1 km/h (3 Bft)
14.07.2023 17:06 24,3 °C 27,3 °C 55 % 36 % 1013,8 hPa 0,0 l/m² 14,6 km/h (3 Bft) O-SO 112 ° 1 min 258 W/m² 10,9 °C 26,1 °C 16,1 km/h (3 Bft)
14.07.2023 17:07 24,3 °C 27,4 °C 55 % 36 % 1013,7 hPa 0,0 l/m² 13,0 km/h (3 Bft) O-SO 119 ° 1 min 587 W/m² 11,0 °C 26,4 °C 14,5 km/h (3 Bft)
14.07.2023 17:08 24,3 °C 27,4 °C 55 % 36 % 1013,7 hPa 0,0 l/m² 13,0 km/h (3 Bft) O 98 ° 1 min 262 W/m² 11,0 °C 26,4 °C 17,7 km/h (3 Bft)
14.07.2023 17:09 24,3 °C 27,3 °C 55 % 37 % 1013,7 hPa 0,0 l/m² 11,1 km/h (2 Bft) O-SO 117 ° 1 min 262 W/m² 11,3 °C 26,6 °C 12,9 km/h (3 Bft)
14.07.2023 17:10 24,3 °C 27,3 °C 55 % 36 % 1013,7 hPa 0,0 l/m² 13,8 km/h (3 Bft) SO 128 ° 1 min 262 W/m² 10,9 °C 26,2 °C 16,1 km/h (3 Bft)
14.07.2023 17:11 24,3 °C 27,4 °C 55 % 36 % 1013,7 hPa 0,0 l/m² 12,9 km/h (3 Bft) O-SO 114 ° 1 min 262 W/m² 11,0 °C 26,4 °C 16,1 km/h (3 Bft)
14.07.2023 17:12 24,3 °C 27,4 °C 55 % 36 % 1013,7 hPa 0,0 l/m² 11,1 km/h (2 Bft) O 86 ° 1 min 262 W/m² 11,0 °C 26,7 °C 12,9 km/h (3 Bft)
14.07.2023 17:13 24,3 °C 27,4 °C 55 % 36 % 1013,6 hPa 0,0 l/m² 12,0 km/h (2 Bft) O 101 ° 1 min 199 W/m² 11,0 °C 26,6 °C 16,1 km/h (3 Bft)
14.07.2023 17:14 24,3 °C 27,3 °C 55 % 36 % 1013,6 hPa 0,0 l/m² 12,0 km/h (2 Bft) O 93 ° 1 min 192 W/m² 10,9 °C 26,4 °C 14,5 km/h (3 Bft)
14.07.2023 17:15 24,3 °C 27,3 °C 55 % 36 % 1013,6 hPa 0,0 l/m² 9,8 km/h (2 Bft) O-SO 109 ° 1 min 193 W/m² 10,9 °C 26,7 °C 12,9 km/h (3 Bft)
14.07.2023 17:17 24,3 °C 27,2 °C 55 % 36 % 1013,5 hPa 0,0 l/m² 6,8 km/h (2 Bft) O 99 ° 2 min 197 W/m² 10,8 °C 27,1 °C 9,7 km/h (2 Bft)
14.07.2023 17:18 24,3 °C 27,1 °C 55 % 36 % 1013,5 hPa 0,0 l/m² 7,4 km/h (2 Bft) O 93 ° 1 min 197 W/m² 10,7 °C 26,9 °C 9,7 km/h (2 Bft)
14.07.2023 17:19 24,3 °C 27,1 °C 55 % 36 % 1013,5 hPa 0,0 l/m² 6,8 km/h (2 Bft) O 85 ° 1 min 190 W/m² 10,7 °C 27,0 °C 8,0 km/h (2 Bft)
14.07.2023 17:20 24,3 °C 27,0 °C 55 % 36 % 1013,6 hPa 0,0 l/m² 4,1 km/h (1 Bft) O-NO 72 ° 1 min 186 W/m² 10,6 °C 27,0 °C 6,4 km/h (2 Bft)
14.07.2023 17:21 24,3 °C 27,1 °C 55 % 37 % 1013,5 hPa 0,0 l/m² 4,5 km/h (1 Bft) O 88 ° 1 min 188 W/m² 11,1 °C 27,1 °C 6,4 km/h (2 Bft)
14.07.2023 17:22 24,3 °C 27,0 °C 55 % 37 % 1013,5 hPa 0,0 l/m² 4,2 km/h (1 Bft) O-NO 73 ° 1 min 193 W/m² 11,1 °C 27,0 °C 6,4 km/h (2 Bft)
14.07.2023 17:23 24,3 °C 27,1 °C 55 % 38 % 1013,5 hPa 0,0 l/m² 2,8 km/h (1 Bft) O-NO 73 ° 1 min 199 W/m² 11,5 °C 27,1 °C 4,8 km/h (1 Bft)
14.07.2023 17:24 24,3 °C 27,1 °C 55 % 37 % 1013,5 hPa 0,0 l/m² 5,4 km/h (2 Bft) O 100 ° 1 min 199 W/m² 11,1 °C 27,1 °C 8,0 km/h (2 Bft)
14.07.2023 17:25 24,3 °C 27,1 °C 55 % 37 % 1013,5 hPa 0,0 l/m² 5,5 km/h (2 Bft) O-NO 69 ° 1 min 193 W/m² 11,1 °C 27,1 °C 8,0 km/h (2 Bft)
14.07.2023 17:27 24,3 °C 27,1 °C 55 % 36 % 1013,5 hPa 0,0 l/m² 8,1 km/h (2 Bft) O-NO 65 ° 2 min 169 W/m² 10,7 °C 26,8 °C 12,9 km/h (3 Bft)
14.07.2023 17:28 24,3 °C 27,1 °C 55 % 36 % 1013,5 hPa 0,0 l/m² 8,3 km/h (2 Bft) O 94 ° 1 min 160 W/m² 10,7 °C 26,8 °C 11,3 km/h (2 Bft)
14.07.2023 17:29 24,3 °C 27,1 °C 55 % 36 % 1013,4 hPa 0,0 l/m² 6,4 km/h (2 Bft) O 101 ° 1 min 165 W/m² 10,7 °C 27,1 °C 9,7 km/h (2 Bft)
14.07.2023 17:30 24,3 °C 27,0 °C 55 % 36 % 1013,4 hPa 0,0 l/m² 9,9 km/h (2 Bft) O-SO 103 ° 1 min 169 W/m² 10,6 °C 26,4 °C 12,9 km/h (3 Bft)
14.07.2023 17:31 24,3 °C 26,9 °C 55 % 38 % 1013,4 hPa 0,0 l/m² 5,6 km/h (2 Bft) SO 124 ° 1 min 167 W/m² 11,4 °C 26,9 °C 9,7 km/h (2 Bft)
14.07.2023 17:32 24,3 °C 26,8 °C 55 % 38 % 1013,4 hPa 0,0 l/m² 3,3 km/h (1 Bft) O-SO 108 ° 1 min 169 W/m² 11,3 °C 26,8 °C 4,8 km/h (1 Bft)
14.07.2023 17:33 24,3 °C 26,8 °C 55 % 37 % 1013,3 hPa 0,0 l/m² 4,6 km/h (1 Bft) O 94 ° 1 min 172 W/m² 10,9 °C 26,8 °C 6,4 km/h (2 Bft)
14.07.2023 17:34 24,3 °C 26,8 °C 55 % 37 % 1013,4 hPa 0,0 l/m² 6,1 km/h (2 Bft) O 86 ° 1 min 172 W/m² 10,9 °C 26,8 °C 8,0 km/h (2 Bft)
14.07.2023 17:35 24,3 °C 26,9 °C 55 % 37 % 1013,4 hPa 0,0 l/m² 4,5 km/h (1 Bft) O-SO 123 ° 1 min 169 W/m² 11,0 °C 26,9 °C 8,0 km/h (2 Bft)
14.07.2023 17:36 24,3 °C 26,8 °C 55 % 36 % 1013,3 hPa 0,0 l/m² 2,7 km/h (1 Bft) SO 126 ° 1 min 169 W/m² 10,5 °C 26,8 °C 4,8 km/h (1 Bft)
14.07.2023 17:37 24,3 °C 26,8 °C 55 % 36 % 1013,3 hPa 0,0 l/m² 2,3 km/h (1 Bft) SO 146 ° 1 min 167 W/m² 10,5 °C 26,8 °C 4,8 km/h (1 Bft)
14.07.2023 17:38 24,3 °C 26,7 °C 55 % 36 % 1013,3 hPa 0,0 l/m² 1,4 km/h (1 Bft) SO 131 ° 1 min 167 W/m² 10,4 °C 26,7 °C 4,8 km/h (1 Bft)
14.07.2023 17:39 24,3 °C 26,8 °C 55 % 37 % 1013,4 hPa 0,0 l/m² 5,0 km/h (1 Bft) O 86 ° 1 min 156 W/m² 10,9 °C 26,8 °C 6,4 km/h (2 Bft)
14.07.2023 17:40 24,3 °C 26,8 °C 55 % 37 % 1013,4 hPa 0,0 l/m² 4,3 km/h (1 Bft) O 86 ° 1 min 144 W/m² 10,9 °C 26,8 °C 4,8 km/h (1 Bft)
14.07.2023 17:41 24,3 °C 26,8 °C 55 % 36 % 1013,3 hPa 0,0 l/m² 5,1 km/h (1 Bft) O 83 ° 1 min 137 W/m² 10,5 °C 26,8 °C 6,4 km/h (2 Bft)
14.07.2023 17:42 24,4 °C 26,8 °C 55 % 37 % 1013,3 hPa 0,0 l/m² 3,6 km/h (1 Bft) O-NO 66 ° 1 min 135 W/m² 10,9 °C 26,8 °C 6,4 km/h (2 Bft)
14.07.2023 17:43 24,3 °C 26,8 °C 55 % 38 % 1013,3 hPa 0,0 l/m² 3,1 km/h (1 Bft) O-NO 59 ° 1 min 144 W/m² 11,3 °C 26,8 °C 4,8 km/h (1 Bft)
14.07.2023 17:44 24,3 °C 26,8 °C 55 % 38 % 1013,2 hPa 0,0 l/m² 5,1 km/h (1 Bft) N-NO 25 ° 1 min 148 W/m² 11,3 °C 26,8 °C 8,0 km/h (2 Bft)
14.07.2023 17:45 24,4 °C 26,8 °C 55 % 39 % 1013,3 hPa 0,0 l/m² 3,9 km/h (1 Bft) O-NO 59 ° 1 min 151 W/m² 11,7 °C 26,8 °C 6,4 km/h (2 Bft)
14.07.2023 17:46 24,3 °C 26,8 °C 55 % 38 % 1013,2 hPa 0,0 l/m² 0,9 km/h (0 Bft) NO 42 ° 1 min 151 W/m² 11,3 °C 26,8 °C 4,8 km/h (1 Bft)
14.07.2023 17:47 24,3 °C 26,8 °C 55 % 38 % 1013,2 hPa 0,0 l/m² 0,0 km/h (0 Bft) NO 42 ° 1 min 153 W/m² 11,3 °C 26,8 °C 0,0 km/h (0 Bft)
14.07.2023 17:48 24,3 °C 26,8 °C 55 % 37 % 1013,2 hPa 0,0 l/m² 5,7 km/h (2 Bft) O 98 ° 1 min 162 W/m² 10,9 °C 26,8 °C 11,3 km/h (2 Bft)
14.07.2023 17:49 24,3 °C 26,8 °C 55 % 37 % 1013,1 hPa 0,0 l/m² 10,1 km/h (2 Bft) O 84 ° 1 min 172 W/m² 10,9 °C 26,1 °C 12,9 km/h (3 Bft)
14.07.2023 17:50 24,3 °C 26,9 °C 55 % 37 % 1013,2 hPa 0,0 l/m² 5,0 km/h (1 Bft) NO 54 ° 1 min 171 W/m² 11,0 °C 26,9 °C 11,3 km/h (2 Bft)
14.07.2023 17:51 24,4 °C 27,1 °C 55 % 38 % 1013,1 hPa 0,0 l/m² 3,4 km/h (1 Bft) O 92 ° 1 min 165 W/m² 11,5 °C 27,1 °C 4,8 km/h (1 Bft)
14.07.2023 17:52 24,4 °C 27,0 °C 55 % 36 % 1013,1 hPa 0,0 l/m² 4,2 km/h (1 Bft) O-SO 107 ° 1 min 165 W/m² 10,6 °C 27,0 °C 6,4 km/h (2 Bft)
14.07.2023 17:53 24,4 °C 26,9 °C 55 % 36 % 1013,2 hPa 0,0 l/m² 4,6 km/h (1 Bft) O-SO 121 ° 1 min 163 W/m² 10,6 °C 26,9 °C 6,4 km/h (2 Bft)
14.07.2023 17:54 24,3 °C 26,9 °C 55 % 37 % 1013,1 hPa 0,0 l/m² 4,9 km/h (1 Bft) O-SO 123 ° 1 min 163 W/m² 11,0 °C 26,9 °C 6,4 km/h (2 Bft)
14.07.2023 17:55 24,3 °C 26,8 °C 55 % 37 % 1013,1 hPa 0,0 l/m² 3,2 km/h (1 Bft) O-SO 123 ° 1 min 162 W/m² 10,9 °C 26,8 °C 4,8 km/h (1 Bft)
14.07.2023 17:56 24,3 °C 26,8 °C 55 % 38 % 1013,2 hPa 0,0 l/m² 2,7 km/h (1 Bft) O-SO 123 ° 1 min 158 W/m² 11,3 °C 26,8 °C 3,2 km/h (1 Bft)
14.07.2023 17:57 24,4 °C 26,7 °C 55 % 37 % 1013,1 hPa 0,0 l/m² 2,0 km/h (1 Bft) O-SO 123 ° 1 min 151 W/m² 10,8 °C 26,7 °C 4,8 km/h (1 Bft)
14.07.2023 17:58 24,3 °C 26,7 °C 55 % 37 % 1013,1 hPa 0,0 l/m² 3,5 km/h (1 Bft) O 88 ° 1 min 142 W/m² 10,8 °C 26,7 °C 4,8 km/h (1 Bft)
14.07.2023 17:59 24,3 °C 26,7 °C 55 % 37 % 1013,1 hPa 0,0 l/m² 6,0 km/h (2 Bft) O 96 ° 1 min 134 W/m² 10,8 °C 26,7 °C 8,0 km/h (2 Bft)
14.07.2023 18:00 24,3 °C 26,8 °C 55 % 38 % 1013,0 hPa 0,0 l/m² 8,8 km/h (2 Bft) S-SO 160 ° 1 min 128 W/m² 11,3 °C 26,3 °C 11,3 km/h (2 Bft)
14.07.2023 18:01 24,3 °C 26,8 °C 55 % 37 % 1013,1 hPa 0,0 l/m² 9,7 km/h (2 Bft) S 180 ° 1 min 139 W/m² 10,9 °C 26,2 °C 12,9 km/h (3 Bft)
14.07.2023 18:02 24,4 °C 26,8 °C 55 % 36 % 1013,0 hPa 0,0 l/m² 7,6 km/h (2 Bft) S 176 ° 1 min 134 W/m² 10,5 °C 26,6 °C 9,7 km/h (2 Bft)
14.07.2023 18:03 24,3 °C 26,8 °C 55 % 37 % 1012,9 hPa 0,0 l/m² 7,2 km/h (2 Bft) S-SO 159 ° 1 min 120 W/m² 10,9 °C 26,6 °C 9,7 km/h (2 Bft)
14.07.2023 18:04 24,4 °C 26,9 °C 55 % 36 % 1012,9 hPa 0,0 l/m² 8,4 km/h (2 Bft) S 172 ° 1 min 113 W/m² 10,6 °C 26,5 °C 11,3 km/h (2 Bft)
14.07.2023 18:05 24,3 °C 27,0 °C 55 % 36 % 1012,9 hPa 0,0 l/m² 9,0 km/h (2 Bft) S-SO 165 ° 1 min 113 W/m² 10,6 °C 26,5 °C 14,5 km/h (3 Bft)
14.07.2023 18:06 24,4 °C 27,1 °C 55 % 36 % 1012,8 hPa 0,0 l/m² 4,3 km/h (1 Bft) O-SO 118 ° 1 min 450 W/m² 10,7 °C 27,1 °C 4,8 km/h (1 Bft)
14.07.2023 18:07 24,4 °C 27,3 °C 55 % 36 % 1012,9 hPa 0,0 l/m² 9,6 km/h (2 Bft) S-SO 151 ° 1 min 362 W/m² 10,9 °C 26,8 °C 14,5 km/h (3 Bft)
14.07.2023 18:08 24,3 °C 27,3 °C 55 % 36 % 1012,8 hPa 0,0 l/m² 10,6 km/h (2 Bft) S-SO 148 ° 1 min 322 W/m² 10,9 °C 26,6 °C 12,9 km/h (3 Bft)
14.07.2023 18:09 24,4 °C 27,4 °C 55 % 35 % 1012,8 hPa 0,0 l/m² 8,4 km/h (2 Bft) O-SO 110 ° 1 min 343 W/m² 10,6 °C 27,1 °C 11,3 km/h (2 Bft)
14.07.2023 18:10 24,4 °C 27,4 °C 55 % 35 % 1012,8 hPa 0,0 l/m² 10,6 km/h (2 Bft) SO 129 ° 1 min 343 W/m² 10,6 °C 26,7 °C 12,9 km/h (3 Bft)
14.07.2023 18:12 24,4 °C 27,5 °C 55 % 35 % 1012,7 hPa 0,0 l/m² 7,0 km/h (2 Bft) SO 140 ° 2 min 297 W/m² 10,7 °C 27,4 °C 11,3 km/h (2 Bft)
14.07.2023 18:13 24,4 °C 27,6 °C 55 % 35 % 1012,7 hPa 0,0 l/m² 6,5 km/h (2 Bft) SO 141 ° 1 min 388 W/m² 10,7 °C 27,6 °C 11,3 km/h (2 Bft)
14.07.2023 18:14 24,4 °C 27,6 °C 55 % 35 % 1012,7 hPa 0,0 l/m² 10,6 km/h (2 Bft) S-SO 167 ° 1 min 392 W/m² 10,7 °C 27,0 °C 12,9 km/h (3 Bft)
14.07.2023 18:15 24,4 °C 27,7 °C 55 % 35 % 1012,6 hPa 0,0 l/m² 8,8 km/h (2 Bft) S 186 ° 1 min 424 W/m² 10,8 °C 27,3 °C 12,9 km/h (3 Bft)
14.07.2023 18:16 24,3 °C 27,7 °C 55 % 34 % 1012,7 hPa 0,0 l/m² 10,5 km/h (2 Bft) S 175 ° 1 min 429 W/m² 10,4 °C 27,1 °C 14,5 km/h (3 Bft)
14.07.2023 18:17 24,3 °C 27,7 °C 55 % 34 % 1012,6 hPa 0,0 l/m² 7,6 km/h (2 Bft) S-SO 153 ° 1 min 429 W/m² 10,4 °C 27,5 °C 9,7 km/h (2 Bft)
14.07.2023 18:18 24,4 °C 27,7 °C 55 % 35 % 1012,6 hPa 0,0 l/m² 13,4 km/h (3 Bft) S-SO 153 ° 1 min 197 W/m² 10,8 °C 26,7 °C 17,7 km/h (3 Bft)
14.07.2023 18:19 24,4 °C 27,7 °C 55 % 35 % 1012,7 hPa 0,0 l/m² 13,7 km/h (3 Bft) S-SO 167 ° 1 min 197 W/m² 10,8 °C 26,7 °C 17,7 km/h (3 Bft)
14.07.2023 18:20 24,4 °C 27,7 °C 55 % 34 % 1012,6 hPa 0,0 l/m² 14,2 km/h (3 Bft) S-SO 160 ° 1 min 418 W/m² 10,4 °C 26,7 °C 17,7 km/h (3 Bft)
14.07.2023 18:21 24,4 °C 27,8 °C 55 % 34 % 1012,7 hPa 0,0 l/m² 9,9 km/h (2 Bft) S-SO 157 ° 1 min 338 W/m² 10,5 °C 27,3 °C 14,5 km/h (3 Bft)
14.07.2023 18:22 24,3 °C 27,7 °C 55 % 34 % 1012,6 hPa 0,0 l/m² 10,9 km/h (2 Bft) S-SO 165 ° 1 min 338 W/m² 10,4 °C 27,0 °C 12,9 km/h (3 Bft)
14.07.2023 18:23 24,4 °C 27,7 °C 55 % 34 % 1012,7 hPa 0,0 l/m² 8,7 km/h (2 Bft) SO 143 ° 1 min 178 W/m² 10,4 °C 27,3 °C 9,7 km/h (2 Bft)
14.07.2023 18:24 24,4 °C 27,6 °C 55 % 34 % 1012,6 hPa 0,0 l/m² 9,7 km/h (2 Bft) S 180 ° 1 min 192 W/m² 10,3 °C 27,1 °C 12,9 km/h (3 Bft)
14.07.2023 18:25 24,3 °C 27,6 °C 55 % 35 % 1012,6 hPa 0,0 l/m² 8,0 km/h (2 Bft) S 183 ° 1 min 148 W/m² 10,7 °C 27,3 °C 11,3 km/h (2 Bft)
14.07.2023 18:26 24,4 °C 27,5 °C 55 % 35 % 1012,6 hPa 0,0 l/m² 9,6 km/h (2 Bft) S 184 ° 1 min 142 W/m² 10,7 °C 27,0 °C 12,9 km/h (3 Bft)
14.07.2023 18:27 24,4 °C 27,4 °C 55 % 35 % 1012,6 hPa 0,0 l/m² 10,0 km/h (2 Bft) S-SO 154 ° 1 min 169 W/m² 10,6 °C 26,8 °C 12,9 km/h (3 Bft)
14.07.2023 18:28 24,4 °C 27,4 °C 55 % 35 % 1012,5 hPa 0,0 l/m² 8,3 km/h (2 Bft) S-SO 167 ° 1 min 128 W/m² 10,6 °C 27,1 °C 9,7 km/h (2 Bft)
14.07.2023 18:29 24,4 °C 27,3 °C 55 % 35 % 1012,6 hPa 0,0 l/m² 6,1 km/h (2 Bft) S 190 ° 1 min 121 W/m² 10,5 °C 27,3 °C 8,0 km/h (2 Bft)
14.07.2023 18:30 24,4 °C 27,3 °C 55 % 35 % 1012,6 hPa 0,0 l/m² 6,6 km/h (2 Bft) S 186 ° 1 min 123 W/m² 10,5 °C 27,3 °C 8,0 km/h (2 Bft)
14.07.2023 18:31 24,4 °C 27,3 °C 55 % 35 % 1012,6 hPa 0,0 l/m² 7,2 km/h (2 Bft) S 173 ° 1 min 120 W/m² 10,5 °C 27,2 °C 9,7 km/h (2 Bft)
14.07.2023 18:32 24,4 °C 27,2 °C 55 % 35 % 1012,5 hPa 0,0 l/m² 8,6 km/h (2 Bft) S 177 ° 1 min 118 W/m² 10,4 °C 26,8 °C 14,5 km/h (3 Bft)
14.07.2023 18:33 24,4 °C 27,2 °C 55 % 35 % 1012,5 hPa 0,0 l/m² 8,8 km/h (2 Bft) S 180 ° 1 min 120 W/m² 10,4 °C 26,8 °C 12,9 km/h (3 Bft)
14.07.2023 18:34 24,4 °C 27,1 °C 55 % 35 % 1012,5 hPa 0,0 l/m² 9,5 km/h (2 Bft) S 179 ° 1 min 120 W/m² 10,3 °C 26,6 °C 16,1 km/h (3 Bft)
14.07.2023 18:35 24,4 °C 27,1 °C 55 % 36 % 1012,6 hPa 0,0 l/m² 8,4 km/h (2 Bft) S-SO 155 ° 1 min 118 W/m² 10,7 °C 26,7 °C 9,7 km/h (2 Bft)
14.07.2023 18:36 24,3 °C 27,1 °C 55 % 36 % 1012,5 hPa 0,0 l/m² 6,0 km/h (2 Bft) S 172 ° 1 min 121 W/m² 10,7 °C 27,1 °C 9,7 km/h (2 Bft)
14.07.2023 18:37 24,3 °C 27,1 °C 55 % 36 % 1012,5 hPa 0,0 l/m² 7,9 km/h (2 Bft) S 188 ° 1 min 128 W/m² 10,7 °C 26,8 °C 9,7 km/h (2 Bft)
14.07.2023 18:38 24,3 °C 27,0 °C 55 % 36 % 1012,5 hPa 0,0 l/m² 9,2 km/h (2 Bft) S 174 ° 1 min 134 W/m² 10,6 °C 26,5 °C 12,9 km/h (3 Bft)
14.07.2023 18:39 24,4 °C 27,0 °C 55 % 35 % 1012,6 hPa 0,0 l/m² 10,2 km/h (2 Bft) S 186 ° 1 min 137 W/m² 10,2 °C 26,3 °C 12,9 km/h (3 Bft)
14.07.2023 18:40 24,4 °C 27,0 °C 55 % 35 % 1012,5 hPa 0,0 l/m² 6,4 km/h (2 Bft) S 175 ° 1 min 139 W/m² 10,2 °C 27,0 °C 9,7 km/h (2 Bft)
14.07.2023 18:41 24,3 °C 27,0 °C 55 % 35 % 1012,5 hPa 0,0 l/m² 7,0 km/h (2 Bft) S 177 ° 1 min 137 W/m² 10,2 °C 26,9 °C 9,7 km/h (2 Bft)
14.07.2023 18:42 24,4 °C 27,0 °C 55 % 35 % 1012,5 hPa 0,0 l/m² 4,8 km/h (1 Bft) S 169 ° 1 min 132 W/m² 10,2 °C 27,0 °C 6,4 km/h (2 Bft)
14.07.2023 18:43 24,4 °C 27,0 °C 55 % 36 % 1012,5 hPa 0,0 l/m² 3,3 km/h (1 Bft) S 169 ° 1 min 130 W/m² 10,6 °C 27,0 °C 6,4 km/h (2 Bft)
14.07.2023 18:44 24,3 °C 27,0 °C 55 % 36 % 1012,5 hPa 0,0 l/m² 3,9 km/h (1 Bft) S 169 ° 1 min 132 W/m² 10,6 °C 27,0 °C 6,4 km/h (2 Bft)
14.07.2023 18:46 24,3 °C 27,1 °C 55 % 36 % 1012,5 hPa 0,0 l/m² 5,8 km/h (2 Bft) S-SO 158 ° 2 min 135 W/m² 10,7 °C 27,1 °C 9,7 km/h (2 Bft)
14.07.2023 18:47 24,4 °C 27,1 °C 55 % 36 % 1012,6 hPa 0,0 l/m² 5,2 km/h (1 Bft) S 178 ° 1 min 132 W/m² 10,7 °C 27,1 °C 9,7 km/h (2 Bft)
14.07.2023 18:48 24,4 °C 27,1 °C 55 % 36 % 1012,6 hPa 0,0 l/m² 3,7 km/h (1 Bft) S 174 ° 1 min 130 W/m² 10,7 °C 27,1 °C 4,8 km/h (1 Bft)
14.07.2023 18:49 24,3 °C 27,1 °C 55 % 36 % 1012,6 hPa 0,0 l/m² 7,0 km/h (2 Bft) S 178 ° 1 min 127 W/m² 10,7 °C 27,0 °C 8,0 km/h (2 Bft)
14.07.2023 18:50 24,3 °C 27,1 °C 55 % 36 % 1012,6 hPa 0,0 l/m² 5,1 km/h (1 Bft) S-SO 164 ° 1 min 125 W/m² 10,7 °C 27,1 °C 8,0 km/h (2 Bft)
14.07.2023 18:51 24,4 °C 27,1 °C 55 % 36 % 1012,6 hPa 0,0 l/m² 6,3 km/h (2 Bft) S-SW 198 ° 1 min 123 W/m² 10,7 °C 27,1 °C 9,7 km/h (2 Bft)
14.07.2023 18:52 24,4 °C 27,1 °C 55 % 36 % 1012,6 hPa 0,0 l/m² 5,8 km/h (2 Bft) S 171 ° 1 min 120 W/m² 10,7 °C 27,1 °C 9,7 km/h (2 Bft)
14.07.2023 18:53 24,4 °C 27,1 °C 55 % 35 % 1012,5 hPa 0,0 l/m² 7,5 km/h (2 Bft) S-SO 165 ° 1 min 120 W/m² 10,3 °C 26,9 °C 9,7 km/h (2 Bft)
14.07.2023 18:54 24,4 °C 27,0 °C 55 % 35 % 1012,6 hPa 0,0 l/m² 5,5 km/h (2 Bft) S 178 ° 1 min 116 W/m² 10,2 °C 27,0 °C 8,0 km/h (2 Bft)
14.07.2023 18:55 24,4 °C 27,0 °C 55 % 35 % 1012,5 hPa 0,0 l/m² 6,0 km/h (2 Bft) S 175 ° 1 min 113 W/m² 10,2 °C 27,0 °C 8,0 km/h (2 Bft)
14.07.2023 18:56 24,3 °C 27,0 °C 55 % 35 % 1012,5 hPa 0,0 l/m² 6,5 km/h (2 Bft) S 181 ° 1 min 104 W/m² 10,2 °C 27,0 °C 8,0 km/h (2 Bft)
14.07.2023 18:57 24,4 °C 27,0 °C 55 % 35 % 1012,5 hPa 0,0 l/m² 5,1 km/h (1 Bft) S 178 ° 1 min 98 W/m² 10,2 °C 27,0 °C 6,4 km/h (2 Bft)
14.07.2023 18:58 24,3 °C 26,9 °C 55 % 36 % 1012,5 hPa 0,0 l/m² 4,1 km/h (1 Bft) S 178 ° 1 min 98 W/m² 10,6 °C 26,9 °C 4,8 km/h (1 Bft)
14.07.2023 18:59 24,3 °C 26,9 °C 55 % 35 % 1012,5 hPa 0,0 l/m² 5,8 km/h (2 Bft) S-SO 166 ° 1 min 93 W/m² 10,1 °C 26,9 °C 8,0 km/h (2 Bft)
14.07.2023 19:00 24,4 °C 26,9 °C 55 % 36 % 1012,5 hPa 0,0 l/m² 6,9 km/h (2 Bft) S-SO 161 ° 1 min 91 W/m² 10,6 °C 26,8 °C 8,0 km/h (2 Bft)
14.07.2023 19:01 24,4 °C 26,9 °C 55 % 36 % 1012,4 hPa 0,0 l/m² 4,4 km/h (1 Bft) S-SO 161 ° 1 min 90 W/m² 10,6 °C 26,9 °C 6,4 km/h (2 Bft)
14.07.2023 19:02 24,4 °C 26,9 °C 55 % 36 % 1012,5 hPa 0,0 l/m² 5,2 km/h (1 Bft) S 171 ° 1 min 86 W/m² 10,6 °C 26,9 °C 6,4 km/h (2 Bft)
14.07.2023 19:03 24,4 °C 26,8 °C 55 % 36 % 1012,5 hPa 0,0 l/m² 3,1 km/h (1 Bft) S 171 ° 1 min 84 W/m² 10,5 °C 26,8 °C 6,4 km/h (2 Bft)
14.07.2023 19:04 24,4 °C 26,8 °C 55 % 36 % 1012,5 hPa 0,0 l/m² 2,7 km/h (1 Bft) S 171 ° 1 min 83 W/m² 10,5 °C 26,8 °C 3,2 km/h (1 Bft)
14.07.2023 19:05 24,4 °C 26,8 °C 55 % 36 % 1012,4 hPa 0,0 l/m² 4,4 km/h (1 Bft) S-SO 155 ° 1 min 83 W/m² 10,5 °C 26,8 °C 6,4 km/h (2 Bft)
14.07.2023 19:06 24,4 °C 26,8 °C 55 % 36 % 1012,3 hPa 0,0 l/m² 4,1 km/h (1 Bft) S-SO 157 ° 1 min 83 W/m² 10,5 °C 26,8 °C 4,8 km/h (1 Bft)
14.07.2023 19:07 24,3 °C 26,8 °C 55 % 36 % 1012,4 hPa 0,0 l/m² 4,6 km/h (1 Bft) S-SO 167 ° 1 min 81 W/m² 10,5 °C 26,8 °C 6,4 km/h (2 Bft)
14.07.2023 19:08 24,3 °C 26,8 °C 55 % 36 % 1012,3 hPa 0,0 l/m² 3,8 km/h (1 Bft) S-SO 167 ° 1 min 81 W/m² 10,5 °C 26,8 °C 4,8 km/h (1 Bft)
14.07.2023 19:09 24,3 °C 26,8 °C 55 % 37 % 1012,3 hPa 0,0 l/m² 4,8 km/h (1 Bft) S-SO 167 ° 1 min 81 W/m² 10,9 °C 26,8 °C 6,4 km/h (2 Bft)
14.07.2023 19:10 24,3 °C 26,8 °C 55 % 36 % 1012,3 hPa 0,0 l/m² 3,1 km/h (1 Bft) S-SO 153 ° 1 min 86 W/m² 10,5 °C 26,8 °C 6,4 km/h (2 Bft)
14.07.2023 19:11 24,4 °C 26,9 °C 55 % 36 % 1012,2 hPa 0,0 l/m² 2,5 km/h (1 Bft) S-SO 152 ° 1 min 84 W/m² 10,6 °C 26,9 °C 3,2 km/h (1 Bft)
14.07.2023 19:12 24,3 °C 26,9 °C 55 % 37 % 1012,3 hPa 0,0 l/m² 2,9 km/h (1 Bft) S-SO 152 ° 1 min 84 W/m² 11,0 °C 26,9 °C 3,2 km/h (1 Bft)
14.07.2023 19:13 24,4 °C 26,9 °C 55 % 37 % 1012,3 hPa 0,0 l/m² 2,6 km/h (1 Bft) SO 124 ° 1 min 84 W/m² 11,0 °C 26,9 °C 3,2 km/h (1 Bft)
14.07.2023 19:14 24,4 °C 26,9 °C 55 % 36 % 1012,3 hPa 0,0 l/m² 4,1 km/h (1 Bft) O-SO 109 ° 1 min 83 W/m² 10,6 °C 26,9 °C 6,4 km/h (2 Bft)
14.07.2023 19:15 24,4 °C 27,0 °C 55 % 36 % 1012,2 hPa 0,0 l/m² 2,2 km/h (1 Bft) O-SO 115 ° 1 min 83 W/m² 10,6 °C 27,0 °C 3,2 km/h (1 Bft)
14.07.2023 19:16 24,3 °C 27,1 °C 55 % 36 % 1012,2 hPa 0,0 l/m² 3,0 km/h (1 Bft) SO 134 ° 1 min 81 W/m² 10,7 °C 27,1 °C 4,8 km/h (1 Bft)
14.07.2023 19:17 24,4 °C 27,1 °C 55 % 36 % 1012,2 hPa 0,0 l/m² 3,7 km/h (1 Bft) S-SO 159 ° 1 min 76 W/m² 10,7 °C 27,1 °C 6,4 km/h (2 Bft)
14.07.2023 19:18 24,4 °C 27,1 °C 55 % 35 % 1012,1 hPa 0,0 l/m² 2,6 km/h (1 Bft) SO 136 ° 1 min 70 W/m² 10,3 °C 27,1 °C 4,8 km/h (1 Bft)
14.07.2023 19:19 24,4 °C 27,2 °C 55 % 35 % 1012,2 hPa 0,0 l/m² 4,4 km/h (1 Bft) SO 136 ° 1 min 70 W/m² 10,4 °C 27,2 °C 4,8 km/h (1 Bft)
14.07.2023 19:20 24,3 °C 27,2 °C 55 % 36 % 1012,1 hPa 0,0 l/m² 4,5 km/h (1 Bft) S-SO 164 ° 1 min 70 W/m² 10,8 °C 27,2 °C 6,4 km/h (2 Bft)
14.07.2023 19:21 24,4 °C 27,3 °C 55 % 36 % 1012,1 hPa 0,0 l/m² 3,2 km/h (1 Bft) SO 136 ° 1 min 72 W/m² 10,9 °C 27,3 °C 8,0 km/h (2 Bft)
14.07.2023 19:22 24,3 °C 27,4 °C 55 % 36 % 1012,2 hPa 0,0 l/m² 7,1 km/h (2 Bft) SO 126 ° 1 min 67 W/m² 11,0 °C 27,3 °C 11,3 km/h (2 Bft)
14.07.2023 19:23 24,3 °C 27,4 °C 55 % 36 % 1012,1 hPa 0,0 l/m² 6,5 km/h (2 Bft) O 92 ° 1 min 65 W/m² 11,0 °C 27,4 °C 11,3 km/h (2 Bft)
14.07.2023 19:24 24,4 °C 27,4 °C 55 % 36 % 1012,1 hPa 0,0 l/m² 4,3 km/h (1 Bft) O 89 ° 1 min 62 W/m² 11,0 °C 27,4 °C 6,4 km/h (2 Bft)
14.07.2023 19:25 24,4 °C 27,3 °C 55 % 36 % 1012,1 hPa 0,0 l/m² 2,0 km/h (1 Bft) SO 136 ° 1 min 60 W/m² 10,9 °C 27,3 °C 4,8 km/h (1 Bft)
14.07.2023 19:27 24,4 °C 27,3 °C 55 % 36 % 1012,2 hPa 0,0 l/m² 5,0 km/h (1 Bft) SO 134 ° 2 min 62 W/m² 10,9 °C 27,3 °C 9,7 km/h (2 Bft)
14.07.2023 19:28 24,4 °C 27,3 °C 55 % 35 % 1012,2 hPa 0,0 l/m² 6,8 km/h (2 Bft) SO 130 ° 1 min 58 W/m² 10,5 °C 27,2 °C 8,0 km/h (2 Bft)
14.07.2023 19:29 24,3 °C 27,3 °C 55 % 35 % 1012,2 hPa 0,0 l/m² 5,2 km/h (1 Bft) SO 126 ° 1 min 58 W/m² 10,5 °C 27,3 °C 6,4 km/h (2 Bft)
14.07.2023 19:30 24,3 °C 27,3 °C 55 % 35 % 1012,2 hPa 0,0 l/m² 6,9 km/h (2 Bft) O 92 ° 1 min 58 W/m² 10,5 °C 27,2 °C 11,3 km/h (2 Bft)
14.07.2023 19:31 24,4 °C 27,3 °C 55 % 36 % 1012,1 hPa 0,0 l/m² 9,4 km/h (2 Bft) O 90 ° 1 min 56 W/m² 10,9 °C 26,8 °C 12,9 km/h (3 Bft)
14.07.2023 19:32 24,3 °C 27,3 °C 55 % 36 % 1012,1 hPa 0,0 l/m² 5,0 km/h (1 Bft) O-SO 104 ° 1 min 56 W/m² 10,9 °C 27,3 °C 6,4 km/h (2 Bft)
14.07.2023 19:33 24,3 °C 27,3 °C 55 % 36 % 1012,1 hPa 0,0 l/m² 5,9 km/h (2 Bft) O 96 ° 1 min 56 W/m² 10,9 °C 27,3 °C 9,7 km/h (2 Bft)
14.07.2023 19:34 24,3 °C 27,3 °C 55 % 35 % 1012,2 hPa 0,0 l/m² 5,2 km/h (1 Bft) O-SO 109 ° 1 min 53 W/m² 10,5 °C 27,3 °C 6,4 km/h (2 Bft)
14.07.2023 19:35 24,4 °C 27,3 °C 55 % 35 % 1012,2 hPa 0,0 l/m² 2,9 km/h (1 Bft) O 82 ° 1 min 53 W/m² 10,5 °C 27,3 °C 4,8 km/h (1 Bft)
14.07.2023 19:36 24,3 °C 27,3 °C 55 % 35 % 1012,1 hPa 0,0 l/m² 2,6 km/h (1 Bft) O 101 ° 0 min 51 W/m² 10,5 °C 27,3 °C 4,8 km/h (1 Bft)
14.07.2023 19:37 24,3 °C 27,2 °C 55 % 35 % 1012,1 hPa 0,0 l/m² 5,8 km/h (2 Bft) O-NO 76 ° 0 min 47 W/m² 10,4 °C 27,2 °C 8,0 km/h (2 Bft)
14.07.2023 19:38 24,3 °C 27,2 °C 55 % 36 % 1012,1 hPa 0,0 l/m² 3,1 km/h (1 Bft) O-SO 102 ° 0 min 47 W/m² 10,8 °C 27,2 °C 6,4 km/h (2 Bft)
14.07.2023 19:39 24,4 °C 27,2 °C 55 % 36 % 1012,1 hPa 0,0 l/m² 5,0 km/h (1 Bft) O 92 ° 0 min 47 W/m² 10,8 °C 27,2 °C 6,4 km/h (2 Bft)
14.07.2023 19:40 24,3 °C 27,1 °C 55 % 36 % 1012,0 hPa 0,0 l/m² 9,8 km/h (2 Bft) O 100 ° 0 min 46 W/m² 10,7 °C 26,5 °C 16,1 km/h (3 Bft)
14.07.2023 19:41 24,4 °C 27,1 °C 55 % 36 % 1012,1 hPa 0,0 l/m² 7,3 km/h (2 Bft) O-NO 71 ° 0 min 46 W/m² 10,7 °C 26,9 °C 9,7 km/h (2 Bft)
14.07.2023 19:42 24,4 °C 27,1 °C 55 % 36 % 1012,1 hPa 0,0 l/m² 6,9 km/h (2 Bft) O 88 ° 0 min 44 W/m² 10,7 °C 27,0 °C 9,7 km/h (2 Bft)
14.07.2023 19:43 24,4 °C 27,1 °C 55 % 36 % 1012,0 hPa 0,0 l/m² 7,2 km/h (2 Bft) O-SO 111 ° 0 min 42 W/m² 10,7 °C 27,0 °C 11,3 km/h (2 Bft)
14.07.2023 19:44 24,4 °C 27,1 °C 55 % 36 % 1012,0 hPa 0,0 l/m² 9,9 km/h (2 Bft) SO 128 ° 0 min 39 W/m² 10,7 °C 26,5 °C 11,3 km/h (2 Bft)
14.07.2023 19:45 24,3 °C 27,1 °C 55 % 36 % 1012,1 hPa 0,0 l/m² 8,4 km/h (2 Bft) O-SO 120 ° 0 min 40 W/m² 10,7 °C 26,7 °C 11,3 km/h (2 Bft)
14.07.2023 19:46 24,4 °C 27,0 °C 55 % 36 % 1012,1 hPa 0,0 l/m² 5,5 km/h (2 Bft) SO 137 ° 0 min 40 W/m² 10,6 °C 27,0 °C 8,0 km/h (2 Bft)
14.07.2023 19:47 24,4 °C 27,0 °C 55 % 36 % 1012,0 hPa 0,0 l/m² 4,0 km/h (1 Bft) SO 126 ° 0 min 39 W/m² 10,6 °C 27,0 °C 4,8 km/h (1 Bft)
14.07.2023 19:48 24,3 °C 26,9 °C 55 % 36 % 1012,0 hPa 0,0 l/m² 3,5 km/h (1 Bft) SO 126 ° 0 min 37 W/m² 10,6 °C 26,9 °C 4,8 km/h (1 Bft)
14.07.2023 19:49 24,3 °C 26,9 °C 55 % 36 % 1012,0 hPa 0,0 l/m² 2,9 km/h (1 Bft) SO 126 ° 0 min 37 W/m² 10,6 °C 26,9 °C 3,2 km/h (1 Bft)
14.07.2023 19:50 24,3 °C 26,9 °C 55 % 36 % 1012,0 hPa 0,0 l/m² 3,4 km/h (1 Bft) S-SO 163 ° 0 min 35 W/m² 10,6 °C 26,9 °C 6,4 km/h (2 Bft)
14.07.2023 19:51 24,4 °C 27,0 °C 55 % 36 % 1012,0 hPa 0,0 l/m² 1,9 km/h (1 Bft) S-SO 163 ° 0 min 35 W/m² 10,6 °C 27,0 °C 3,2 km/h (1 Bft)
14.07.2023 19:52 24,3 °C 27,0 °C 55 % 36 % 1012,0 hPa 0,0 l/m² 2,6 km/h (1 Bft) S-SO 163 ° 0 min 37 W/m² 10,6 °C 27,0 °C 3,2 km/h (1 Bft)
14.07.2023 19:53 24,3 °C 27,0 °C 55 % 36 % 1012,1 hPa 0,0 l/m² 2,3 km/h (1 Bft) S-SO 163 ° 0 min 37 W/m² 10,6 °C 27,0 °C 3,2 km/h (1 Bft)
14.07.2023 19:54 24,3 °C 27,1 °C 55 % 36 % 1012,0 hPa 0,0 l/m² 3,6 km/h (1 Bft) S-SO 163 ° 0 min 37 W/m² 10,7 °C 27,1 °C 6,4 km/h (2 Bft)
14.07.2023 19:55 24,3 °C 27,0 °C 55 % 36 % 1012,0 hPa 0,0 l/m² 4,6 km/h (1 Bft) SO 138 ° 0 min 35 W/m² 10,6 °C 27,0 °C 8,0 km/h (2 Bft)
14.07.2023 19:56 24,3 °C 26,9 °C 55 % 36 % 1012,0 hPa 0,0 l/m² 5,1 km/h (1 Bft) S-SO 149 ° 0 min 35 W/m² 10,6 °C 26,9 °C 6,4 km/h (2 Bft)
14.07.2023 19:57 24,4 °C 27,0 °C 55 % 36 % 1011,9 hPa 0,0 l/m² 1,8 km/h (1 Bft) S-SO 149 ° 0 min 35 W/m² 10,6 °C 27,0 °C 3,2 km/h (1 Bft)
14.07.2023 19:58 24,4 °C 27,0 °C 55 % 35 % 1012,0 hPa 0,0 l/m² 0,6 km/h (0 Bft) S-SO 150 ° 0 min 35 W/m² 10,2 °C 27,0 °C 3,2 km/h (1 Bft)
14.07.2023 19:59 24,3 °C 27,0 °C 55 % 35 % 1012,0 hPa 0,0 l/m² 2,8 km/h (1 Bft) S-SO 150 ° 0 min 33 W/m² 10,2 °C 27,0 °C 3,2 km/h (1 Bft)
14.07.2023 20:00 24,3 °C 26,9 °C 55 % 36 % 1012,1 hPa 0,0 l/m² 3,0 km/h (1 Bft) S-SO 150 ° 0 min 33 W/m² 10,6 °C 26,9 °C 4,8 km/h (1 Bft)
14.07.2023 20:01 24,3 °C 26,9 °C 55 % 36 % 1012,0 hPa 0,0 l/m² 0,3 km/h (0 Bft) S-SO 150 ° 0 min 33 W/m² 10,6 °C 26,9 °C 3,2 km/h (1 Bft)
14.07.2023 20:02 24,3 °C 26,9 °C 55 % 37 % 1012,0 hPa 0,0 l/m² 0,0 km/h (0 Bft) S-SO 150 ° 0 min 33 W/m² 11,0 °C 26,9 °C 0,0 km/h (0 Bft)
14.07.2023 20:03 24,4 °C 26,8 °C 55 % 37 % 1012,0 hPa 0,0 l/m² 0,4 km/h (0 Bft) S-SO 150 ° 0 min 33 W/m² 10,9 °C 26,8 °C 1,6 km/h (1 Bft)
14.07.2023 20:04 24,3 °C 26,8 °C 55 % 36 % 1012,0 hPa 0,0 l/m² 0,0 km/h (0 Bft) S-SO 150 ° 0 min 33 W/m² 10,5 °C 26,8 °C 0,0 km/h (0 Bft)
14.07.2023 20:05 24,3 °C 26,8 °C 55 % 37 % 1012,0 hPa 0,0 l/m² 1,7 km/h (1 Bft) S-SO 150 ° 0 min 33 W/m² 10,9 °C 26,8 °C 4,8 km/h (1 Bft)
14.07.2023 20:06 24,3 °C 26,8 °C 55 % 36 % 1011,9 hPa 0,0 l/m² 2,1 km/h (1 Bft) SO 142 ° 0 min 33 W/m² 10,5 °C 26,8 °C 3,2 km/h (1 Bft)
14.07.2023 20:07 24,3 °C 26,7 °C 55 % 36 % 1012,0 hPa 0,0 l/m² 1,4 km/h (1 Bft) SO 142 ° 0 min 32 W/m² 10,4 °C 26,7 °C 3,2 km/h (1 Bft)
14.07.2023 20:08 24,3 °C 26,7 °C 55 % 37 % 1012,1 hPa 0,0 l/m² 0,6 km/h (0 Bft) SO 142 ° 0 min 32 W/m² 10,8 °C 26,7 °C 3,2 km/h (1 Bft)
14.07.2023 20:09 24,3 °C 26,7 °C 55 % 37 % 1012,0 hPa 0,0 l/m² 0,8 km/h (0 Bft) SO 142 ° 0 min 30 W/m² 10,8 °C 26,7 °C 1,6 km/h (1 Bft)
14.07.2023 20:10 24,3 °C 26,6 °C 55 % 39 % 1012,0 hPa 0,0 l/m² 0,0 km/h (0 Bft) SO 142 ° 0 min 30 W/m² 11,5 °C 26,6 °C 0,0 km/h (0 Bft)
14.07.2023 20:11 24,3 °C 26,5 °C 55 % 37 % 1012,0 hPa 0,0 l/m² 0,3 km/h (0 Bft) SO 142 ° 0 min 30 W/m² 10,6 °C 26,5 °C 1,6 km/h (1 Bft)
14.07.2023 20:12 24,3 °C 26,4 °C 55 % 38 % 1012,0 hPa 0,0 l/m² 3,0 km/h (1 Bft) SO 133 ° 0 min 30 W/m² 10,9 °C 26,4 °C 4,8 km/h (1 Bft)
14.07.2023 20:13 24,3 °C 26,4 °C 55 % 38 % 1012,0 hPa 0,0 l/m² 3,1 km/h (1 Bft) SO 133 ° 0 min 30 W/m² 10,9 °C 26,4 °C 4,8 km/h (1 Bft)
14.07.2023 20:14 24,3 °C 26,4 °C 55 % 39 % 1012,0 hPa 0,0 l/m² 1,6 km/h (1 Bft) SO 133 ° 0 min 30 W/m² 11,3 °C 26,4 °C 3,2 km/h (1 Bft)
14.07.2023 20:15 24,3 °C 26,3 °C 55 % 38 % 1012,1 hPa 0,0 l/m² 1,7 km/h (1 Bft) SO 130 ° 0 min 28 W/m² 10,8 °C 26,3 °C 3,2 km/h (1 Bft)
14.07.2023 20:16 24,3 °C 26,4 °C 55 % 39 % 1012,0 hPa 0,0 l/m² 1,5 km/h (1 Bft) SO 130 ° 0 min 26 W/m² 11,3 °C 26,4 °C 3,2 km/h (1 Bft)
14.07.2023 20:17 24,3 °C 26,3 °C 55 % 38 % 1012,1 hPa 0,0 l/m² 1,9 km/h (1 Bft) SO 130 ° 0 min 26 W/m² 10,8 °C 26,3 °C 3,2 km/h (1 Bft)
14.07.2023 20:18 24,3 °C 26,2 °C 55 % 40 % 1012,1 hPa 0,0 l/m² 2,5 km/h (1 Bft) SO 130 ° 0 min 26 W/m² 11,5 °C 26,2 °C 3,2 km/h (1 Bft)
14.07.2023 20:19 24,3 °C 26,1 °C 55 % 42 % 1012,0 hPa 0,0 l/m² 2,2 km/h (1 Bft) SO 130 ° 0 min 26 W/m² 12,2 °C 26,1 °C 3,2 km/h (1 Bft)
14.07.2023 20:20 24,3 °C 25,9 °C 55 % 44 % 1012,1 hPa 0,0 l/m² 3,1 km/h (1 Bft) O-SO 121 ° 0 min 25 W/m² 12,7 °C 25,9 °C 4,8 km/h (1 Bft)
14.07.2023 20:21 24,3 °C 25,7 °C 55 % 41 % 1012,0 hPa 0,0 l/m² 3,0 km/h (1 Bft) O-SO 121 ° 0 min 25 W/m² 11,4 °C 25,7 °C 4,8 km/h (1 Bft)
14.07.2023 20:22 24,3 °C 25,6 °C 55 % 42 % 1012,1 hPa 0,0 l/m² 2,0 km/h (1 Bft) O-SO 121 ° 0 min 25 W/m² 11,7 °C 25,6 °C 3,2 km/h (1 Bft)
14.07.2023 20:23 24,3 °C 25,4 °C 55 % 42 % 1012,0 hPa 0,0 l/m² 1,0 km/h (0 Bft) O-SO 121 ° 0 min 23 W/m² 11,5 °C 25,4 °C 1,6 km/h (1 Bft)
14.07.2023 20:24 24,3 °C 25,3 °C 55 % 43 % 1012,1 hPa 0,0 l/m² 0,4 km/h (0 Bft) O-SO 121 ° 0 min 23 W/m² 11,8 °C 25,3 °C 1,6 km/h (1 Bft)
14.07.2023 20:25 24,3 °C 25,2 °C 55 % 43 % 1012,2 hPa 0,0 l/m² 1,9 km/h (1 Bft) O-SO 121 ° 0 min 23 W/m² 11,7 °C 25,2 °C 3,2 km/h (1 Bft)
14.07.2023 20:26 24,3 °C 25,1 °C 55 % 43 % 1012,1 hPa 0,0 l/m² 3,7 km/h (1 Bft) O 89 ° 0 min 23 W/m² 11,6 °C 25,1 °C 4,8 km/h (1 Bft)
14.07.2023 20:27 24,3 °C 24,9 °C 56 % 43 % 1012,0 hPa 0,0 l/m² 3,4 km/h (1 Bft) O 89 ° 0 min 23 W/m² 11,4 °C 24,9 °C 4,8 km/h (1 Bft)
14.07.2023 20:28 24,3 °C 24,9 °C 55 % 43 % 1012,1 hPa 0,0 l/m² 3,1 km/h (1 Bft) O 89 ° 0 min 21 W/m² 11,4 °C 24,9 °C 3,2 km/h (1 Bft)
14.07.2023 20:29 24,3 °C 24,8 °C 55 % 43 % 1012,1 hPa 0,0 l/m² 3,6 km/h (1 Bft) O 89 ° 0 min 21 W/m² 11,4 °C 24,8 °C 4,8 km/h (1 Bft)
14.07.2023 20:30 24,3 °C 24,8 °C 55 % 44 % 1012,0 hPa 0,0 l/m² 2,8 km/h (1 Bft) O 89 ° 0 min 21 W/m² 11,7 °C 24,8 °C 4,8 km/h (1 Bft)
14.07.2023 20:31 24,3 °C 24,8 °C 55 % 43 % 1012,0 hPa 0,0 l/m² 2,7 km/h (1 Bft) O 89 ° 0 min 21 W/m² 11,4 °C 24,8 °C 4,8 km/h (1 Bft)
14.07.2023 20:32 24,3 °C 24,9 °C 55 % 43 % 1012,0 hPa 0,0 l/m² 2,9 km/h (1 Bft) O 89 ° 0 min 19 W/m² 11,4 °C 24,9 °C 3,2 km/h (1 Bft)
14.07.2023 20:33 24,3 °C 24,9 °C 55 % 43 % 1012,0 hPa 0,0 l/m² 3,2 km/h (1 Bft) O 89 ° 0 min 19 W/m² 11,4 °C 24,9 °C 4,8 km/h (1 Bft)
14.07.2023 20:34 24,3 °C 24,9 °C 55 % 43 % 1012,0 hPa 0,0 l/m² 2,1 km/h (1 Bft) O 89 ° 0 min 19 W/m² 11,4 °C 24,9 °C 3,2 km/h (1 Bft)
14.07.2023 20:35 24,3 °C 24,8 °C 55 % 43 % 1012,0 hPa 0,0 l/m² 1,0 km/h (0 Bft) O 88 ° 0 min 19 W/m² 11,4 °C 24,8 °C 3,2 km/h (1 Bft)
14.07.2023 20:36 24,3 °C 24,8 °C 56 % 43 % 1012,0 hPa 0,0 l/m² 2,5 km/h (1 Bft) O 84 ° 0 min 19 W/m² 11,4 °C 24,8 °C 4,8 km/h (1 Bft)
14.07.2023 20:37 24,3 °C 24,8 °C 55 % 43 % 1012,0 hPa 0,0 l/m² 3,5 km/h (1 Bft) O-NO 76 ° 0 min 19 W/m² 11,4 °C 24,8 °C 4,8 km/h (1 Bft)
14.07.2023 20:38 24,3 °C 24,8 °C 56 % 43 % 1012,0 hPa 0,0 l/m² 3,3 km/h (1 Bft) O 80 ° 0 min 19 W/m² 11,4 °C 24,8 °C 4,8 km/h (1 Bft)
14.07.2023 20:39 24,3 °C 24,8 °C 55 % 43 % 1012,0 hPa 0,0 l/m² 3,4 km/h (1 Bft) O-NO 70 ° 0 min 18 W/m² 11,4 °C 24,8 °C 4,8 km/h (1 Bft)
14.07.2023 20:40 24,3 °C 24,8 °C 56 % 43 % 1012,0 hPa 0,0 l/m² 3,4 km/h (1 Bft) O-NO 65 ° 0 min 19 W/m² 11,4 °C 24,8 °C 4,8 km/h (1 Bft)
14.07.2023 20:41 24,3 °C 24,8 °C 56 % 43 % 1012,0 hPa 0,0 l/m² 2,7 km/h (1 Bft) O-NO 69 ° 0 min 19 W/m² 11,4 °C 24,8 °C 4,8 km/h (1 Bft)
14.07.2023 20:42 24,3 °C 24,7 °C 56 % 44 % 1012,0 hPa 0,0 l/m² 3,0 km/h (1 Bft) O-NO 68 ° 0 min 18 W/m² 11,6 °C 24,7 °C 4,8 km/h (1 Bft)
14.07.2023 20:43 24,3 °C 24,7 °C 56 % 43 % 1011,9 hPa 0,0 l/m² 3,6 km/h (1 Bft) O-NO 74 ° 0 min 18 W/m² 11,3 °C 24,7 °C 4,8 km/h (1 Bft)
14.07.2023 20:44 24,3 °C 24,7 °C 56 % 43 % 1012,0 hPa 0,0 l/m² 3,9 km/h (1 Bft) O-NO 76 ° 0 min 18 W/m² 11,3 °C 24,7 °C 4,8 km/h (1 Bft)
14.07.2023 20:45 24,3 °C 24,7 °C 55 % 44 % 1011,9 hPa 0,0 l/m² 3,6 km/h (1 Bft) O-NO 73 ° 0 min 18 W/m² 11,6 °C 24,7 °C 4,8 km/h (1 Bft)
14.07.2023 20:46 24,3 °C 24,6 °C 55 % 44 % 1011,9 hPa 0,0 l/m² 2,7 km/h (1 Bft) O-NO 73 ° 0 min 18 W/m² 11,5 °C 24,6 °C 3,2 km/h (1 Bft)
14.07.2023 20:47 24,3 °C 24,6 °C 56 % 44 % 1012,0 hPa 0,0 l/m² 4,1 km/h (1 Bft) O-NO 73 ° 0 min 18 W/m² 11,5 °C 24,6 °C 4,8 km/h (1 Bft)
14.07.2023 20:48 24,3 °C 24,4 °C 56 % 45 % 1012,0 hPa 0,0 l/m² 4,4 km/h (1 Bft) O-NO 72 ° 0 min 16 W/m² 11,7 °C 24,4 °C 4,8 km/h (1 Bft)
14.07.2023 20:49 24,3 °C 24,4 °C 56 % 44 % 1012,0 hPa 0,0 l/m² 3,4 km/h (1 Bft) O-NO 72 ° 0 min 16 W/m² 11,3 °C 24,4 °C 4,8 km/h (1 Bft)
14.07.2023 20:50 24,3 °C 24,2 °C 56 % 45 % 1012,0 hPa 0,0 l/m² 3,9 km/h (1 Bft) O-NO 72 ° 0 min 16 W/m² 11,5 °C 24,2 °C 4,8 km/h (1 Bft)
14.07.2023 20:51 24,3 °C 23,9 °C 56 % 46 % 1012,1 hPa 0,0 l/m² 2,5 km/h (1 Bft) O-NO 72 ° 0 min 16 W/m² 11,6 °C 23,9 °C 3,2 km/h (1 Bft)
14.07.2023 20:52 24,3 °C 23,7 °C 56 % 47 % 1012,0 hPa 0,0 l/m² 1,1 km/h (1 Bft) O-NO 72 ° 0 min 16 W/m² 11,7 °C 23,7 °C 1,6 km/h (1 Bft)
14.07.2023 20:53 24,3 °C 23,6 °C 56 % 47 % 1012,1 hPa 0,0 l/m² 1,5 km/h (1 Bft) O-NO 72 ° 0 min 16 W/m² 11,6 °C 23,6 °C 3,2 km/h (1 Bft)
14.07.2023 20:54 24,3 °C 23,4 °C 56 % 48 % 1012,0 hPa 0,0 l/m² 2,8 km/h (1 Bft) O-NO 72 ° 0 min 16 W/m² 11,8 °C 23,4 °C 4,8 km/h (1 Bft)
14.07.2023 20:55 24,3 °C 23,5 °C 56 % 48 % 1012,1 hPa 0,0 l/m² 2,5 km/h (1 Bft) O-NO 72 ° 0 min 14 W/m² 11,8 °C 23,5 °C 3,2 km/h (1 Bft)
14.07.2023 20:56 24,3 °C 23,6 °C 56 % 47 % 1012,0 hPa 0,0 l/m² 2,3 km/h (1 Bft) O-NO 72 ° 0 min 14 W/m² 11,6 °C 23,6 °C 3,2 km/h (1 Bft)
14.07.2023 20:57 24,3 °C 23,6 °C 56 % 47 % 1012,0 hPa 0,0 l/m² 2,5 km/h (1 Bft) O-NO 72 ° 0 min 14 W/m² 11,6 °C 23,6 °C 4,8 km/h (1 Bft)
14.07.2023 20:58 24,3 °C 23,7 °C 56 % 47 % 1012,0 hPa 0,0 l/m² 1,8 km/h (1 Bft) O-NO 72 ° 0 min 14 W/m² 11,7 °C 23,7 °C 3,2 km/h (1 Bft)
14.07.2023 20:59 24,3 °C 23,7 °C 56 % 47 % 1012,1 hPa 0,0 l/m² 0,8 km/h (0 Bft) O-NO 72 ° 0 min 12 W/m² 11,7 °C 23,7 °C 1,6 km/h (1 Bft)
14.07.2023 21:00 24,3 °C 23,7 °C 56 % 47 % 1012,0 hPa 0,0 l/m² 0,6 km/h (0 Bft) O-NO 72 ° 0 min 12 W/m² 11,7 °C 23,7 °C 1,6 km/h (1 Bft)
14.07.2023 21:01 24,3 °C 23,7 °C 56 % 48 % 1012,0 hPa 0,0 l/m² 0,2 km/h (0 Bft) O-NO 72 ° 0 min 12 W/m² 12,0 °C 23,7 °C 1,6 km/h (1 Bft)
14.07.2023 21:02 24,3 °C 23,6 °C 56 % 49 % 1012,1 hPa 0,0 l/m² 0,0 km/h (0 Bft) O-NO 72 ° 0 min 11 W/m² 12,2 °C 23,6 °C 0,0 km/h (0 Bft)
14.07.2023 21:03 24,3 °C 23,6 °C 56 % 48 % 1012,1 hPa 0,0 l/m² 0,0 km/h (0 Bft) O-NO 72 ° 0 min 11 W/m² 11,9 °C 23,6 °C 0,0 km/h (0 Bft)
14.07.2023 21:04 24,3 °C 23,4 °C 56 % 49 % 1012,0 hPa 0,0 l/m² 1,5 km/h (1 Bft) O-NO 72 ° 0 min 11 W/m² 12,1 °C 23,4 °C 1,6 km/h (1 Bft)
14.07.2023 21:05 24,3 °C 23,4 °C 56 % 49 % 1012,1 hPa 0,0 l/m² 1,6 km/h (1 Bft) O-NO 72 ° 0 min 11 W/m² 12,1 °C 23,4 °C 3,2 km/h (1 Bft)
14.07.2023 21:06 24,3 °C 23,3 °C 56 % 49 % 1012,0 hPa 0,0 l/m² 2,1 km/h (1 Bft) O-NO 72 ° 0 min 9 W/m² 12,0 °C 23,3 °C 3,2 km/h (1 Bft)
14.07.2023 21:07 24,3 °C 23,3 °C 56 % 49 % 1011,9 hPa 0,0 l/m² 1,9 km/h (1 Bft) O-NO 72 ° 0 min 9 W/m² 12,0 °C 23,3 °C 3,2 km/h (1 Bft)
14.07.2023 21:08 24,3 °C 23,2 °C 56 % 49 % 1011,9 hPa 0,0 l/m² 1,7 km/h (1 Bft) O-NO 72 ° 0 min 9 W/m² 11,9 °C 23,2 °C 3,2 km/h (1 Bft)
14.07.2023 21:09 24,3 °C 23,2 °C 56 % 49 % 1011,9 hPa 0,0 l/m² 0,8 km/h (0 Bft) O-NO 72 ° 0 min 7 W/m² 11,9 °C 23,2 °C 1,6 km/h (1 Bft)
14.07.2023 21:10 24,3 °C 23,1 °C 56 % 49 % 1011,9 hPa 0,0 l/m² 1,2 km/h (1 Bft) O-NO 72 ° 0 min 7 W/m² 11,8 °C 23,1 °C 1,6 km/h (1 Bft)
14.07.2023 21:12 24,3 °C 22,7 °C 56 % 51 % 1011,8 hPa 0,0 l/m² 2,1 km/h (1 Bft) O-NO 72 ° 0 min 7 W/m² 12,0 °C 22,7 °C 3,2 km/h (1 Bft)
14.07.2023 21:13 24,3 °C 22,6 °C 56 % 51 % 1011,8 hPa 0,0 l/m² 2,1 km/h (1 Bft) O-NO 72 ° 0 min 7 W/m² 11,9 °C 22,6 °C 3,2 km/h (1 Bft)
14.07.2023 21:14 24,3 °C 22,4 °C 56 % 51 % 1011,8 hPa 0,0 l/m² 1,7 km/h (1 Bft) O-NO 72 ° 0 min 5 W/m² 11,8 °C 22,4 °C 3,2 km/h (1 Bft)
14.07.2023 21:15 24,3 °C 22,3 °C 56 % 51 % 1011,8 hPa 0,0 l/m² 2,2 km/h (1 Bft) O-NO 72 ° 0 min 5 W/m² 11,7 °C 22,3 °C 3,2 km/h (1 Bft)
14.07.2023 21:16 24,3 °C 22,3 °C 56 % 51 % 1011,8 hPa 0,0 l/m² 2,5 km/h (1 Bft) O-NO 72 ° 0 min 5 W/m² 11,7 °C 22,3 °C 3,2 km/h (1 Bft)
14.07.2023 21:17 24,3 °C 22,3 °C 56 % 51 % 1011,8 hPa 0,0 l/m² 1,7 km/h (1 Bft) O-NO 72 ° 0 min 5 W/m² 11,7 °C 22,3 °C 3,2 km/h (1 Bft)
14.07.2023 21:18 24,3 °C 22,4 °C 56 % 51 % 1011,8 hPa 0,0 l/m² 0,6 km/h (0 Bft) O-NO 72 ° 0 min 5 W/m² 11,8 °C 22,4 °C 1,6 km/h (1 Bft)
14.07.2023 21:19 24,3 °C 22,4 °C 56 % 52 % 1011,8 hPa 0,0 l/m² 0,0 km/h (0 Bft) O-NO 72 ° 0 min 5 W/m² 12,1 °C 22,4 °C 0,0 km/h (0 Bft)
14.07.2023 21:20 24,3 °C 22,4 °C 56 % 52 % 1011,9 hPa 0,0 l/m² 0,0 km/h (0 Bft) O-NO 72 ° 0 min 0 W/m² 12,1 °C 22,4 °C 0,0 km/h (0 Bft)
14.07.2023 21:21 24,3 °C 22,3 °C 56 % 52 % 1011,9 hPa 0,0 l/m² 0,0 km/h (0 Bft) O-NO 72 ° 0 min 0 W/m² 12,0 °C 22,3 °C 0,0 km/h (0 Bft)
14.07.2023 21:22 24,3 °C 22,2 °C 56 % 52 % 1011,9 hPa 0,0 l/m² 0,4 km/h (0 Bft) O-NO 72 ° 0 min 0 W/m² 11,9 °C 22,2 °C 1,6 km/h (1 Bft)
14.07.2023 21:23 24,3 °C 22,2 °C 56 % 52 % 1011,9 hPa 0,0 l/m² 1,2 km/h (1 Bft) O-NO 72 ° 0 min 0 W/m² 11,9 °C 22,2 °C 1,6 km/h (1 Bft)
14.07.2023 21:24 24,3 °C 22,2 °C 56 % 52 % 1011,9 hPa 0,0 l/m² 0,5 km/h (0 Bft) O-NO 72 ° 0 min 0 W/m² 11,9 °C 22,2 °C 1,6 km/h (1 Bft)
14.07.2023 21:25 24,3 °C 22,2 °C 56 % 53 % 1011,9 hPa 0,0 l/m² 0,5 km/h (0 Bft) O-NO 72 ° 0 min 0 W/m² 12,2 °C 22,2 °C 1,6 km/h (1 Bft)
14.07.2023 21:27 24,3 °C 22,1 °C 56 % 52 % 1011,9 hPa 0,0 l/m² 0,3 km/h (0 Bft) O-NO 72 ° 0 min 0 W/m² 11,8 °C 22,1 °C 1,6 km/h (1 Bft)
14.07.2023 21:28 24,3 °C 22,1 °C 56 % 52 % 1011,9 hPa 0,0 l/m² 1,1 km/h (1 Bft) O-NO 72 ° 0 min 0 W/m² 11,8 °C 22,1 °C 1,6 km/h (1 Bft)
14.07.2023 21:29 24,3 °C 22,1 °C 56 % 53 % 1011,8 hPa 0,0 l/m² 1,4 km/h (1 Bft) O-NO 72 ° 0 min 0 W/m² 12,1 °C 22,1 °C 3,2 km/h (1 Bft)
14.07.2023 21:30 24,3 °C 21,9 °C 56 % 53 % 1011,8 hPa 0,0 l/m² 1,8 km/h (1 Bft) O-NO 72 ° 0 min 0 W/m² 11,9 °C 21,9 °C 3,2 km/h (1 Bft)
14.07.2023 21:31 24,3 °C 21,8 °C 56 % 53 % 1011,8 hPa 0,0 l/m² 2,7 km/h (1 Bft) O-NO 72 ° 0 min 0 W/m² 11,8 °C 21,8 °C 3,2 km/h (1 Bft)
14.07.2023 21:32 24,3 °C 21,7 °C 56 % 53 % 1011,8 hPa 0,0 l/m² 1,9 km/h (1 Bft) O-NO 72 ° 0 min 0 W/m² 11,7 °C 21,7 °C 3,2 km/h (1 Bft)
14.07.2023 21:33 24,3 °C 21,6 °C 56 % 53 % 1011,9 hPa 0,0 l/m² 2,1 km/h (1 Bft) O-NO 72 ° 0 min 0 W/m² 11,6 °C 21,6 °C 3,2 km/h (1 Bft)
14.07.2023 21:34 24,3 °C 21,4 °C 56 % 53 % 1011,9 hPa 0,0 l/m² 2,7 km/h (1 Bft) O-NO 70 ° 0 min 0 W/m² 11,4 °C 21,4 °C 4,8 km/h (1 Bft)
14.07.2023 21:35 24,3 °C 21,3 °C 56 % 54 % 1011,9 hPa 0,0 l/m² 2,7 km/h (1 Bft) O-NO 70 ° 0 min 0 W/m² 11,6 °C 21,3 °C 4,8 km/h (1 Bft)
14.07.2023 21:36 24,3 °C 21,2 °C 56 % 54 % 1012,0 hPa 0,0 l/m² 2,8 km/h (1 Bft) O-NO 70 ° 0 min 0 W/m² 11,5 °C 21,2 °C 3,2 km/h (1 Bft)
14.07.2023 21:37 24,3 °C 21,2 °C 56 % 54 % 1011,9 hPa 0,0 l/m² 2,2 km/h (1 Bft) O-NO 69 ° 0 min 0 W/m² 11,5 °C 21,2 °C 3,2 km/h (1 Bft)
14.07.2023 21:38 24,3 °C 21,2 °C 56 % 54 % 1011,9 hPa 0,0 l/m² 2,3 km/h (1 Bft) O-NO 69 ° 0 min 0 W/m² 11,5 °C 21,2 °C 3,2 km/h (1 Bft)
14.07.2023 21:39 24,3 °C 21,2 °C 56 % 54 % 1011,9 hPa 0,0 l/m² 2,9 km/h (1 Bft) O-NO 69 ° 0 min 0 W/m² 11,5 °C 21,2 °C 4,8 km/h (1 Bft)
14.07.2023 21:40 24,3 °C 21,3 °C 56 % 54 % 1012,0 hPa 0,0 l/m² 3,7 km/h (1 Bft) O-NO 66 ° 0 min 0 W/m² 11,6 °C 21,3 °C 6,4 km/h (2 Bft)
14.07.2023 21:41 24,3 °C 21,3 °C 56 % 54 % 1011,9 hPa 0,0 l/m² 2,2 km/h (1 Bft) O-NO 66 ° 0 min 0 W/m² 11,6 °C 21,3 °C 3,2 km/h (1 Bft)
14.07.2023 21:42 24,3 °C 21,3 °C 56 % 53 % 1012,0 hPa 0,0 l/m² 2,5 km/h (1 Bft) O-NO 66 ° 0 min 0 W/m² 11,3 °C 21,3 °C 3,2 km/h (1 Bft)
14.07.2023 21:43 24,3 °C 21,3 °C 56 % 53 % 1012,0 hPa 0,0 l/m² 2,7 km/h (1 Bft) O-NO 66 ° 0 min 0 W/m² 11,3 °C 21,3 °C 4,8 km/h (1 Bft)
14.07.2023 21:44 24,3 °C 21,2 °C 56 % 53 % 1012,0 hPa 0,0 l/m² 2,9 km/h (1 Bft) O-NO 66 ° 0 min 0 W/m² 11,2 °C 21,2 °C 4,8 km/h (1 Bft)
14.07.2023 21:46 24,3 °C 20,8 °C 56 % 54 % 1012,0 hPa 0,0 l/m² 2,1 km/h (1 Bft) O-NO 65 ° 0 min 0 W/m² 11,1 °C 20,8 °C 3,2 km/h (1 Bft)
14.07.2023 21:47 24,3 °C 20,5 °C 56 % 56 % 1012,0 hPa 0,0 l/m² 2,4 km/h (1 Bft) O-NO 65 ° 0 min 0 W/m² 11,4 °C 20,5 °C 3,2 km/h (1 Bft)
14.07.2023 21:48 24,3 °C 20,3 °C 56 % 57 % 1012,0 hPa 0,0 l/m² 2,2 km/h (1 Bft) O-NO 65 ° 0 min 0 W/m² 11,5 °C 20,3 °C 3,2 km/h (1 Bft)
14.07.2023 21:49 24,3 °C 20,1 °C 56 % 57 % 1012,1 hPa 0,0 l/m² 2,5 km/h (1 Bft) O-NO 65 ° 0 min 0 W/m² 11,3 °C 20,1 °C 3,2 km/h (1 Bft)
14.07.2023 21:50 24,3 °C 19,9 °C 56 % 58 % 1012,0 hPa 0,0 l/m² 2,0 km/h (1 Bft) O-NO 65 ° 0 min 0 W/m² 11,4 °C 19,9 °C 3,2 km/h (1 Bft)
14.07.2023 21:52 24,3 °C 19,7 °C 56 % 59 % 1012,0 hPa 0,0 l/m² 2,6 km/h (1 Bft) O-NO 65 ° 0 min 0 W/m² 11,5 °C 19,7 °C 4,8 km/h (1 Bft)
14.07.2023 21:53 24,3 °C 19,7 °C 56 % 60 % 1012,0 hPa 0,0 l/m² 2,7 km/h (1 Bft) O-NO 65 ° 0 min 0 W/m² 11,7 °C 19,7 °C 3,2 km/h (1 Bft)
14.07.2023 21:54 24,3 °C 19,6 °C 56 % 60 % 1012,0 hPa 0,0 l/m² 2,6 km/h (1 Bft) O-NO 65 ° 0 min 0 W/m² 11,6 °C 19,6 °C 3,2 km/h (1 Bft)
14.07.2023 21:55 24,3 °C 19,6 °C 56 % 60 % 1012,0 hPa 0,0 l/m² 2,7 km/h (1 Bft) O-NO 65 ° 0 min 0 W/m² 11,6 °C 19,6 °C 3,2 km/h (1 Bft)
14.07.2023 21:56 24,3 °C 19,5 °C 56 % 60 % 1012,1 hPa 0,0 l/m² 2,1 km/h (1 Bft) O-NO 65 ° 0 min 0 W/m² 11,5 °C 19,5 °C 3,2 km/h (1 Bft)
14.07.2023 21:57 24,3 °C 19,5 °C 56 % 60 % 1012,0 hPa 0,0 l/m² 2,3 km/h (1 Bft) O-NO 65 ° 0 min 0 W/m² 11,5 °C 19,5 °C 4,8 km/h (1 Bft)
14.07.2023 21:58 24,3 °C 19,4 °C 56 % 61 % 1012,1 hPa 0,0 l/m² 1,7 km/h (1 Bft) O-NO 65 ° 0 min 0 W/m² 11,7 °C 19,4 °C 3,2 km/h (1 Bft)
14.07.2023 21:59 24,3 °C 19,3 °C 56 % 61 % 1012,0 hPa 0,0 l/m² 2,3 km/h (1 Bft) O-NO 65 ° 0 min 0 W/m² 11,6 °C 19,3 °C 3,2 km/h (1 Bft)
14.07.2023 22:00 24,3 °C 19,3 °C 56 % 61 % 1012,1 hPa 0,0 l/m² 1,6 km/h (1 Bft) O-NO 65 ° 0 min 0 W/m² 11,6 °C 19,3 °C 3,2 km/h (1 Bft)
14.07.2023 22:01 24,3 °C 19,3 °C 56 % 61 % 1012,1 hPa 0,0 l/m² 1,6 km/h (1 Bft) O-NO 65 ° 0 min 0 W/m² 11,6 °C 19,3 °C 3,2 km/h (1 Bft)
14.07.2023 22:02 24,3 °C 19,2 °C 56 % 61 % 1012,2 hPa 0,0 l/m² 1,5 km/h (1 Bft) O-NO 65 ° 0 min 0 W/m² 11,5 °C 19,2 °C 3,2 km/h (1 Bft)
14.07.2023 22:03 24,3 °C 19,1 °C 56 % 61 % 1012,1 hPa 0,0 l/m² 1,2 km/h (1 Bft) O-NO 65 ° 0 min 0 W/m² 11,4 °C 19,1 °C 1,6 km/h (1 Bft)
14.07.2023 22:04 24,3 °C 19,1 °C 56 % 62 % 1012,1 hPa 0,0 l/m² 1,7 km/h (1 Bft) O-NO 65 ° 0 min 0 W/m² 11,6 °C 19,1 °C 3,2 km/h (1 Bft)
14.07.2023 22:05 24,3 °C 19,0 °C 56 % 63 % 1012,1 hPa 0,0 l/m² 1,5 km/h (1 Bft) O-NO 65 ° 0 min 0 W/m² 11,8 °C 19,0 °C 1,6 km/h (1 Bft)
14.07.2023 22:07 24,3 °C 19,0 °C 56 % 64 % 1012,1 hPa 0,0 l/m² 1,6 km/h (1 Bft) O-NO 65 ° 0 min 0 W/m² 12,0 °C 19,0 °C 3,2 km/h (1 Bft)
14.07.2023 22:08 24,3 °C 19,0 °C 56 % 64 % 1012,1 hPa 0,0 l/m² 1,9 km/h (1 Bft) O-NO 65 ° 0 min 0 W/m² 12,0 °C 19,0 °C 3,2 km/h (1 Bft)
14.07.2023 22:09 24,3 °C 19,0 °C 56 % 63 % 1012,1 hPa 0,0 l/m² 1,4 km/h (1 Bft) O-NO 65 ° 0 min 0 W/m² 11,8 °C 19,0 °C 3,2 km/h (1 Bft)
14.07.2023 22:10 24,3 °C 19,0 °C 56 % 62 % 1012,1 hPa 0,0 l/m² 1,1 km/h (1 Bft) O-NO 65 ° 0 min 0 W/m² 11,6 °C 19,0 °C 1,6 km/h (1 Bft)
14.07.2023 22:11 24,3 °C 18,9 °C 56 % 63 % 1012,2 hPa 0,0 l/m² 0,2 km/h (0 Bft) O-NO 65 ° 0 min 0 W/m² 11,7 °C 18,9 °C 1,6 km/h (1 Bft)
14.07.2023 22:12 24,3 °C 18,8 °C 56 % 63 % 1012,1 hPa 0,0 l/m² 0,1 km/h (0 Bft) O-NO 65 ° 0 min 0 W/m² 11,6 °C 18,8 °C 1,6 km/h (1 Bft)
14.07.2023 22:13 24,3 °C 18,8 °C 56 % 64 % 1012,2 hPa 0,0 l/m² 0,0 km/h (0 Bft) O-NO 65 ° 0 min 0 W/m² 11,8 °C 18,8 °C 0,0 km/h (0 Bft)
14.07.2023 22:14 24,3 °C 18,7 °C 56 % 64 % 1012,1 hPa 0,0 l/m² 0,0 km/h (0 Bft) O-NO 65 ° 0 min 0 W/m² 11,7 °C 18,7 °C 0,0 km/h (0 Bft)
14.07.2023 22:15 24,3 °C 18,6 °C 56 % 64 % 1012,2 hPa 0,0 l/m² 0,0 km/h (0 Bft) O-NO 65 ° 0 min 0 W/m² 11,7 °C 18,6 °C 0,0 km/h (0 Bft)
14.07.2023 22:17 24,3 °C 18,6 °C 56 % 65 % 1012,2 hPa 0,0 l/m² 0,0 km/h (0 Bft) O-NO 65 ° 0 min 0 W/m² 11,9 °C 18,6 °C 0,0 km/h (0 Bft)
14.07.2023 22:18 24,3 °C 18,6 °C 56 % 65 % 1012,2 hPa 0,0 l/m² 0,0 km/h (0 Bft) O-NO 65 ° 0 min 0 W/m² 11,9 °C 18,6 °C 0,0 km/h (0 Bft)
14.07.2023 22:19 24,3 °C 18,6 °C 56 % 65 % 1012,2 hPa 0,0 l/m² 0,0 km/h (0 Bft) O-NO 65 ° 0 min 0 W/m² 11,9 °C 18,6 °C 0,0 km/h (0 Bft)
14.07.2023 22:20 24,3 °C 18,6 °C 56 % 65 % 1012,2 hPa 0,0 l/m² 0,0 km/h (0 Bft) N 0 ° 0 min 0 W/m² 11,9 °C 18,6 °C 0,0 km/h (0 Bft)
14.07.2023 22:21 24,3 °C 18,6 °C 56 % 65 % 1012,2 hPa 0,0 l/m² 0,0 km/h (0 Bft) N 0 ° 0 min 0 W/m² 11,9 °C 18,6 °C 0,0 km/h (0 Bft)
14.07.2023 22:27 24,3 °C 18,3 °C 56 % 68 % 1012,2 hPa 0,0 l/m² 0,0 km/h (0 Bft) O-NO 65 ° 0 min 0 W/m² 12,3 °C 18,3 °C 0,0 km/h (0 Bft)
14.07.2023 22:29 24,3 °C 18,2 °C 56 % 69 % 1012,1 hPa 0,0 l/m² 0,0 km/h (0 Bft) O-NO 65 ° 0 min 0 W/m² 12,4 °C 18,2 °C 0,0 km/h (0 Bft)
14.07.2023 22:31 24,3 °C 18,1 °C 56 % 72 % 1012,0 hPa 0,0 l/m² 0,0 km/h (0 Bft) O-NO 65 ° 0 min 0 W/m² 13,0 °C 18,1 °C 0,0 km/h (0 Bft)
14.07.2023 22:32 24,3 °C 18,1 °C 56 % 72 % 1012,1 hPa 0,0 l/m² 0,5 km/h (0 Bft) O-NO 65 ° 0 min 0 W/m² 13,0 °C 18,1 °C 1,6 km/h (1 Bft)
14.07.2023 22:33 24,3 °C 18,1 °C 56 % 72 % 1012,1 hPa 0,0 l/m² 1,2 km/h (1 Bft) O-NO 65 ° 0 min 0 W/m² 13,0 °C 18,1 °C 1,6 km/h (1 Bft)
14.07.2023 22:35 24,3 °C 18,1 °C 56 % 70 % 1012,0 hPa 0,0 l/m² 0,0 km/h (0 Bft) O-NO 65 ° 0 min 0 W/m² 12,5 °C 18,1 °C 0,0 km/h (0 Bft)
14.07.2023 22:36 24,3 °C 18,1 °C 56 % 70 % 1011,9 hPa 0,0 l/m² 0,1 km/h (0 Bft) O-NO 65 ° 0 min 0 W/m² 12,5 °C 18,1 °C 1,6 km/h (1 Bft)
14.07.2023 22:38 24,3 °C 18,1 °C 56 % 69 % 1011,9 hPa 0,0 l/m² 0,5 km/h (0 Bft) O-NO 65 ° 0 min 0 W/m² 12,3 °C 18,1 °C 3,2 km/h (1 Bft)
14.07.2023 22:40 24,3 °C 18,1 °C 56 % 69 % 1012,0 hPa 0,0 l/m² 1,9 km/h (1 Bft) O-NO 65 ° 0 min 0 W/m² 12,3 °C 18,1 °C 3,2 km/h (1 Bft)
14.07.2023 22:41 24,3 °C 18,0 °C 56 % 69 % 1011,9 hPa 0,0 l/m² 2,1 km/h (1 Bft) O-NO 65 ° 0 min 0 W/m² 12,2 °C 18,0 °C 3,2 km/h (1 Bft)
14.07.2023 22:42 24,3 °C 17,9 °C 56 % 68 % 1011,9 hPa 0,0 l/m² 2,9 km/h (1 Bft) O-NO 65 ° 0 min 0 W/m² 11,9 °C 17,9 °C 4,8 km/h (1 Bft)
14.07.2023 22:44 24,3 °C 18,0 °C 56 % 66 % 1011,8 hPa 0,0 l/m² 3,0 km/h (1 Bft) O-NO 65 ° 0 min 0 W/m² 11,6 °C 18,0 °C 4,8 km/h (1 Bft)
14.07.2023 22:45 24,3 °C 18,1 °C 56 % 66 % 1011,9 hPa 0,0 l/m² 3,8 km/h (1 Bft) O-NO 74 ° 0 min 0 W/m² 11,6 °C 18,1 °C 4,8 km/h (1 Bft)
14.07.2023 22:47 24,3 °C 18,2 °C 56 % 65 % 1011,9 hPa 0,0 l/m² 3,6 km/h (1 Bft) O-NO 74 ° 0 min 0 W/m² 11,5 °C 18,2 °C 4,8 km/h (1 Bft)
14.07.2023 22:49 24,3 °C 18,3 °C 56 % 65 % 1011,9 hPa 0,0 l/m² 3,3 km/h (1 Bft) O-NO 74 ° 0 min 0 W/m² 11,6 °C 18,3 °C 4,8 km/h (1 Bft)
14.07.2023 22:50 24,3 °C 18,4 °C 56 % 65 % 1011,9 hPa 0,0 l/m² 2,8 km/h (1 Bft) O-NO 74 ° 0 min 0 W/m² 11,7 °C 18,4 °C 3,2 km/h (1 Bft)
14.07.2023 22:51 24,3 °C 18,4 °C 56 % 65 % 1011,9 hPa 0,0 l/m² 3,4 km/h (1 Bft) O-NO 74 ° 0 min 0 W/m² 11,7 °C 18,4 °C 4,8 km/h (1 Bft)
14.07.2023 22:52 24,3 °C 18,4 °C 56 % 65 % 1011,9 hPa 0,0 l/m² 3,2 km/h (1 Bft) O-NO 73 ° 0 min 0 W/m² 11,7 °C 18,4 °C 3,2 km/h (1 Bft)
14.07.2023 22:54 24,3 °C 18,4 °C 56 % 65 % 1011,9 hPa 0,0 l/m² 3,2 km/h (1 Bft) O-NO 74 ° 0 min 0 W/m² 11,7 °C 18,4 °C 4,8 km/h (1 Bft)
14.07.2023 22:55 24,3 °C 18,4 °C 56 % 65 % 1011,9 hPa 0,0 l/m² 3,3 km/h (1 Bft) O-NO 74 ° 0 min 0 W/m² 11,7 °C 18,4 °C 4,8 km/h (1 Bft)
14.07.2023 22:57 24,3 °C 18,3 °C 56 % 65 % 1011,9 hPa 0,0 l/m² 4,0 km/h (1 Bft) O-NO 74 ° 0 min 0 W/m² 11,6 °C 18,3 °C 4,8 km/h (1 Bft)
14.07.2023 22:59 24,3 °C 18,2 °C 56 % 65 % 1011,9 hPa 0,0 l/m² 4,1 km/h (1 Bft) O-NO 74 ° 0 min 0 W/m² 11,5 °C 18,2 °C 4,8 km/h (1 Bft)
14.07.2023 23:00 24,3 °C 18,2 °C 56 % 65 % 1011,8 hPa 0,0 l/m² 3,9 km/h (1 Bft) O-NO 73 ° 0 min 0 W/m² 11,5 °C 18,2 °C 4,8 km/h (1 Bft)
14.07.2023 23:01 24,3 °C 18,3 °C 56 % 65 % 1011,8 hPa 0,0 l/m² 4,4 km/h (1 Bft) O-NO 72 ° 0 min 0 W/m² 11,6 °C 18,3 °C 6,4 km/h (2 Bft)
14.07.2023 23:02 24,3 °C 18,3 °C 56 % 65 % 1011,8 hPa 0,0 l/m² 3,1 km/h (1 Bft) O-NO 72 ° 0 min 0 W/m² 11,6 °C 18,3 °C 4,8 km/h (1 Bft)
14.07.2023 23:04 24,3 °C 18,4 °C 56 % 64 % 1011,8 hPa 0,0 l/m² 3,6 km/h (1 Bft) O-NO 75 ° 0 min 0 W/m² 11,5 °C 18,4 °C 6,4 km/h (2 Bft)
14.07.2023 23:05 24,3 °C 18,4 °C 56 % 64 % 1011,8 hPa 0,0 l/m² 3,8 km/h (1 Bft) O-NO 74 ° 0 min 0 W/m² 11,5 °C 18,4 °C 4,8 km/h (1 Bft)
14.07.2023 23:07 24,3 °C 18,6 °C 56 % 64 % 1011,8 hPa 0,0 l/m² 3,5 km/h (1 Bft) O-NO 75 ° 0 min 0 W/m² 11,7 °C 18,6 °C 4,8 km/h (1 Bft)
14.07.2023 23:09 24,3 °C 18,6 °C 56 % 64 % 1011,8 hPa 0,0 l/m² 2,7 km/h (1 Bft) O-NO 75 ° 0 min 0 W/m² 11,7 °C 18,6 °C 4,8 km/h (1 Bft)
14.07.2023 23:10 24,3 °C 18,6 °C 56 % 64 % 1011,8 hPa 0,0 l/m² 3,0 km/h (1 Bft) O-NO 75 ° 0 min 0 W/m² 11,7 °C 18,6 °C 4,8 km/h (1 Bft)
14.07.2023 23:11 24,3 °C 18,7 °C 56 % 64 % 1011,8 hPa 0,0 l/m² 3,4 km/h (1 Bft) O-NO 75 ° 0 min 0 W/m² 11,7 °C 18,7 °C 4,8 km/h (1 Bft)
14.07.2023 23:12 24,3 °C 18,7 °C 56 % 65 % 1011,8 hPa 0,0 l/m² 2,8 km/h (1 Bft) O-NO 75 ° 0 min 0 W/m² 12,0 °C 18,7 °C 4,8 km/h (1 Bft)
14.07.2023 23:14 24,2 °C 18,7 °C 56 % 65 % 1011,8 hPa 0,0 l/m² 2,8 km/h (1 Bft) O-NO 74 ° 0 min 0 W/m² 12,0 °C 18,7 °C 4,8 km/h (1 Bft)
14.07.2023 23:15 24,3 °C 18,7 °C 56 % 64 % 1011,8 hPa 0,0 l/m² 1,6 km/h (1 Bft) O-NO 67 ° 0 min 0 W/m² 11,7 °C 18,7 °C 4,8 km/h (1 Bft)
14.07.2023 23:16 24,3 °C 18,7 °C 56 % 65 % 1011,8 hPa 0,0 l/m² 3,2 km/h (1 Bft) O-NO 67 ° 0 min 0 W/m² 12,0 °C 18,7 °C 4,8 km/h (1 Bft)
14.07.2023 23:22 24,3 °C 18,7 °C 56 % 65 % 1011,8 hPa 0,0 l/m² 3,1 km/h (1 Bft) O-NO 71 ° 0 min 0 W/m² 12,0 °C 18,7 °C 4,8 km/h (1 Bft)
14.07.2023 23:24 24,3 °C 18,7 °C 56 % 65 % 1011,7 hPa 0,0 l/m² 2,5 km/h (1 Bft) O-NO 71 ° 0 min 0 W/m² 12,0 °C 18,7 °C 4,8 km/h (1 Bft)
14.07.2023 23:25 24,3 °C 18,7 °C 56 % 65 % 1011,7 hPa 0,0 l/m² 2,1 km/h (1 Bft) O-NO 71 ° 0 min 0 W/m² 12,0 °C 18,7 °C 3,2 km/h (1 Bft)
14.07.2023 23:26 24,3 °C 18,7 °C 56 % 65 % 1011,8 hPa 0,0 l/m² 2,0 km/h (1 Bft) O-NO 71 ° 0 min 0 W/m² 12,0 °C 18,7 °C 3,2 km/h (1 Bft)
14.07.2023 23:28 24,3 °C 18,7 °C 56 % 65 % 1011,8 hPa 0,0 l/m² 2,5 km/h (1 Bft) O-NO 71 ° 0 min 0 W/m² 12,0 °C 18,7 °C 3,2 km/h (1 Bft)
14.07.2023 23:30 24,3 °C 18,7 °C 56 % 66 % 1011,8 hPa 0,0 l/m² 2,5 km/h (1 Bft) O-NO 71 ° 0 min 0 W/m² 12,2 °C 18,7 °C 3,2 km/h (1 Bft)
14.07.2023 23:31 24,3 °C 18,7 °C 56 % 67 % 1011,8 hPa 0,0 l/m² 2,1 km/h (1 Bft) O-NO 71 ° 0 min 0 W/m² 12,4 °C 18,7 °C 3,2 km/h (1 Bft)
14.07.2023 23:32 24,3 °C 18,7 °C 56 % 67 % 1011,8 hPa 0,0 l/m² 1,6 km/h (1 Bft) O-NO 71 ° 0 min 0 W/m² 12,4 °C 18,7 °C 1,6 km/h (1 Bft)
14.07.2023 23:34 24,3 °C 18,6 °C 56 % 68 % 1011,8 hPa 0,0 l/m² 0,1 km/h (0 Bft) O-NO 71 ° 0 min 0 W/m² 12,6 °C 18,6 °C 1,6 km/h (1 Bft)
14.07.2023 23:35 24,3 °C 18,6 °C 56 % 68 % 1011,7 hPa 0,0 l/m² 0,0 km/h (0 Bft) O-NO 71 ° 0 min 0 W/m² 12,6 °C 18,6 °C 0,0 km/h (0 Bft)
14.07.2023 23:37 24,2 °C 18,5 °C 56 % 67 % 1011,8 hPa 0,0 l/m² 0,0 km/h (0 Bft) O-NO 71 ° 0 min 0 W/m² 12,3 °C 18,5 °C 0,0 km/h (0 Bft)
14.07.2023 23:39 24,3 °C 18,4 °C 56 % 66 % 1011,7 hPa 0,0 l/m² 0,0 km/h (0 Bft) O-NO 71 ° 0 min 0 W/m² 11,9 °C 18,4 °C 0,0 km/h (0 Bft)
14.07.2023 23:40 24,3 °C 18,4 °C 56 % 65 % 1011,8 hPa 0,0 l/m² 0,0 km/h (0 Bft) O-NO 71 ° 0 min 0 W/m² 11,7 °C 18,4 °C 0,0 km/h (0 Bft)
14.07.2023 23:41 24,2 °C 18,5 °C 56 % 66 % 1011,7 hPa 0,0 l/m² 0,0 km/h (0 Bft) O-NO 71 ° 0 min 0 W/m² 12,0 °C 18,5 °C 0,0 km/h (0 Bft)
14.07.2023 23:42 24,2 °C 18,5 °C 56 % 68 % 1011,7 hPa 0,0 l/m² 0,0 km/h (0 Bft) O-NO 71 ° 0 min 0 W/m² 12,5 °C 18,5 °C 0,0 km/h (0 Bft)
14.07.2023 23:44 24,3 °C 18,5 °C 56 % 66 % 1011,8 hPa 0,0 l/m² 0,0 km/h (0 Bft) O-NO 71 ° 0 min 0 W/m² 12,0 °C 18,5 °C 0,0 km/h (0 Bft)
14.07.2023 23:45 24,3 °C 18,6 °C 56 % 67 % 1011,8 hPa 0,0 l/m² 0,0 km/h (0 Bft) O-NO 71 ° 0 min 0 W/m² 12,3 °C 18,6 °C 0,0 km/h (0 Bft)
14.07.2023 23:47 24,3 °C 18,6 °C 56 % 67 % 1011,7 hPa 0,0 l/m² 0,0 km/h (0 Bft) O-NO 71 ° 0 min 0 W/m² 12,3 °C 18,6 °C 0,0 km/h (0 Bft)
14.07.2023 23:49 24,3 °C 18,6 °C 56 % 67 % 1011,7 hPa 0,0 l/m² 0,0 km/h (0 Bft) O-NO 71 ° 0 min 0 W/m² 12,3 °C 18,6 °C 0,0 km/h (0 Bft)
14.07.2023 23:50 24,3 °C 18,6 °C 56 % 68 % 1011,8 hPa 0,0 l/m² 0,0 km/h (0 Bft) O-NO 71 ° 0 min 0 W/m² 12,6 °C 18,6 °C 0,0 km/h (0 Bft)
14.07.2023 23:51 24,2 °C 18,6 °C 56 % 67 % 1011,8 hPa 0,0 l/m² 0,0 km/h (0 Bft) O-NO 71 ° 0 min 0 W/m² 12,3 °C 18,6 °C 0,0 km/h (0 Bft)
14.07.2023 23:52 24,2 °C 18,6 °C 56 % 67 % 1011,8 hPa 0,0 l/m² 0,0 km/h (0 Bft) O-NO 71 ° 0 min 0 W/m² 12,3 °C 18,6 °C 0,0 km/h (0 Bft)
14.07.2023 23:53 24,3 °C 18,6 °C 56 % 67 % 1011,8 hPa 0,0 l/m² 0,0 km/h (0 Bft) O-NO 71 ° 0 min 0 W/m² 12,3 °C 18,6 °C 0,0 km/h (0 Bft)
14.07.2023 23:54 24,3 °C 18,5 °C 56 % 69 % 1011,7 hPa 0,0 l/m² 0,0 km/h (0 Bft) O-NO 71 ° 0 min 0 W/m² 12,7 °C 18,5 °C 0,0 km/h (0 Bft)
14.07.2023 23:56 24,3 °C 18,4 °C 56 % 66 % 1011,7 hPa 0,0 l/m² 0,0 km/h (0 Bft) O-NO 71 ° 0 min 0 W/m² 11,9 °C 18,4 °C 0,0 km/h (0 Bft)
14.07.2023 23:58 24,3 °C 18,5 °C 56 % 68 % 1011,6 hPa 0,0 l/m² 0,0 km/h (0 Bft) O-NO 71 ° 0 min 0 W/m² 12,5 °C 18,5 °C 0,0 km/h (0 Bft)
14.07.2023 23:59 24,3 °C 18,4 °C 56 % 68 % 1011,6 hPa 0,0 l/m² 0,0 km/h (0 Bft) O-NO 71 ° 0 min 0 W/m² 12,4 °C 18,4 °C 0,0 km/h (0 Bft)
_ Min-Zeit 09:15 06:09 20:46 18:24 23:59 - 23:59 - - - - 16:10 06:09 23:59
Minimum _ 24,1 °C 12,1 °C 55 % 34 % 1011,6 hPa - 0,0 km/h (0 Bft) - - - - 10,0 °C 12,1 °C 0,0 km/h (0 Bft)
_ Max-Zeit 20:03 14:30 00:34 06:14 07:03 23:59 13:47 - - 19:27 12:52 08:22 16:34 13:47
Maximum _ 24,4 °C 28,3 °C 57 % 90 % 1018,9 hPa 0,0 l/m² 17,8 km/h
S (3 Bft)
- - 2 min 1120 W/m² 13,6 °C 28,1 °C 24,1 km/h
S (4 Bft)
Durchschnitt _ 24,3 °C 20,6 °C 56 % 60 % 1016,1 hPa #0,0 l/m² 3,5 km/h (1 Bft) S - #13:24 h 255 W/m² 11,5 °C 20,5 °C 5,4 km/h (1 Bft)
© 2009 Mathias Hoßbach